Wetterdaten: Samstag, 09.11.2019
Datum Zeit Temp. A. Feuchte A. Luftdruck Regen Wind Richtung Richtung Sonnenschein ET UV Solar Taupunkt Windchill Windböen
09.11.2019 00:00 2,4 °C 91 % 1006,9 hPa 0,0 mm 0,0 km/h (0 Bft) W 279 ° 0 min 0,000 mm 0,0 UV-I 0 W/m² 1,1 °C 2,4 °C 0,0 km/h (0 Bft)
09.11.2019 00:01 2,4 °C 91 % 1007,0 hPa 0,0 mm 0,0 km/h (0 Bft) W 279 ° 0 min 0,000 mm 0,0 UV-I 0 W/m² 1,1 °C 2,4 °C 0,0 km/h (0 Bft)
09.11.2019 00:02 2,4 °C 91 % 1007,0 hPa 0,0 mm 6,0 km/h (2 Bft) W-SW 241 ° 0 min 0,000 mm 0,0 UV-I 0 W/m² 1,1 °C 0,7 °C 6,4 km/h (2 Bft)
09.11.2019 00:03 2,3 °C 91 % 1007,0 hPa 0,0 mm 4,9 km/h (1 Bft) W-SW 258 ° 0 min 0,000 mm 0,0 UV-I 0 W/m² 1,0 °C 1,1 °C 6,4 km/h (2 Bft)
09.11.2019 00:04 2,3 °C 91 % 1007,0 hPa 0,0 mm 6,0 km/h (2 Bft) W-SW 257 ° 0 min 0,000 mm 0,0 UV-I 0 W/m² 1,0 °C 0,6 °C 9,7 km/h (2 Bft)
09.11.2019 00:05 2,3 °C 91 % 1007,0 hPa 0,0 mm 5,0 km/h (1 Bft) W 264 ° 0 min 0,000 mm 0,0 UV-I 0 W/m² 1,0 °C 1,0 °C 9,7 km/h (2 Bft)
09.11.2019 00:06 2,4 °C 91 % 1007,1 hPa 0,0 mm 4,8 km/h (1 Bft) W-NW 290 ° 0 min 0,000 mm 0,0 UV-I 0 W/m² 1,1 °C 1,2 °C 9,7 km/h (2 Bft)
09.11.2019 00:07 2,3 °C 91 % 1007,1 hPa 0,0 mm 2,4 km/h (1 Bft) W 266 ° 0 min 0,000 mm 0,0 UV-I 0 W/m² 1,0 °C 2,3 °C 6,4 km/h (2 Bft)
09.11.2019 00:08 2,3 °C 91 % 1007,1 hPa 0,0 mm 2,0 km/h (1 Bft) W 266 ° 0 min 0,000 mm 0,0 UV-I 0 W/m² 1,0 °C 2,3 °C 3,2 km/h (1 Bft)
09.11.2019 00:09 2,3 °C 91 % 1007,1 hPa 0,0 mm 2,5 km/h (1 Bft) W 266 ° 0 min 0,000 mm 0,0 UV-I 0 W/m² 1,0 °C 2,3 °C 4,8 km/h (1 Bft)
09.11.2019 00:10 2,3 °C 91 % 1007,1 hPa 0,0 mm 2,6 km/h (1 Bft) W 266 ° 0 min 0,000 mm 0,0 UV-I 0 W/m² 1,0 °C 2,3 °C 4,8 km/h (1 Bft)
09.11.2019 00:11 2,3 °C 91 % 1007,1 hPa 0,0 mm 4,2 km/h (1 Bft) W 268 ° 0 min 0,000 mm 0,0 UV-I 0 W/m² 1,0 °C 2,3 °C 6,4 km/h (2 Bft)
09.11.2019 00:12 2,3 °C 91 % 1007,1 hPa 0,0 mm 3,2 km/h (1 Bft) W 267 ° 0 min 0,000 mm 0,0 UV-I 0 W/m² 1,0 °C 2,3 °C 4,8 km/h (1 Bft)
09.11.2019 00:13 2,3 °C 91 % 1007,0 hPa 0,0 mm 3,6 km/h (1 Bft) W 267 ° 0 min 0,000 mm 0,0 UV-I 0 W/m² 1,0 °C 2,3 °C 4,8 km/h (1 Bft)
09.11.2019 00:14 2,3 °C 91 % 1007,0 hPa 0,0 mm 0,7 km/h (0 Bft) W 267 ° 0 min 0,000 mm 0,0 UV-I 0 W/m² 1,0 °C 2,3 °C 3,2 km/h (1 Bft)
09.11.2019 00:15 2,3 °C 91 % 1007,0 hPa 0,0 mm 3,4 km/h (1 Bft) W 270 ° 0 min 0,000 mm 0,0 UV-I 0 W/m² 1,0 °C 2,3 °C 4,8 km/h (1 Bft)
09.11.2019 00:16 2,3 °C 91 % 1007,0 hPa 0,0 mm 1,6 km/h (1 Bft) W 270 ° 0 min 0,000 mm 0,0 UV-I 0 W/m² 1,0 °C 2,3 °C 3,2 km/h (1 Bft)
09.11.2019 00:17 2,3 °C 91 % 1006,9 hPa 0,0 mm 1,6 km/h (1 Bft) SW 225 ° 0 min 0,000 mm 0,0 UV-I 0 W/m² 1,0 °C 2,3 °C 3,2 km/h (1 Bft)
09.11.2019 00:18 2,3 °C 91 % 1006,8 hPa 0,0 mm 6,4 km/h (2 Bft) W 273 ° 0 min 0,000 mm 0,0 UV-I 0 W/m² 1,0 °C 0,5 °C 9,7 km/h (2 Bft)
09.11.2019 00:19 2,3 °C 91 % 1006,8 hPa 0,0 mm 6,2 km/h (2 Bft) W 260 ° 0 min 0,000 mm 0,0 UV-I 0 W/m² 1,0 °C 0,5 °C 11,3 km/h (2 Bft)
09.11.2019 00:20 2,3 °C 91 % 1006,8 hPa 0,0 mm 4,8 km/h (1 Bft) W 265 ° 0 min 0,000 mm 0,0 UV-I 0 W/m² 1,0 °C 1,1 °C 6,4 km/h (2 Bft)
09.11.2019 00:21 2,3 °C 91 % 1006,7 hPa 0,0 mm 5,5 km/h (1 Bft) W 262 ° 0 min 0,000 mm 0,0 UV-I 0 W/m² 1,0 °C 0,8 °C 8,0 km/h (2 Bft)
09.11.2019 00:22 2,3 °C 91 % 1006,7 hPa 0,0 mm 7,5 km/h (2 Bft) W-SW 255 ° 0 min 0,000 mm 0,0 UV-I 0 W/m² 1,0 °C 0,1 °C 14,5 km/h (3 Bft)
09.11.2019 00:23 2,2 °C 91 % 1006,7 hPa 0,0 mm 6,9 km/h (2 Bft) W-SW 257 ° 0 min 0,000 mm 0,0 UV-I 0 W/m² 0,9 °C 0,2 °C 11,3 km/h (2 Bft)
09.11.2019 00:24 2,2 °C 91 % 1006,7 hPa 0,0 mm 2,8 km/h (1 Bft) W-SW 257 ° 0 min 0,000 mm 0,0 UV-I 0 W/m² 0,9 °C 2,2 °C 3,2 km/h (1 Bft)
09.11.2019 00:25 2,2 °C 91 % 1006,7 hPa 0,0 mm 4,8 km/h (1 Bft) W-SW 244 ° 0 min 0,000 mm 0,0 UV-I 0 W/m² 0,9 °C 1,0 °C 9,7 km/h (2 Bft)
09.11.2019 00:26 2,2 °C 91 % 1006,7 hPa 0,0 mm 7,0 km/h (2 Bft) W-SW 237 ° 0 min 0,000 mm 0,0 UV-I 0 W/m² 0,9 °C 0,2 °C 11,3 km/h (2 Bft)
09.11.2019 00:27 2,2 °C 91 % 1006,8 hPa 0,0 mm 6,4 km/h (2 Bft) W 265 ° 0 min 0,000 mm 0,0 UV-I 0 W/m² 0,9 °C 0,4 °C 9,7 km/h (2 Bft)
09.11.2019 00:28 2,2 °C 91 % 1006,8 hPa 0,0 mm 6,4 km/h (2 Bft) W 259 ° 0 min 0,000 mm 0,0 UV-I 0 W/m² 0,9 °C 0,4 °C 11,3 km/h (2 Bft)
09.11.2019 00:29 2,2 °C 91 % 1006,8 hPa 0,0 mm 3,2 km/h (1 Bft) W-SW 242 ° 0 min 0,000 mm 0,0 UV-I 0 W/m² 0,9 °C 2,2 °C 4,8 km/h (1 Bft)
09.11.2019 00:30 2,2 °C 91 % 1006,7 hPa 0,0 mm 4,2 km/h (1 Bft) W 265 ° 0 min 0,000 mm 0,0 UV-I 0 W/m² 0,9 °C 2,2 °C 9,7 km/h (2 Bft)
09.11.2019 00:31 2,2 °C 91 % 1006,7 hPa 0,0 mm 5,1 km/h (1 Bft) W 263 ° 0 min 0,000 mm 0,0 UV-I 0 W/m² 0,9 °C 0,9 °C 6,4 km/h (2 Bft)
09.11.2019 00:32 2,2 °C 91 % 1006,7 hPa 0,0 mm 5,0 km/h (1 Bft) W 263 ° 0 min 0,000 mm 0,0 UV-I 0 W/m² 0,9 °C 0,9 °C 6,4 km/h (2 Bft)
09.11.2019 00:33 2,2 °C 91 % 1006,7 hPa 0,0 mm 3,6 km/h (1 Bft) W-SW 242 ° 0 min 0,000 mm 0,0 UV-I 0 W/m² 0,9 °C 2,2 °C 4,8 km/h (1 Bft)
09.11.2019 00:34 2,2 °C 91 % 1006,7 hPa 0,0 mm 2,7 km/h (1 Bft) W 260 ° 0 min 0,000 mm 0,0 UV-I 0 W/m² 0,9 °C 2,2 °C 3,2 km/h (1 Bft)
09.11.2019 00:35 2,1 °C 91 % 1006,7 hPa 0,0 mm 2,7 km/h (1 Bft) W 273 ° 0 min 0,000 mm 0,0 UV-I 0 W/m² 0,8 °C 2,1 °C 4,8 km/h (1 Bft)
09.11.2019 00:36 2,1 °C 91 % 1006,7 hPa 0,0 mm 7,6 km/h (2 Bft) W-SW 251 ° 0 min 0,000 mm 0,0 UV-I 0 W/m² 0,8 °C -0,2 °C 12,9 km/h (3 Bft)
09.11.2019 00:37 2,2 °C 91 % 1006,7 hPa 0,0 mm 11,3 km/h (2 Bft) W 261 ° 0 min 0,000 mm 0,0 UV-I 0 W/m² 0,9 °C -1,0 °C 14,5 km/h (3 Bft)
09.11.2019 00:38 2,2 °C 91 % 1006,7 hPa 0,0 mm 9,6 km/h (2 Bft) SW 232 ° 0 min 0,000 mm 0,0 UV-I 0 W/m² 0,9 °C -0,6 °C 12,9 km/h (3 Bft)
09.11.2019 00:39 2,2 °C 91 % 1006,7 hPa 0,0 mm 7,0 km/h (2 Bft) W-SW 250 ° 0 min 0,000 mm 0,0 UV-I 0 W/m² 0,9 °C 0,2 °C 11,3 km/h (2 Bft)
09.11.2019 00:40 2,1 °C 91 % 1006,7 hPa 0,0 mm 7,0 km/h (2 Bft) W 262 ° 0 min 0,000 mm 0,0 UV-I 0 W/m² 0,8 °C 0,0 °C 11,3 km/h (2 Bft)
09.11.2019 00:41 2,1 °C 91 % 1006,7 hPa 0,0 mm 5,5 km/h (1 Bft) W-SW 250 ° 0 min 0,000 mm 0,0 UV-I 0 W/m² 0,8 °C 0,6 °C 12,9 km/h (3 Bft)
09.11.2019 00:42 2,1 °C 91 % 1006,7 hPa 0,0 mm 6,1 km/h (2 Bft) W-SW 257 ° 0 min 0,000 mm 0,0 UV-I 0 W/m² 0,8 °C 0,4 °C 9,7 km/h (2 Bft)
09.11.2019 00:43 2,1 °C 91 % 1006,7 hPa 0,0 mm 5,5 km/h (1 Bft) W-SW 254 ° 0 min 0,000 mm 0,0 UV-I 0 W/m² 0,8 °C 0,6 °C 9,7 km/h (2 Bft)
09.11.2019 00:44 2,1 °C 91 % 1006,7 hPa 0,0 mm 6,4 km/h (2 Bft) W-SW 254 ° 0 min 0,000 mm 0,0 UV-I 0 W/m² 0,8 °C 0,2 °C 11,3 km/h (2 Bft)
09.11.2019 00:45 2,1 °C 91 % 1006,7 hPa 0,0 mm 3,8 km/h (1 Bft) W 281 ° 0 min 0,000 mm 0,0 UV-I 0 W/m² 0,8 °C 2,1 °C 6,4 km/h (2 Bft)
09.11.2019 00:46 2,1 °C 91 % 1006,8 hPa 0,0 mm 7,3 km/h (2 Bft) W 266 ° 0 min 0,000 mm 0,0 UV-I 0 W/m² 0,8 °C -0,1 °C 11,3 km/h (2 Bft)
09.11.2019 00:47 2,1 °C 91 % 1006,7 hPa 0,0 mm 4,4 km/h (1 Bft) W 262 ° 0 min 0,000 mm 0,0 UV-I 0 W/m² 0,8 °C 2,1 °C 9,7 km/h (2 Bft)
09.11.2019 00:48 2,1 °C 91 % 1006,7 hPa 0,0 mm 3,3 km/h (1 Bft) W-SW 257 ° 0 min 0,000 mm 0,0 UV-I 0 W/m² 0,8 °C 2,1 °C 6,4 km/h (2 Bft)
09.11.2019 00:49 2,1 °C 91 % 1006,8 hPa 0,0 mm 3,7 km/h (1 Bft) W 259 ° 0 min 0,000 mm 0,0 UV-I 0 W/m² 0,8 °C 2,1 °C 6,4 km/h (2 Bft)
09.11.2019 00:50 2,1 °C 91 % 1006,8 hPa 0,0 mm 6,2 km/h (2 Bft) W-SW 252 ° 0 min 0,000 mm 0,0 UV-I 0 W/m² 0,8 °C 0,3 °C 11,3 km/h (2 Bft)
09.11.2019 00:51 2,1 °C 91 % 1006,8 hPa 0,0 mm 3,9 km/h (1 Bft) W 266 ° 0 min 0,000 mm 0,0 UV-I 0 W/m² 0,8 °C 2,1 °C 6,4 km/h (2 Bft)
09.11.2019 00:52 2,1 °C 91 % 1006,8 hPa 0,0 mm 2,1 km/h (1 Bft) W 265 ° 0 min 0,000 mm 0,0 UV-I 0 W/m² 0,8 °C 2,1 °C 3,2 km/h (1 Bft)
09.11.2019 00:53 2,1 °C 91 % 1006,8 hPa 0,0 mm 4,8 km/h (1 Bft) W-NW 294 ° 0 min 0,000 mm 0,0 UV-I 0 W/m² 0,8 °C 0,9 °C 6,4 km/h (2 Bft)
09.11.2019 00:54 2,1 °C 91 % 1006,7 hPa 0,0 mm 5,0 km/h (1 Bft) W 273 ° 0 min 0,000 mm 0,0 UV-I 0 W/m² 0,8 °C 0,8 °C 9,7 km/h (2 Bft)
09.11.2019 00:55 2,1 °C 91 % 1006,7 hPa 0,0 mm 4,0 km/h (1 Bft) W 279 ° 0 min 0,000 mm 0,0 UV-I 0 W/m² 0,8 °C 2,1 °C 4,8 km/h (1 Bft)
09.11.2019 00:56 2,1 °C 91 % 1006,6 hPa 0,0 mm 4,5 km/h (1 Bft) W-SW 244 ° 0 min 0,000 mm 0,0 UV-I 0 W/m² 0,8 °C 2,1 °C 9,7 km/h (2 Bft)
09.11.2019 00:57 2,1 °C 91 % 1006,6 hPa 0,0 mm 9,8 km/h (2 Bft) W 280 ° 0 min 0,000 mm 0,0 UV-I 0 W/m² 0,8 °C -0,8 °C 12,9 km/h (3 Bft)
09.11.2019 00:58 2,1 °C 91 % 1006,6 hPa 0,0 mm 4,9 km/h (1 Bft) W 262 ° 0 min 0,000 mm 0,0 UV-I 0 W/m² 0,8 °C 0,8 °C 6,4 km/h (2 Bft)
09.11.2019 00:59 2,1 °C 91 % 1006,5 hPa 0,0 mm 1,5 km/h (1 Bft) W 261 ° 0 min 0,000 mm 0,0 UV-I 0 W/m² 0,8 °C 2,1 °C 3,2 km/h (1 Bft)
09.11.2019 01:00 2,1 °C 91 % 1006,5 hPa 0,0 mm 8,9 km/h (2 Bft) W 265 ° 0 min 0,000 mm 0,0 UV-I 0 W/m² 0,8 °C -0,5 °C 14,5 km/h (3 Bft)
09.11.2019 01:01 2,1 °C 91 % 1006,6 hPa 0,0 mm 5,6 km/h (1 Bft) SW 236 ° 0 min 0,000 mm 0,0 UV-I 0 W/m² 0,8 °C 0,5 °C 9,7 km/h (2 Bft)
09.11.2019 01:02 2,1 °C 91 % 1006,5 hPa 0,0 mm 5,3 km/h (1 Bft) W-SW 251 ° 0 min 0,000 mm 0,0 UV-I 0 W/m² 0,8 °C 0,7 °C 8,0 km/h (2 Bft)
09.11.2019 01:03 2,1 °C 91 % 1006,6 hPa 0,0 mm 5,4 km/h (1 Bft) W 261 ° 0 min 0,000 mm 0,0 UV-I 0 W/m² 0,8 °C 0,6 °C 9,7 km/h (2 Bft)
09.11.2019 01:04 2,1 °C 91 % 1006,5 hPa 0,0 mm 9,9 km/h (2 Bft) W 267 ° 0 min 0,000 mm 0,0 UV-I 0 W/m² 0,8 °C -0,8 °C 11,3 km/h (2 Bft)
09.11.2019 01:05 2,2 °C 91 % 1006,6 hPa 0,0 mm 10,4 km/h (2 Bft) W 270 ° 0 min 0,000 mm 0,0 UV-I 0 W/m² 0,9 °C -0,8 °C 14,5 km/h (3 Bft)
09.11.2019 01:06 2,1 °C 91 % 1006,6 hPa 0,0 mm 6,8 km/h (2 Bft) SW 225 ° 0 min 0,000 mm 0,0 UV-I 0 W/m² 0,8 °C 0,1 °C 11,3 km/h (2 Bft)
09.11.2019 01:07 2,1 °C 91 % 1006,5 hPa 0,0 mm 4,7 km/h (1 Bft) W 260 ° 0 min 0,000 mm 0,0 UV-I 0 W/m² 0,8 °C 0,9 °C 6,4 km/h (2 Bft)
09.11.2019 01:08 2,2 °C 91 % 1006,6 hPa 0,0 mm 6,8 km/h (2 Bft) W 275 ° 0 min 0,000 mm 0,0 UV-I 0 W/m² 0,9 °C 0,2 °C 12,9 km/h (3 Bft)
09.11.2019 01:09 2,2 °C 91 % 1006,6 hPa 0,0 mm 6,5 km/h (2 Bft) W 266 ° 0 min 0,000 mm 0,0 UV-I 0 W/m² 0,9 °C 0,3 °C 11,3 km/h (2 Bft)
09.11.2019 01:10 2,2 °C 91 % 1006,7 hPa 0,0 mm 5,9 km/h (2 Bft) S-SW 207 ° 0 min 0,000 mm 0,0 UV-I 0 W/m² 0,9 °C 0,5 °C 8,0 km/h (2 Bft)
09.11.2019 01:11 2,1 °C 91 % 1006,7 hPa 0,0 mm 4,8 km/h (1 Bft) W 259 ° 0 min 0,000 mm 0,0 UV-I 0 W/m² 0,8 °C 0,9 °C 9,7 km/h (2 Bft)
09.11.2019 01:12 2,2 °C 91 % 1006,7 hPa 0,0 mm 4,9 km/h (1 Bft) W-SW 244 ° 0 min 0,000 mm 0,0 UV-I 0 W/m² 0,9 °C 1,0 °C 11,3 km/h (2 Bft)
09.11.2019 01:13 2,2 °C 91 % 1006,8 hPa 0,0 mm 5,2 km/h (1 Bft) W-SW 251 ° 0 min 0,000 mm 0,0 UV-I 0 W/m² 0,9 °C 0,8 °C 11,3 km/h (2 Bft)
09.11.2019 01:14 2,2 °C 91 % 1006,8 hPa 0,0 mm 7,8 km/h (2 Bft) W-SW 246 ° 0 min 0,000 mm 0,0 UV-I 0 W/m² 0,9 °C -0,1 °C 12,9 km/h (3 Bft)
09.11.2019 01:15 2,2 °C 91 % 1006,8 hPa 0,0 mm 7,6 km/h (2 Bft) SW 217 ° 0 min 0,000 mm 0,0 UV-I 0 W/m² 0,9 °C -0,0 °C 12,9 km/h (3 Bft)
09.11.2019 01:16 2,2 °C 91 % 1006,8 hPa 0,0 mm 6,4 km/h (2 Bft) W-SW 252 ° 0 min 0,000 mm 0,0 UV-I 0 W/m² 0,9 °C 0,4 °C 12,9 km/h (3 Bft)
09.11.2019 01:17 2,2 °C 91 % 1006,9 hPa 0,0 mm 4,8 km/h (1 Bft) W 260 ° 0 min 0,000 mm 0,0 UV-I 0 W/m² 0,9 °C 1,0 °C 6,4 km/h (2 Bft)
09.11.2019 01:18 2,2 °C 91 % 1006,9 hPa 0,0 mm 3,6 km/h (1 Bft) W 259 ° 0 min 0,000 mm 0,0 UV-I 0 W/m² 0,9 °C 2,2 °C 4,8 km/h (1 Bft)
09.11.2019 01:19 2,2 °C 91 % 1006,9 hPa 0,0 mm 6,0 km/h (2 Bft) W-SW 251 ° 0 min 0,000 mm 0,0 UV-I 0 W/m² 0,9 °C 0,5 °C 9,7 km/h (2 Bft)
09.11.2019 01:20 2,2 °C 91 % 1006,8 hPa 0,0 mm 3,6 km/h (1 Bft) NW 324 ° 0 min 0,000 mm 0,0 UV-I 0 W/m² 0,9 °C 2,2 °C 6,4 km/h (2 Bft)
09.11.2019 01:21 2,2 °C 91 % 1006,8 hPa 0,0 mm 6,0 km/h (2 Bft) W-SW 243 ° 0 min 0,000 mm 0,0 UV-I 0 W/m² 0,9 °C 0,5 °C 11,3 km/h (2 Bft)
09.11.2019 01:22 2,2 °C 91 % 1006,8 hPa 0,0 mm 8,0 km/h (2 Bft) W 272 ° 0 min 0,000 mm 0,0 UV-I 0 W/m² 0,9 °C -0,2 °C 11,3 km/h (2 Bft)
09.11.2019 01:23 2,2 °C 91 % 1006,8 hPa 0,0 mm 7,1 km/h (2 Bft) W 271 ° 0 min 0,000 mm 0,0 UV-I 0 W/m² 0,9 °C 0,1 °C 11,3 km/h (2 Bft)
09.11.2019 01:24 2,2 °C 91 % 1006,8 hPa 0,0 mm 6,6 km/h (2 Bft) W 268 ° 0 min 0,000 mm 0,0 UV-I 0 W/m² 0,9 °C 0,3 °C 14,5 km/h (3 Bft)
09.11.2019 01:25 2,2 °C 91 % 1006,8 hPa 0,0 mm 7,8 km/h (2 Bft) W 262 ° 0 min 0,000 mm 0,0 UV-I 0 W/m² 0,9 °C -0,1 °C 12,9 km/h (3 Bft)
09.11.2019 01:26 2,2 °C 91 % 1006,8 hPa 0,0 mm 7,9 km/h (2 Bft) W-SW 241 ° 0 min 0,000 mm 0,0 UV-I 0 W/m² 0,9 °C -0,1 °C 14,5 km/h (3 Bft)
09.11.2019 01:27 2,2 °C 91 % 1006,8 hPa 0,0 mm 2,8 km/h (1 Bft) W-SW 256 ° 0 min 0,000 mm 0,0 UV-I 0 W/m² 0,9 °C 2,2 °C 4,8 km/h (1 Bft)
09.11.2019 01:28 2,2 °C 91 % 1006,8 hPa 0,0 mm 10,0 km/h (2 Bft) W 269 ° 0 min 0,000 mm 0,0 UV-I 0 W/m² 0,9 °C -0,7 °C 19,3 km/h (3 Bft)
09.11.2019 01:29 2,2 °C 91 % 1006,8 hPa 0,2 mm 9,7 km/h (2 Bft) W-SW 242 ° 0 min 0,000 mm 0,0 UV-I 0 W/m² 0,9 °C -0,6 °C 16,1 km/h (3 Bft)
09.11.2019 01:30 2,2 °C 91 % 1006,9 hPa 0,0 mm 3,4 km/h (1 Bft) W-SW 245 ° 0 min 0,000 mm 0,0 UV-I 0 W/m² 0,9 °C 2,2 °C 6,4 km/h (2 Bft)
09.11.2019 01:31 2,2 °C 91 % 1006,9 hPa 0,0 mm 3,4 km/h (1 Bft) W 261 ° 0 min 0,000 mm 0,0 UV-I 0 W/m² 0,9 °C 2,2 °C 9,7 km/h (2 Bft)
09.11.2019 01:32 2,2 °C 91 % 1007,0 hPa 0,0 mm 9,1 km/h (2 Bft) W-SW 257 ° 0 min 0,000 mm 0,0 UV-I 0 W/m² 0,9 °C -0,5 °C 16,1 km/h (3 Bft)
09.11.2019 01:33 2,2 °C 91 % 1007,0 hPa 0,0 mm 9,1 km/h (2 Bft) W-SW 250 ° 0 min 0,000 mm 0,0 UV-I 0 W/m² 0,9 °C -0,5 °C 12,9 km/h (3 Bft)
09.11.2019 01:34 2,2 °C 91 % 1006,9 hPa 0,0 mm 7,2 km/h (2 Bft) W 271 ° 0 min 0,000 mm 0,0 UV-I 0 W/m² 0,9 °C 0,1 °C 12,9 km/h (3 Bft)
09.11.2019 01:35 2,1 °C 91 % 1006,9 hPa 0,0 mm 5,6 km/h (1 Bft) W 270 ° 0 min 0,000 mm 0,0 UV-I 0 W/m² 0,8 °C 0,5 °C 9,7 km/h (2 Bft)
09.11.2019 01:36 2,1 °C 91 % 1006,9 hPa 0,0 mm 7,0 km/h (2 Bft) W 263 ° 0 min 0,000 mm 0,0 UV-I 0 W/m² 0,8 °C 0,0 °C 12,9 km/h (3 Bft)
09.11.2019 01:37 2,1 °C 91 % 1006,9 hPa 0,0 mm 2,7 km/h (1 Bft) W 260 ° 0 min 0,000 mm 0,0 UV-I 0 W/m² 0,8 °C 2,1 °C 4,8 km/h (1 Bft)
09.11.2019 01:38 2,2 °C 91 % 1006,9 hPa 0,0 mm 6,0 km/h (2 Bft) W-SW 257 ° 0 min 0,000 mm 0,0 UV-I 0 W/m² 0,9 °C 0,5 °C 8,0 km/h (2 Bft)
09.11.2019 01:39 2,2 °C 91 % 1006,9 hPa 0,0 mm 5,9 km/h (2 Bft) W-SW 242 ° 0 min 0,000 mm 0,0 UV-I 0 W/m² 0,9 °C 0,5 °C 11,3 km/h (2 Bft)
09.11.2019 01:40 2,1 °C 91 % 1006,9 hPa 0,0 mm 3,0 km/h (1 Bft) W 265 ° 0 min 0,000 mm 0,0 UV-I 0 W/m² 0,8 °C 2,1 °C 4,8 km/h (1 Bft)
09.11.2019 01:41 2,2 °C 91 % 1006,9 hPa 0,0 mm 2,0 km/h (1 Bft) W 277 ° 0 min 0,000 mm 0,0 UV-I 0 W/m² 0,9 °C 2,2 °C 4,8 km/h (1 Bft)
09.11.2019 01:42 2,1 °C 91 % 1006,9 hPa 0,0 mm 3,2 km/h (1 Bft) W-SW 239 ° 0 min 0,000 mm 0,0 UV-I 0 W/m² 0,8 °C 2,1 °C 4,8 km/h (1 Bft)
09.11.2019 01:43 2,2 °C 91 % 1006,9 hPa 0,0 mm 3,2 km/h (1 Bft) S-SW 194 ° 0 min 0,000 mm 0,0 UV-I 0 W/m² 0,9 °C 2,2 °C 4,8 km/h (1 Bft)
09.11.2019 01:44 2,1 °C 91 % 1007,0 hPa 0,0 mm 4,1 km/h (1 Bft) W-NW 289 ° 0 min 0,000 mm 0,0 UV-I 0 W/m² 0,8 °C 2,1 °C 6,4 km/h (2 Bft)
09.11.2019 01:45 2,1 °C 91 % 1007,0 hPa 0,0 mm 5,0 km/h (1 Bft) W 265 ° 0 min 0,000 mm 0,0 UV-I 0 W/m² 0,8 °C 0,8 °C 8,0 km/h (2 Bft)
09.11.2019 01:46 2,1 °C 91 % 1007,0 hPa 0,0 mm 4,8 km/h (1 Bft) SW 234 ° 0 min 0,000 mm 0,0 UV-I 0 W/m² 0,8 °C 0,9 °C 8,0 km/h (2 Bft)
09.11.2019 01:47 2,1 °C 91 % 1007,0 hPa 0,0 mm 3,9 km/h (1 Bft) S-SW 205 ° 0 min 0,000 mm 0,0 UV-I 0 W/m² 0,8 °C 2,1 °C 4,8 km/h (1 Bft)
09.11.2019 01:48 2,1 °C 91 % 1007,0 hPa 0,0 mm 2,2 km/h (1 Bft) SW 215 ° 0 min 0,000 mm 0,0 UV-I 0 W/m² 0,8 °C 2,1 °C 4,8 km/h (1 Bft)
09.11.2019 01:49 2,1 °C 91 % 1007,0 hPa 0,0 mm 4,4 km/h (1 Bft) W 260 ° 0 min 0,000 mm 0,0 UV-I 0 W/m² 0,8 °C 2,1 °C 11,3 km/h (2 Bft)
09.11.2019 01:50 2,1 °C 91 % 1007,1 hPa 0,0 mm 4,5 km/h (1 Bft) SW 229 ° 0 min 0,000 mm 0,0 UV-I 0 W/m² 0,8 °C 2,1 °C 6,4 km/h (2 Bft)
09.11.2019 01:51 2,1 °C 91 % 1007,0 hPa 0,0 mm 6,5 km/h (2 Bft) W-SW 242 ° 0 min 0,000 mm 0,0 UV-I 0 W/m² 0,8 °C 0,2 °C 9,7 km/h (2 Bft)
09.11.2019 01:52 2,1 °C 91 % 1007,0 hPa 0,0 mm 4,8 km/h (1 Bft) W 262 ° 0 min 0,000 mm 0,0 UV-I 0 W/m² 0,8 °C 0,9 °C 6,4 km/h (2 Bft)
09.11.2019 01:53 2,1 °C 91 % 1007,1 hPa 0,0 mm 2,5 km/h (1 Bft) W 275 ° 0 min 0,000 mm 0,0 UV-I 0 W/m² 0,8 °C 2,1 °C 6,4 km/h (2 Bft)
09.11.2019 01:54 2,1 °C 92 % 1007,1 hPa 0,0 mm 1,9 km/h (1 Bft) W 273 ° 0 min 0,000 mm 0,0 UV-I 0 W/m² 0,9 °C 2,1 °C 3,2 km/h (1 Bft)
09.11.2019 01:55 2,1 °C 92 % 1007,1 hPa 0,0 mm 7,4 km/h (2 Bft) SW 221 ° 0 min 0,000 mm 0,0 UV-I 0 W/m² 0,9 °C -0,1 °C 16,1 km/h (3 Bft)
09.11.2019 01:56 2,1 °C 92 % 1007,1 hPa 0,0 mm 7,1 km/h (2 Bft) S 186 ° 0 min 0,000 mm 0,0 UV-I 0 W/m² 0,9 °C 0,0 °C 11,3 km/h (2 Bft)
09.11.2019 01:57 2,1 °C 92 % 1007,1 hPa 0,0 mm 5,6 km/h (1 Bft) S-SW 203 ° 0 min 0,000 mm 0,0 UV-I 0 W/m² 0,9 °C 0,5 °C 8,0 km/h (2 Bft)
09.11.2019 01:58 2,1 °C 91 % 1007,2 hPa 0,0 mm 3,9 km/h (1 Bft) W 273 ° 0 min 0,000 mm 0,0 UV-I 0 W/m² 0,8 °C 2,1 °C 4,8 km/h (1 Bft)
09.11.2019 01:59 2,1 °C 92 % 1007,2 hPa 0,0 mm 5,3 km/h (1 Bft) W 260 ° 0 min 0,000 mm 0,0 UV-I 0 W/m² 0,9 °C 0,7 °C 9,7 km/h (2 Bft)
09.11.2019 02:00 2,1 °C 92 % 1007,2 hPa 0,0 mm 4,8 km/h (1 Bft) SW 225 ° 0 min 0,000 mm 0,0 UV-I 0 W/m² 0,9 °C 0,9 °C 6,4 km/h (2 Bft)
09.11.2019 02:01 2,1 °C 92 % 1007,3 hPa 0,0 mm 3,8 km/h (1 Bft) W-SW 242 ° 0 min 0,000 mm 0,0 UV-I 0 W/m² 0,9 °C 2,1 °C 6,4 km/h (2 Bft)
09.11.2019 02:02 2,1 °C 91 % 1007,3 hPa 0,0 mm 4,2 km/h (1 Bft) W-NW 291 ° 0 min 0,000 mm 0,0 UV-I 0 W/m² 0,8 °C 2,1 °C 9,7 km/h (2 Bft)
09.11.2019 02:03 2,1 °C 92 % 1007,3 hPa 0,0 mm 8,0 km/h (2 Bft) W 262 ° 0 min 0,000 mm 0,0 UV-I 0 W/m² 0,9 °C -0,3 °C 11,3 km/h (2 Bft)
09.11.2019 02:04 2,1 °C 92 % 1007,3 hPa 0,0 mm 7,7 km/h (2 Bft) W-SW 244 ° 0 min 0,000 mm 0,0 UV-I 0 W/m² 0,9 °C -0,2 °C 11,3 km/h (2 Bft)
09.11.2019 02:05 2,1 °C 92 % 1007,3 hPa 0,0 mm 4,5 km/h (1 Bft) W 277 ° 0 min 0,000 mm 0,0 UV-I 0 W/m² 0,9 °C 2,1 °C 9,7 km/h (2 Bft)
09.11.2019 02:06 2,1 °C 92 % 1007,3 hPa 0,0 mm 2,7 km/h (1 Bft) W-SW 254 ° 0 min 0,000 mm 0,0 UV-I 0 W/m² 0,9 °C 2,1 °C 4,8 km/h (1 Bft)
09.11.2019 02:07 2,2 °C 91 % 1007,3 hPa 0,0 mm 3,5 km/h (1 Bft) W 269 ° 0 min 0,000 mm 0,0 UV-I 0 W/m² 0,9 °C 2,2 °C 6,4 km/h (2 Bft)
09.11.2019 02:08 2,1 °C 92 % 1007,2 hPa 0,0 mm 6,6 km/h (2 Bft) SW 236 ° 0 min 0,000 mm 0,0 UV-I 0 W/m² 0,9 °C 0,2 °C 11,3 km/h (2 Bft)
09.11.2019 02:09 2,1 °C 92 % 1007,2 hPa 0,0 mm 10,9 km/h (2 Bft) W-SW 242 ° 0 min 0,000 mm 0,0 UV-I 0 W/m² 0,9 °C -1,0 °C 14,5 km/h (3 Bft)
09.11.2019 02:10 2,1 °C 92 % 1007,2 hPa 0,0 mm 4,2 km/h (1 Bft) S-SW 209 ° 0 min 0,000 mm 0,0 UV-I 0 W/m² 0,9 °C 2,1 °C 6,4 km/h (2 Bft)
09.11.2019 02:11 2,1 °C 92 % 1007,3 hPa 0,0 mm 3,1 km/h (1 Bft) SW 223 ° 0 min 0,000 mm 0,0 UV-I 0 W/m² 0,9 °C 2,1 °C 6,4 km/h (2 Bft)
09.11.2019 02:12 2,2 °C 91 % 1007,3 hPa 0,0 mm 5,1 km/h (1 Bft) W 266 ° 0 min 0,000 mm 0,0 UV-I 0 W/m² 0,9 °C 0,9 °C 11,3 km/h (2 Bft)
09.11.2019 02:13 2,1 °C 91 % 1007,2 hPa 0,0 mm 5,1 km/h (1 Bft) W-SW 244 ° 0 min 0,000 mm 0,0 UV-I 0 W/m² 0,8 °C 0,7 °C 8,0 km/h (2 Bft)
09.11.2019 02:14 2,1 °C 92 % 1007,2 hPa 0,0 mm 3,6 km/h (1 Bft) W 262 ° 0 min 0,000 mm 0,0 UV-I 0 W/m² 0,9 °C 2,1 °C 6,4 km/h (2 Bft)
09.11.2019 02:15 2,2 °C 91 % 1007,3 hPa 0,0 mm 6,2 km/h (2 Bft) W-NW 290 ° 0 min 0,000 mm 0,0 UV-I 0 W/m² 0,9 °C 0,4 °C 12,9 km/h (3 Bft)
09.11.2019 02:16 2,2 °C 91 % 1007,3 hPa 0,0 mm 4,0 km/h (1 Bft) W 270 ° 0 min 0,000 mm 0,0 UV-I 0 W/m² 0,9 °C 2,2 °C 6,4 km/h (2 Bft)
09.11.2019 02:17 2,2 °C 91 % 1007,3 hPa 0,0 mm 11,9 km/h (2 Bft) W 265 ° 0 min 0,000 mm 0,0 UV-I 0 W/m² 0,9 °C -1,1 °C 17,7 km/h (3 Bft)
09.11.2019 02:18 2,1 °C 91 % 1007,3 hPa 0,0 mm 7,6 km/h (2 Bft) W-SW 253 ° 0 min 0,000 mm 0,0 UV-I 0 W/m² 0,8 °C -0,2 °C 11,3 km/h (2 Bft)
09.11.2019 02:19 2,1 °C 91 % 1007,4 hPa 0,0 mm 2,7 km/h (1 Bft) SW 220 ° 0 min 0,000 mm 0,0 UV-I 0 W/m² 0,8 °C 2,1 °C 4,8 km/h (1 Bft)
09.11.2019 02:20 2,2 °C 91 % 1007,4 hPa 0,0 mm 0,3 km/h (0 Bft) SW 219 ° 0 min 0,000 mm 0,0 UV-I 0 W/m² 0,9 °C 2,2 °C 3,2 km/h (1 Bft)
09.11.2019 02:21 2,2 °C 91 % 1007,4 hPa 0,0 mm 4,3 km/h (1 Bft) W-NW 292 ° 0 min 0,000 mm 0,0 UV-I 0 W/m² 0,9 °C 2,2 °C 9,7 km/h (2 Bft)
09.11.2019 02:22 2,2 °C 91 % 1007,4 hPa 0,0 mm 2,8 km/h (1 Bft) W-SW 244 ° 0 min 0,000 mm 0,0 UV-I 0 W/m² 0,9 °C 2,2 °C 4,8 km/h (1 Bft)
09.11.2019 02:23 2,2 °C 91 % 1007,5 hPa 0,0 mm 4,8 km/h (1 Bft) W-SW 242 ° 0 min 0,000 mm 0,0 UV-I 0 W/m² 0,9 °C 1,0 °C 11,3 km/h (2 Bft)
09.11.2019 02:24 2,2 °C 91 % 1007,5 hPa 0,0 mm 7,5 km/h (2 Bft) W-NW 287 ° 0 min 0,000 mm 0,0 UV-I 0 W/m² 0,9 °C -0,0 °C 11,3 km/h (2 Bft)
09.11.2019 02:25 2,2 °C 91 % 1007,5 hPa 0,0 mm 4,6 km/h (1 Bft) SW 234 ° 0 min 0,000 mm 0,0 UV-I 0 W/m² 0,9 °C 1,1 °C 8,0 km/h (2 Bft)
09.11.2019 02:26 2,2 °C 91 % 1007,6 hPa 0,0 mm 6,9 km/h (2 Bft) S-SW 205 ° 0 min 0,000 mm 0,0 UV-I 0 W/m² 0,9 °C 0,2 °C 11,3 km/h (2 Bft)
09.11.2019 02:27 2,2 °C 91 % 1007,5 hPa 0,0 mm 10,4 km/h (2 Bft) W-SW 258 ° 0 min 0,000 mm 0,0 UV-I 0 W/m² 0,9 °C -0,8 °C 14,5 km/h (3 Bft)
09.11.2019 02:28 2,2 °C 91 % 1007,5 hPa 0,0 mm 4,1 km/h (1 Bft) SW 216 ° 0 min 0,000 mm 0,0 UV-I 0 W/m² 0,9 °C 2,2 °C 9,7 km/h (2 Bft)
09.11.2019 02:29 2,2 °C 91 % 1007,5 hPa 0,0 mm 6,0 km/h (2 Bft) W 269 ° 0 min 0,000 mm 0,0 UV-I 0 W/m² 0,9 °C 0,5 °C 9,7 km/h (2 Bft)
09.11.2019 02:30 2,2 °C 91 % 1007,5 hPa 0,0 mm 5,0 km/h (1 Bft) W 277 ° 0 min 0,000 mm 0,0 UV-I 0 W/m² 0,9 °C 0,9 °C 6,4 km/h (2 Bft)
09.11.2019 02:31 2,2 °C 91 % 1007,6 hPa 0,0 mm 4,6 km/h (1 Bft) W-SW 242 ° 0 min 0,000 mm 0,0 UV-I 0 W/m² 0,9 °C 1,1 °C 6,4 km/h (2 Bft)
09.11.2019 02:32 2,2 °C 91 % 1007,6 hPa 0,0 mm 4,8 km/h (1 Bft) S-SW 197 ° 0 min 0,000 mm 0,0 UV-I 0 W/m² 0,9 °C 1,0 °C 8,0 km/h (2 Bft)
09.11.2019 02:33 2,2 °C 91 % 1007,7 hPa 0,0 mm 5,1 km/h (1 Bft) W 277 ° 0 min 0,000 mm 0,0 UV-I 0 W/m² 0,9 °C 0,9 °C 9,7 km/h (2 Bft)
09.11.2019 02:34 2,1 °C 91 % 1007,7 hPa 0,0 mm 2,6 km/h (1 Bft) W 276 ° 0 min 0,000 mm 0,0 UV-I 0 W/m² 0,8 °C 2,1 °C 4,8 km/h (1 Bft)
09.11.2019 02:35 2,2 °C 91 % 1007,8 hPa 0,0 mm 3,4 km/h (1 Bft) W-SW 242 ° 0 min 0,000 mm 0,0 UV-I 0 W/m² 0,9 °C 2,2 °C 4,8 km/h (1 Bft)
09.11.2019 02:36 2,2 °C 91 % 1007,7 hPa 0,0 mm 5,5 km/h (1 Bft) W 275 ° 0 min 0,000 mm 0,0 UV-I 0 W/m² 0,9 °C 0,7 °C 11,3 km/h (2 Bft)
09.11.2019 02:37 2,2 °C 91 % 1007,7 hPa 0,0 mm 3,7 km/h (1 Bft) W-SW 245 ° 0 min 0,000 mm 0,0 UV-I 0 W/m² 0,9 °C 2,2 °C 9,7 km/h (2 Bft)
09.11.2019 02:38 2,2 °C 91 % 1007,8 hPa 0,0 mm 2,3 km/h (1 Bft) W-SW 244 ° 0 min 0,000 mm 0,0 UV-I 0 W/m² 0,9 °C 2,2 °C 3,2 km/h (1 Bft)
09.11.2019 02:39 2,2 °C 91 % 1007,8 hPa 0,0 mm 1,4 km/h (1 Bft) W-SW 254 ° 0 min 0,000 mm 0,0 UV-I 0 W/m² 0,9 °C 2,2 °C 3,2 km/h (1 Bft)
09.11.2019 02:40 2,2 °C 91 % 1007,7 hPa 0,0 mm 4,9 km/h (1 Bft) W 259 ° 0 min 0,000 mm 0,0 UV-I 0 W/m² 0,9 °C 1,0 °C 6,4 km/h (2 Bft)
09.11.2019 02:41 2,2 °C 91 % 1007,7 hPa 0,0 mm 1,4 km/h (1 Bft) W-SW 258 ° 0 min 0,000 mm 0,0 UV-I 0 W/m² 0,9 °C 2,2 °C 3,2 km/h (1 Bft)
09.11.2019 02:42 2,2 °C 91 % 1007,8 hPa 0,0 mm 4,7 km/h (1 Bft) W-NW 285 ° 0 min 0,000 mm 0,0 UV-I 0 W/m² 0,9 °C 1,0 °C 6,4 km/h (2 Bft)
09.11.2019 02:43 2,2 °C 91 % 1007,7 hPa 0,0 mm 2,7 km/h (1 Bft) W-SW 256 ° 0 min 0,000 mm 0,0 UV-I 0 W/m² 0,9 °C 2,2 °C 4,8 km/h (1 Bft)
09.11.2019 02:44 2,2 °C 91 % 1007,7 hPa 0,0 mm 4,1 km/h (1 Bft) W 273 ° 0 min 0,000 mm 0,0 UV-I 0 W/m² 0,9 °C 2,2 °C 6,4 km/h (2 Bft)
09.11.2019 02:45 2,2 °C 91 % 1007,7 hPa 0,0 mm 3,8 km/h (1 Bft) W 281 ° 0 min 0,000 mm 0,0 UV-I 0 W/m² 0,9 °C 2,2 °C 4,8 km/h (1 Bft)
09.11.2019 02:46 2,2 °C 91 % 1007,7 hPa 0,0 mm 4,1 km/h (1 Bft) W-SW 240 ° 0 min 0,000 mm 0,0 UV-I 0 W/m² 0,9 °C 2,2 °C 6,4 km/h (2 Bft)
09.11.2019 02:47 2,2 °C 91 % 1007,7 hPa 0,0 mm 7,5 km/h (2 Bft) W 277 ° 0 min 0,000 mm 0,0 UV-I 0 W/m² 0,9 °C -0,0 °C 11,3 km/h (2 Bft)
09.11.2019 02:48 2,2 °C 91 % 1007,7 hPa 0,0 mm 4,2 km/h (1 Bft) W-NW 292 ° 0 min 0,000 mm 0,0 UV-I 0 W/m² 0,9 °C 2,2 °C 4,8 km/h (1 Bft)
09.11.2019 02:49 2,2 °C 91 % 1007,7 hPa 0,0 mm 4,9 km/h (1 Bft) W-NW 288 ° 0 min 0,000 mm 0,0 UV-I 0 W/m² 0,9 °C 1,0 °C 6,4 km/h (2 Bft)
09.11.2019 02:50 2,2 °C 91 % 1007,7 hPa 0,0 mm 5,6 km/h (1 Bft) W-SW 248 ° 0 min 0,000 mm 0,0 UV-I 0 W/m² 0,9 °C 0,7 °C 9,7 km/h (2 Bft)
09.11.2019 02:51 2,2 °C 91 % 1007,6 hPa 0,0 mm 5,3 km/h (1 Bft) W 271 ° 0 min 0,000 mm 0,0 UV-I 0 W/m² 0,9 °C 0,8 °C 6,4 km/h (2 Bft)
09.11.2019 02:52 2,2 °C 91 % 1007,7 hPa 0,0 mm 9,2 km/h (2 Bft) W-NW 299 ° 0 min 0,000 mm 0,0 UV-I 0 W/m² 0,9 °C -0,5 °C 17,7 km/h (3 Bft)
09.11.2019 02:53 2,2 °C 91 % 1007,7 hPa 0,0 mm 7,4 km/h (2 Bft) W-SW 248 ° 0 min 0,000 mm 0,0 UV-I 0 W/m² 0,9 °C 0,0 °C 11,3 km/h (2 Bft)
09.11.2019 02:54 2,2 °C 91 % 1007,7 hPa 0,0 mm 5,6 km/h (1 Bft) W 271 ° 0 min 0,000 mm 0,0 UV-I 0 W/m² 0,9 °C 0,7 °C 6,4 km/h (2 Bft)
09.11.2019 02:55 2,2 °C 91 % 1007,6 hPa 0,0 mm 4,8 km/h (1 Bft) W 275 ° 0 min 0,000 mm 0,0 UV-I 0 W/m² 0,9 °C 1,0 °C 9,7 km/h (2 Bft)
09.11.2019 02:56 2,2 °C 91 % 1007,6 hPa 0,0 mm 9,2 km/h (2 Bft) W-SW 256 ° 0 min 0,000 mm 0,0 UV-I 0 W/m² 0,9 °C -0,5 °C 11,3 km/h (2 Bft)
09.11.2019 02:57 2,2 °C 91 % 1007,6 hPa 0,0 mm 6,2 km/h (2 Bft) W 277 ° 0 min 0,000 mm 0,0 UV-I 0 W/m² 0,9 °C 0,4 °C 12,9 km/h (3 Bft)
09.11.2019 02:58 2,2 °C 91 % 1007,6 hPa 0,0 mm 9,0 km/h (2 Bft) W-SW 254 ° 0 min 0,000 mm 0,0 UV-I 0 W/m² 0,9 °C -0,4 °C 16,1 km/h (3 Bft)
09.11.2019 02:59 2,2 °C 91 % 1007,6 hPa 0,0 mm 10,5 km/h (2 Bft) W 259 ° 0 min 0,000 mm 0,0 UV-I 0 W/m² 0,9 °C -0,8 °C 14,5 km/h (3 Bft)
09.11.2019 03:00 2,2 °C 91 % 1007,6 hPa 0,0 mm 7,5 km/h (2 Bft) W 274 ° 0 min 0,000 mm 0,0 UV-I 0 W/m² 0,9 °C -0,0 °C 11,3 km/h (2 Bft)
09.11.2019 03:01 2,2 °C 91 % 1007,5 hPa 0,0 mm 8,4 km/h (2 Bft) W 259 ° 0 min 0,000 mm 0,0 UV-I 0 W/m² 0,9 °C -0,3 °C 11,3 km/h (2 Bft)
09.11.2019 03:02 2,2 °C 91 % 1007,5 hPa 0,0 mm 8,2 km/h (2 Bft) W-SW 251 ° 0 min 0,000 mm 0,0 UV-I 0 W/m² 0,9 °C -0,2 °C 20,9 km/h (4 Bft)
09.11.2019 03:03 2,2 °C 91 % 1007,5 hPa 0,0 mm 13,6 km/h (3 Bft) W 271 ° 0 min 0,000 mm 0,0 UV-I 0 W/m² 0,9 °C -1,5 °C 19,3 km/h (3 Bft)
09.11.2019 03:04 2,2 °C 91 % 1007,5 hPa 0,0 mm 8,6 km/h (2 Bft) W 269 ° 0 min 0,000 mm 0,0 UV-I 0 W/m² 0,9 °C -0,3 °C 11,3 km/h (2 Bft)
09.11.2019 03:05 2,2 °C 91 % 1007,5 hPa 0,0 mm 7,5 km/h (2 Bft) W-SW 238 ° 0 min 0,000 mm 0,0 UV-I 0 W/m² 0,9 °C -0,0 °C 11,3 km/h (2 Bft)
09.11.2019 03:06 2,2 °C 91 % 1007,5 hPa 0,0 mm 3,2 km/h (1 Bft) S-SW 212 ° 0 min 0,000 mm 0,0 UV-I 0 W/m² 0,9 °C 2,2 °C 8,0 km/h (2 Bft)
09.11.2019 03:07 2,2 °C 91 % 1007,6 hPa 0,0 mm 4,6 km/h (1 Bft) S 183 ° 0 min 0,000 mm 0,0 UV-I 0 W/m² 0,9 °C 1,1 °C 9,7 km/h (2 Bft)
09.11.2019 03:08 2,2 °C 91 % 1007,6 hPa 0,0 mm 7,6 km/h (2 Bft) W 260 ° 0 min 0,000 mm 0,0 UV-I 0 W/m² 0,9 °C -0,0 °C 12,9 km/h (3 Bft)
09.11.2019 03:09 2,2 °C 91 % 1007,6 hPa 0,0 mm 9,1 km/h (2 Bft) W 270 ° 0 min 0,000 mm 0,0 UV-I 0 W/m² 0,9 °C -0,5 °C 12,9 km/h (3 Bft)
09.11.2019 03:10 2,2 °C 91 % 1007,6 hPa 0,0 mm 7,2 km/h (2 Bft) W 261 ° 0 min 0,000 mm 0,0 UV-I 0 W/m² 0,9 °C 0,1 °C 12,9 km/h (3 Bft)
09.11.2019 03:11 2,2 °C 91 % 1007,5 hPa 0,0 mm 9,7 km/h (2 Bft) W 276 ° 0 min 0,000 mm 0,0 UV-I 0 W/m² 0,9 °C -0,6 °C 14,5 km/h (3 Bft)
09.11.2019 03:12 2,2 °C 91 % 1007,6 hPa 0,0 mm 7,8 km/h (2 Bft) W-SW 249 ° 0 min 0,000 mm 0,0 UV-I 0 W/m² 0,9 °C -0,1 °C 11,3 km/h (2 Bft)
09.11.2019 03:13 2,2 °C 91 % 1007,4 hPa 0,0 mm 10,9 km/h (2 Bft) W 267 ° 0 min 0,000 mm 0,0 UV-I 0 W/m² 0,9 °C -0,9 °C 16,1 km/h (3 Bft)
09.11.2019 03:14 2,2 °C 91 % 1007,5 hPa 0,0 mm 8,2 km/h (2 Bft) W 280 ° 0 min 0,000 mm 0,0 UV-I 0 W/m² 0,9 °C -0,2 °C 12,9 km/h (3 Bft)
09.11.2019 03:15 2,2 °C 91 % 1007,4 hPa 0,0 mm 10,0 km/h (2 Bft) SW 218 ° 0 min 0,000 mm 0,0 UV-I 0 W/m² 0,9 °C -0,7 °C 16,1 km/h (3 Bft)
09.11.2019 03:16 2,2 °C 91 % 1007,4 hPa 0,0 mm 4,4 km/h (1 Bft) W 275 ° 0 min 0,000 mm 0,0 UV-I 0 W/m² 0,9 °C 2,2 °C 16,1 km/h (3 Bft)
09.11.2019 03:17 2,2 °C 91 % 1007,3 hPa 0,0 mm 11,3 km/h (2 Bft) S-SW 192 ° 0 min 0,000 mm 0,0 UV-I 0 W/m² 0,9 °C -1,0 °C 17,7 km/h (3 Bft)
09.11.2019 03:18 2,2 °C 91 % 1007,3 hPa 0,0 mm 9,7 km/h (2 Bft) W-SW 258 ° 0 min 0,000 mm 0,0 UV-I 0 W/m² 0,9 °C -0,6 °C 14,5 km/h (3 Bft)
09.11.2019 03:19 2,2 °C 91 % 1007,3 hPa 0,0 mm 14,5 km/h (3 Bft) W 259 ° 0 min 0,000 mm 0,0 UV-I 0 W/m² 0,9 °C -1,6 °C 19,3 km/h (3 Bft)
09.11.2019 03:20 2,2 °C 90 % 1007,3 hPa 0,0 mm 10,7 km/h (2 Bft) W-NW 283 ° 0 min 0,000 mm 0,0 UV-I 0 W/m² 0,7 °C -0,9 °C 12,9 km/h (3 Bft)
09.11.2019 03:21 2,2 °C 90 % 1007,4 hPa 0,0 mm 6,3 km/h (2 Bft) W-SW 252 ° 0 min 0,000 mm 0,0 UV-I 0 W/m² 0,7 °C 0,4 °C 8,0 km/h (2 Bft)
09.11.2019 03:22 2,2 °C 90 % 1007,3 hPa 0,0 mm 7,8 km/h (2 Bft) W 261 ° 0 min 0,000 mm 0,0 UV-I 0 W/m² 0,7 °C -0,1 °C 12,9 km/h (3 Bft)
09.11.2019 03:23 2,2 °C 90 % 1007,3 hPa 0,0 mm 3,8 km/h (1 Bft) S-SW 192 ° 0 min 0,000 mm 0,0 UV-I 0 W/m² 0,7 °C 2,2 °C 6,4 km/h (2 Bft)
09.11.2019 03:24 2,2 °C 90 % 1007,3 hPa 0,0 mm 4,4 km/h (1 Bft) S 190 ° 0 min 0,000 mm 0,0 UV-I 0 W/m² 0,7 °C 2,2 °C 6,4 km/h (2 Bft)
09.11.2019 03:25 2,2 °C 90 % 1007,3 hPa 0,0 mm 1,3 km/h (1 Bft) S 190 ° 0 min 0,000 mm 0,0 UV-I 0 W/m² 0,7 °C 2,2 °C 3,2 km/h (1 Bft)
09.11.2019 03:26 2,2 °C 90 % 1007,3 hPa 0,0 mm 1,4 km/h (1 Bft) S-SW 205 ° 0 min 0,000 mm 0,0 UV-I 0 W/m² 0,7 °C 2,2 °C 4,8 km/h (1 Bft)
09.11.2019 03:27 2,2 °C 90 % 1007,5 hPa 0,0 mm 8,4 km/h (2 Bft) W-NW 292 ° 0 min 0,000 mm 0,0 UV-I 0 W/m² 0,7 °C -0,3 °C 12,9 km/h (3 Bft)
09.11.2019 03:28 2,2 °C 90 % 1007,5 hPa 0,0 mm 3,8 km/h (1 Bft) S 188 ° 0 min 0,000 mm 0,0 UV-I 0 W/m² 0,7 °C 2,2 °C 8,0 km/h (2 Bft)
09.11.2019 03:29 2,2 °C 90 % 1007,5 hPa 0,0 mm 3,2 km/h (1 Bft) W 259 ° 0 min 0,000 mm 0,0 UV-I 0 W/m² 0,7 °C 2,2 °C 4,8 km/h (1 Bft)
09.11.2019 03:30 2,2 °C 90 % 1007,5 hPa 0,0 mm 7,1 km/h (2 Bft) S-SW 200 ° 0 min 0,000 mm 0,0 UV-I 0 W/m² 0,7 °C 0,1 °C 12,9 km/h (3 Bft)
09.11.2019 03:31 2,2 °C 90 % 1007,6 hPa 0,0 mm 4,7 km/h (1 Bft) W-NW 296 ° 0 min 0,000 mm 0,0 UV-I 0 W/m² 0,7 °C 1,0 °C 6,4 km/h (2 Bft)
09.11.2019 03:32 2,2 °C 90 % 1007,6 hPa 0,0 mm 3,1 km/h (1 Bft) SW 229 ° 0 min 0,000 mm 0,0 UV-I 0 W/m² 0,7 °C 2,2 °C 4,8 km/h (1 Bft)
09.11.2019 03:33 2,2 °C 90 % 1007,6 hPa 0,0 mm 1,2 km/h (1 Bft) SW 227 ° 0 min 0,000 mm 0,0 UV-I 0 W/m² 0,7 °C 2,2 °C 3,2 km/h (1 Bft)
09.11.2019 03:34 2,2 °C 90 % 1007,6 hPa 0,0 mm 3,5 km/h (1 Bft) W-SW 242 ° 0 min 0,000 mm 0,0 UV-I 0 W/m² 0,7 °C 2,2 °C 6,4 km/h (2 Bft)
09.11.2019 03:35 2,2 °C 90 % 1007,6 hPa 0,0 mm 8,0 km/h (2 Bft) W 267 ° 0 min 0,000 mm 0,0 UV-I 0 W/m² 0,7 °C -0,2 °C 12,9 km/h (3 Bft)
09.11.2019 03:36 2,2 °C 90 % 1007,6 hPa 0,0 mm 8,8 km/h (2 Bft) W-NW 299 ° 0 min 0,000 mm 0,0 UV-I 0 W/m² 0,7 °C -0,4 °C 12,9 km/h (3 Bft)
09.11.2019 03:37 2,2 °C 90 % 1007,6 hPa 0,0 mm 4,8 km/h (1 Bft) W-NW 283 ° 0 min 0,000 mm 0,0 UV-I 0 W/m² 0,7 °C 1,0 °C 9,7 km/h (2 Bft)
09.11.2019 03:38 2,2 °C 90 % 1007,6 hPa 0,0 mm 1,4 km/h (1 Bft) N 5 ° 0 min 0,000 mm 0,0 UV-I 0 W/m² 0,7 °C 2,2 °C 4,8 km/h (1 Bft)
09.11.2019 03:39 2,2 °C 90 % 1007,6 hPa 0,0 mm 7,6 km/h (2 Bft) W 269 ° 0 min 0,000 mm 0,0 UV-I 0 W/m² 0,7 °C -0,0 °C 12,9 km/h (3 Bft)
09.11.2019 03:40 2,2 °C 90 % 1007,6 hPa 0,0 mm 7,0 km/h (2 Bft) W 265 ° 0 min 0,000 mm 0,0 UV-I 0 W/m² 0,7 °C 0,2 °C 11,3 km/h (2 Bft)
09.11.2019 03:41 2,2 °C 90 % 1007,6 hPa 0,0 mm 3,1 km/h (1 Bft) W-SW 255 ° 0 min 0,000 mm 0,0 UV-I 0 W/m² 0,7 °C 2,2 °C 6,4 km/h (2 Bft)
09.11.2019 03:42 2,2 °C 90 % 1007,6 hPa 0,0 mm 5,3 km/h (1 Bft) W-SW 257 ° 0 min 0,000 mm 0,0 UV-I 0 W/m² 0,7 °C 0,8 °C 6,4 km/h (2 Bft)
09.11.2019 03:43 2,2 °C 90 % 1007,6 hPa 0,0 mm 6,4 km/h (2 Bft) SW 231 ° 0 min 0,000 mm 0,0 UV-I 0 W/m² 0,7 °C 0,4 °C 9,7 km/h (2 Bft)
09.11.2019 03:44 2,2 °C 90 % 1007,6 hPa 0,0 mm 3,5 km/h (1 Bft) S-SW 198 ° 0 min 0,000 mm 0,0 UV-I 0 W/m² 0,7 °C 2,2 °C 8,0 km/h (2 Bft)
09.11.2019 03:45 2,2 °C 90 % 1007,7 hPa 0,0 mm 5,0 km/h (1 Bft) SW 228 ° 0 min 0,000 mm 0,0 UV-I 0 W/m² 0,7 °C 0,9 °C 6,4 km/h (2 Bft)
09.11.2019 03:46 2,2 °C 90 % 1007,6 hPa 0,0 mm 5,0 km/h (1 Bft) W-SW 252 ° 0 min 0,000 mm 0,0 UV-I 0 W/m² 0,7 °C 0,9 °C 6,4 km/h (2 Bft)
09.11.2019 03:47 2,2 °C 90 % 1007,6 hPa 0,0 mm 5,4 km/h (1 Bft) W 270 ° 0 min 0,000 mm 0,0 UV-I 0 W/m² 0,7 °C 0,7 °C 9,7 km/h (2 Bft)
09.11.2019 03:48 2,2 °C 90 % 1007,6 hPa 0,0 mm 4,5 km/h (1 Bft) W 270 ° 0 min 0,000 mm 0,0 UV-I 0 W/m² 0,7 °C 2,2 °C 6,4 km/h (2 Bft)
09.11.2019 03:49 2,2 °C 90 % 1007,6 hPa 0,0 mm 2,1 km/h (1 Bft) W-SW 251 ° 0 min 0,000 mm 0,0 UV-I 0 W/m² 0,7 °C 2,2 °C 8,0 km/h (2 Bft)
09.11.2019 03:50 2,3 °C 90 % 1007,6 hPa 0,0 mm 1,9 km/h (1 Bft) W-SW 252 ° 0 min 0,000 mm 0,0 UV-I 0 W/m² 0,8 °C 2,3 °C 4,8 km/h (1 Bft)
09.11.2019 03:51 2,2 °C 90 % 1007,7 hPa 0,0 mm 1,8 km/h (1 Bft) W-SW 240 ° 0 min 0,000 mm 0,0 UV-I 0 W/m² 0,7 °C 2,2 °C 4,8 km/h (1 Bft)
09.11.2019 03:52 2,3 °C 90 % 1007,6 hPa 0,0 mm 3,2 km/h (1 Bft) W-SW 242 ° 0 min 0,000 mm 0,0 UV-I 0 W/m² 0,8 °C 2,3 °C 6,4 km/h (2 Bft)
09.11.2019 03:53 2,2 °C 90 % 1007,7 hPa 0,0 mm 4,9 km/h (1 Bft) W 264 ° 0 min 0,000 mm 0,0 UV-I 0 W/m² 0,7 °C 1,0 °C 11,3 km/h (2 Bft)
09.11.2019 03:54 2,3 °C 90 % 1007,7 hPa 0,0 mm 7,5 km/h (2 Bft) W 273 ° 0 min 0,000 mm 0,0 UV-I 0 W/m² 0,8 °C 0,1 °C 11,3 km/h (2 Bft)
09.11.2019 03:55 2,3 °C 90 % 1007,7 hPa 0,0 mm 6,6 km/h (2 Bft) W-SW 254 ° 0 min 0,000 mm 0,0 UV-I 0 W/m² 0,8 °C 0,4 °C 11,3 km/h (2 Bft)
09.11.2019 03:56 2,3 °C 90 % 1007,7 hPa 0,0 mm 4,5 km/h (1 Bft) NW 309 ° 0 min 0,000 mm 0,0 UV-I 0 W/m² 0,8 °C 2,3 °C 11,3 km/h (2 Bft)
09.11.2019 03:57 2,3 °C 90 % 1007,7 hPa 0,0 mm 8,1 km/h (2 Bft) W 259 ° 0 min 0,000 mm 0,0 UV-I 0 W/m² 0,8 °C -0,1 °C 16,1 km/h (3 Bft)
09.11.2019 03:58 2,3 °C 90 % 1007,7 hPa 0,0 mm 15,0 km/h (3 Bft) W 263 ° 0 min 0,000 mm 0,0 UV-I 0 W/m² 0,8 °C -1,6 °C 19,3 km/h (3 Bft)
09.11.2019 03:59 2,3 °C 90 % 1007,8 hPa 0,0 mm 12,4 km/h (3 Bft) W-NW 296 ° 0 min 0,000 mm 0,0 UV-I 0 W/m² 0,8 °C -1,1 °C 19,3 km/h (3 Bft)
09.11.2019 04:00 2,3 °C 90 % 1007,8 hPa 0,0 mm 13,4 km/h (3 Bft) W-SW 241 ° 0 min 0,000 mm 0,0 UV-I 0 W/m² 0,8 °C -1,3 °C 17,7 km/h (3 Bft)
09.11.2019 04:01 2,3 °C 90 % 1007,7 hPa 0,0 mm 11,1 km/h (2 Bft) W-NW 284 ° 0 min 0,000 mm 0,0 UV-I 0 W/m² 0,8 °C -0,8 °C 14,5 km/h (3 Bft)
09.11.2019 04:02 2,3 °C 90 % 1007,7 hPa 0,0 mm 10,0 km/h (2 Bft) W 275 ° 0 min 0,000 mm 0,0 UV-I 0 W/m² 0,8 °C -0,6 °C 17,7 km/h (3 Bft)
09.11.2019 04:03 2,3 °C 91 % 1007,8 hPa 0,0 mm 9,9 km/h (2 Bft) W 271 ° 0 min 0,000 mm 0,0 UV-I 0 W/m² 1,0 °C -0,5 °C 14,5 km/h (3 Bft)
09.11.2019 04:04 2,3 °C 91 % 1007,7 hPa 0,0 mm 4,1 km/h (1 Bft) W 272 ° 0 min 0,000 mm 0,0 UV-I 0 W/m² 1,0 °C 2,3 °C 6,4 km/h (2 Bft)
09.11.2019 04:05 2,3 °C 91 % 1007,7 hPa 0,0 mm 4,2 km/h (1 Bft) W-SW 242 ° 0 min 0,000 mm 0,0 UV-I 0 W/m² 1,0 °C 2,3 °C 6,4 km/h (2 Bft)
09.11.2019 04:06 2,3 °C 91 % 1007,7 hPa 0,0 mm 7,5 km/h (2 Bft) W-NW 284 ° 0 min 0,000 mm 0,0 UV-I 0 W/m² 1,0 °C 0,1 °C 12,9 km/h (3 Bft)
09.11.2019 04:07 2,3 °C 91 % 1007,7 hPa 0,0 mm 9,0 km/h (2 Bft) W 269 ° 0 min 0,000 mm 0,0 UV-I 0 W/m² 1,0 °C -0,3 °C 12,9 km/h (3 Bft)
09.11.2019 04:08 2,3 °C 91 % 1007,7 hPa 0,0 mm 12,3 km/h (3 Bft) W 259 ° 0 min 0,000 mm 0,0 UV-I 0 W/m² 1,0 °C -1,1 °C 17,7 km/h (3 Bft)
09.11.2019 04:09 2,3 °C 90 % 1007,7 hPa 0,0 mm 16,0 km/h (3 Bft) W-NW 288 ° 0 min 0,000 mm 0,0 UV-I 0 W/m² 0,8 °C -1,7 °C 20,9 km/h (4 Bft)
09.11.2019 04:10 2,3 °C 90 % 1007,7 hPa 0,0 mm 9,7 km/h (2 Bft) W-SW 255 ° 0 min 0,000 mm 0,0 UV-I 0 W/m² 0,8 °C -0,5 °C 17,7 km/h (3 Bft)
09.11.2019 04:11 2,3 °C 90 % 1007,7 hPa 0,0 mm 16,3 km/h (3 Bft) W 281 ° 0 min 0,000 mm 0,0 UV-I 0 W/m² 0,8 °C -1,8 °C 22,5 km/h (4 Bft)
09.11.2019 04:12 2,3 °C 90 % 1007,8 hPa 0,0 mm 11,7 km/h (2 Bft) SW 222 ° 0 min 0,000 mm 0,0 UV-I 0 W/m² 0,8 °C -1,0 °C 16,1 km/h (3 Bft)
09.11.2019 04:13 2,3 °C 90 % 1007,7 hPa 0,0 mm 11,2 km/h (2 Bft) W 267 ° 0 min 0,000 mm 0,0 UV-I 0 W/m² 0,8 °C -0,8 °C 14,5 km/h (3 Bft)
09.11.2019 04:14 2,3 °C 90 % 1007,7 hPa 0,0 mm 12,5 km/h (3 Bft) W 271 ° 0 min 0,000 mm 0,0 UV-I 0 W/m² 0,8 °C -1,1 °C 17,7 km/h (3 Bft)
09.11.2019 04:15 2,3 °C 90 % 1007,8 hPa 0,0 mm 9,6 km/h (2 Bft) W 265 ° 0 min 0,000 mm 0,0 UV-I 0 W/m² 0,8 °C -0,5 °C 12,9 km/h (3 Bft)
09.11.2019 04:16 2,3 °C 90 % 1007,8 hPa 0,0 mm 10,6 km/h (2 Bft) W-NW 301 ° 0 min 0,000 mm 0,0 UV-I 0 W/m² 0,8 °C -0,7 °C 12,9 km/h (3 Bft)
09.11.2019 04:17 2,3 °C 90 % 1007,8 hPa 0,0 mm 10,5 km/h (2 Bft) W-NW 285 ° 0 min 0,000 mm 0,0 UV-I 0 W/m² 0,8 °C -0,7 °C 16,1 km/h (3 Bft)
09.11.2019 04:18 2,3 °C 90 % 1007,8 hPa 0,0 mm 14,2 km/h (3 Bft) W-SW 254 ° 0 min 0,000 mm 0,0 UV-I 0 W/m² 0,8 °C -1,4 °C 19,3 km/h (3 Bft)
09.11.2019 04:19 2,4 °C 90 % 1007,9 hPa 0,0 mm 12,3 km/h (3 Bft) W-NW 294 ° 0 min 0,000 mm 0,0 UV-I 0 W/m² 0,9 °C -1,0 °C 19,3 km/h (3 Bft)
09.11.2019 04:20 2,3 °C 90 % 1007,9 hPa 0,0 mm 8,5 km/h (2 Bft) W 277 ° 0 min 0,000 mm 0,0 UV-I 0 W/m² 0,8 °C -0,2 °C 19,3 km/h (3 Bft)
09.11.2019 04:21 2,4 °C 90 % 1007,9 hPa 0,0 mm 12,4 km/h (3 Bft) NW 306 ° 0 min 0,000 mm 0,0 UV-I 0 W/m² 0,9 °C -1,0 °C 16,1 km/h (3 Bft)
09.11.2019 04:22 2,3 °C 90 % 1007,9 hPa 0,0 mm 8,4 km/h (2 Bft) W 265 ° 0 min 0,000 mm 0,0 UV-I 0 W/m² 0,8 °C -0,2 °C 11,3 km/h (2 Bft)
09.11.2019 04:23 2,4 °C 90 % 1007,9 hPa 0,0 mm 15,6 km/h (3 Bft) W 261 ° 0 min 0,000 mm 0,0 UV-I 0 W/m² 0,9 °C -1,6 °C 25,7 km/h (4 Bft)
09.11.2019 04:24 2,4 °C 90 % 1007,9 hPa 0,0 mm 12,5 km/h (3 Bft) W-NW 302 ° 0 min 0,000 mm 0,0 UV-I 0 W/m² 0,9 °C -1,0 °C 19,3 km/h (3 Bft)
09.11.2019 04:25 2,4 °C 90 % 1007,9 hPa 0,0 mm 12,1 km/h (2 Bft) W-SW 246 ° 0 min 0,000 mm 0,0 UV-I 0 W/m² 0,9 °C -0,9 °C 19,3 km/h (3 Bft)
09.11.2019 04:26 2,4 °C 89 % 1007,9 hPa 0,0 mm 12,3 km/h (3 Bft) W-NW 289 ° 0 min 0,000 mm 0,0 UV-I 0 W/m² 0,8 °C -1,0 °C 20,9 km/h (4 Bft)
09.11.2019 04:27 2,4 °C 90 % 1008,0 hPa 0,0 mm 13,2 km/h (3 Bft) W 279 ° 0 min 0,000 mm 0,0 UV-I 0 W/m² 0,9 °C -1,1 °C 20,9 km/h (4 Bft)
09.11.2019 04:28 2,4 °C 90 % 1008,0 hPa 0,0 mm 14,8 km/h (3 Bft) W 275 ° 0 min 0,000 mm 0,0 UV-I 0 W/m² 0,9 °C -1,4 °C 19,3 km/h (3 Bft)
09.11.2019 04:29 2,4 °C 90 % 1008,0 hPa 0,0 mm 18,2 km/h (3 Bft) W 266 ° 0 min 0,000 mm 0,0 UV-I 0 W/m² 0,9 °C -2,0 °C 25,7 km/h (4 Bft)
09.11.2019 04:30 2,4 °C 89 % 1008,0 hPa 0,0 mm 11,8 km/h (2 Bft) W 273 ° 0 min 0,000 mm 0,0 UV-I 0 W/m² 0,8 °C -0,9 °C 19,3 km/h (3 Bft)
09.11.2019 04:31 2,4 °C 89 % 1008,0 hPa 0,0 mm 16,0 km/h (3 Bft) W 278 ° 0 min 0,000 mm 0,0 UV-I 0 W/m² 0,8 °C -1,6 °C 20,9 km/h (4 Bft)
09.11.2019 04:32 2,4 °C 89 % 1008,0 hPa 0,0 mm 17,0 km/h (3 Bft) W 259 ° 0 min 0,000 mm 0,0 UV-I 0 W/m² 0,8 °C -1,8 °C 25,7 km/h (4 Bft)
09.11.2019 04:33 2,4 °C 89 % 1008,0 hPa 0,0 mm 12,3 km/h (3 Bft) W 281 ° 0 min 0,000 mm 0,0 UV-I 0 W/m² 0,8 °C -1,0 °C 24,1 km/h (4 Bft)
09.11.2019 04:34 2,4 °C 89 % 1008,0 hPa 0,0 mm 11,5 km/h (2 Bft) W-SW 238 ° 0 min 0,000 mm 0,0 UV-I 0 W/m² 0,8 °C -0,8 °C 16,1 km/h (3 Bft)
09.11.2019 04:35 2,4 °C 89 % 1008,1 hPa 0,0 mm 11,3 km/h (2 Bft) W 274 ° 0 min 0,000 mm 0,0 UV-I 0 W/m² 0,8 °C -0,7 °C 17,7 km/h (3 Bft)
09.11.2019 04:36 2,4 °C 89 % 1008,1 hPa 0,0 mm 12,5 km/h (3 Bft) W-SW 241 ° 0 min 0,000 mm 0,0 UV-I 0 W/m² 0,8 °C -1,0 °C 25,7 km/h (4 Bft)
09.11.2019 04:37 2,4 °C 89 % 1008,0 hPa 0,0 mm 7,2 km/h (2 Bft) W 264 ° 0 min 0,000 mm 0,0 UV-I 0 W/m² 0,8 °C 0,3 °C 12,9 km/h (3 Bft)
09.11.2019 04:38 2,4 °C 89 % 1008,0 hPa 0,0 mm 9,3 km/h (2 Bft) W-SW 249 ° 0 min 0,000 mm 0,0 UV-I 0 W/m² 0,8 °C -0,3 °C 14,5 km/h (3 Bft)
09.11.2019 04:39 2,4 °C 89 % 1008,0 hPa 0,0 mm 14,5 km/h (3 Bft) W-SW 254 ° 0 min 0,000 mm 0,0 UV-I 0 W/m² 0,8 °C -1,4 °C 20,9 km/h (4 Bft)
09.11.2019 04:40 2,4 °C 89 % 1008,0 hPa 0,0 mm 9,5 km/h (2 Bft) W-SW 252 ° 0 min 0,000 mm 0,0 UV-I 0 W/m² 0,8 °C -0,3 °C 19,3 km/h (3 Bft)
09.11.2019 04:41 2,4 °C 89 % 1007,9 hPa 0,0 mm 9,4 km/h (2 Bft) W-NW 294 ° 0 min 0,000 mm 0,0 UV-I 0 W/m² 0,8 °C -0,3 °C 14,5 km/h (3 Bft)
09.11.2019 04:42 2,4 °C 89 % 1008,0 hPa 0,0 mm 11,3 km/h (2 Bft) W 275 ° 0 min 0,000 mm 0,0 UV-I 0 W/m² 0,8 °C -0,7 °C 19,3 km/h (3 Bft)
09.11.2019 04:43 2,4 °C 89 % 1008,0 hPa 0,0 mm 8,3 km/h (2 Bft) SW 225 ° 0 min 0,000 mm 0,0 UV-I 0 W/m² 0,8 °C -0,0 °C 14,5 km/h (3 Bft)
09.11.2019 04:44 2,4 °C 89 % 1008,0 hPa 0,0 mm 9,3 km/h (2 Bft) W 268 ° 0 min 0,000 mm 0,0 UV-I 0 W/m² 0,8 °C -0,3 °C 19,3 km/h (3 Bft)
09.11.2019 04:45 2,4 °C 89 % 1008,0 hPa 0,0 mm 7,8 km/h (2 Bft) S-SW 208 ° 0 min 0,000 mm 0,0 UV-I 0 W/m² 0,8 °C 0,1 °C 19,3 km/h (3 Bft)
09.11.2019 04:46 2,4 °C 89 % 1008,0 hPa 0,0 mm 10,4 km/h (2 Bft) W-NW 299 ° 0 min 0,000 mm 0,0 UV-I 0 W/m² 0,8 °C -0,5 °C 14,5 km/h (3 Bft)
09.11.2019 04:47 2,4 °C 89 % 1008,0 hPa 0,0 mm 10,3 km/h (2 Bft) W 276 ° 0 min 0,000 mm 0,0 UV-I 0 W/m² 0,8 °C -0,5 °C 14,5 km/h (3 Bft)
09.11.2019 04:48 2,4 °C 89 % 1008,0 hPa 0,0 mm 6,5 km/h (2 Bft) W-SW 253 ° 0 min 0,000 mm 0,0 UV-I 0 W/m² 0,8 °C 0,6 °C 12,9 km/h (3 Bft)
09.11.2019 04:49 2,4 °C 89 % 1008,1 hPa 0,0 mm 13,0 km/h (3 Bft) W-SW 257 ° 0 min 0,000 mm 0,0 UV-I 0 W/m² 0,8 °C -1,1 °C 22,5 km/h (4 Bft)
09.11.2019 04:50 2,4 °C 89 % 1008,1 hPa 0,0 mm 6,2 km/h (2 Bft) W 261 ° 0 min 0,000 mm 0,0 UV-I 0 W/m² 0,8 °C 0,7 °C 14,5 km/h (3 Bft)
09.11.2019 04:51 2,4 °C 89 % 1008,1 hPa 0,0 mm 10,5 km/h (2 Bft) W 263 ° 0 min 0,000 mm 0,0 UV-I 0 W/m² 0,8 °C -0,6 °C 17,7 km/h (3 Bft)
09.11.2019 04:52 2,4 °C 89 % 1008,2 hPa 0,0 mm 11,8 km/h (2 Bft) W 275 ° 0 min 0,000 mm 0,0 UV-I 0 W/m² 0,8 °C -0,9 °C 19,3 km/h (3 Bft)
09.11.2019 04:53 2,4 °C 89 % 1008,2 hPa 0,0 mm 10,9 km/h (2 Bft) W 262 ° 0 min 0,000 mm 0,0 UV-I 0 W/m² 0,8 °C -0,7 °C 17,7 km/h (3 Bft)
09.11.2019 04:54 2,3 °C 89 % 1008,2 hPa 0,0 mm 13,3 km/h (3 Bft) W 275 ° 0 min 0,000 mm 0,0 UV-I 0 W/m² 0,7 °C -1,3 °C 19,3 km/h (3 Bft)
09.11.2019 04:55 2,3 °C 89 % 1008,2 hPa 0,0 mm 5,8 km/h (2 Bft) S-SW 210 ° 0 min 0,000 mm 0,0 UV-I 0 W/m² 0,7 °C 0,7 °C 9,7 km/h (2 Bft)
09.11.2019 04:56 2,4 °C 89 % 1008,3 hPa 0,0 mm 11,8 km/h (2 Bft) W-NW 297 ° 0 min 0,000 mm 0,0 UV-I 0 W/m² 0,8 °C -0,9 °C 24,1 km/h (4 Bft)
09.11.2019 04:57 2,4 °C 89 % 1008,3 hPa 0,0 mm 10,9 km/h (2 Bft) W 259 ° 0 min 0,000 mm 0,0 UV-I 0 W/m² 0,8 °C -0,7 °C 16,1 km/h (3 Bft)
09.11.2019 04:58 2,3 °C 89 % 1008,2 hPa 0,0 mm 9,2 km/h (2 Bft) W 272 ° 0 min 0,000 mm 0,0 UV-I 0 W/m² 0,7 °C -0,4 °C 16,1 km/h (3 Bft)
09.11.2019 04:59 2,3 °C 89 % 1008,3 hPa 0,0 mm 9,2 km/h (2 Bft) S-SW 209 ° 0 min 0,000 mm 0,0 UV-I 0 W/m² 0,7 °C -0,4 °C 14,5 km/h (3 Bft)
09.11.2019 05:00 2,3 °C 89 % 1008,2 hPa 0,0 mm 12,8 km/h (3 Bft) W 274 ° 0 min 0,000 mm 0,0 UV-I 0 W/m² 0,7 °C -1,2 °C 22,5 km/h (4 Bft)
09.11.2019 05:01 2,3 °C 88 % 1008,3 hPa 0,0 mm 6,4 km/h (2 Bft) W-SW 248 ° 0 min 0,000 mm 0,0 UV-I 0 W/m² 0,5 °C 0,5 °C 11,3 km/h (2 Bft)
09.11.2019 05:02 2,3 °C 88 % 1008,3 hPa 0,0 mm 13,0 km/h (3 Bft) W 263 ° 0 min 0,000 mm 0,0 UV-I 0 W/m² 0,5 °C -1,2 °C 19,3 km/h (3 Bft)
09.11.2019 05:03 2,3 °C 88 % 1008,3 hPa 0,0 mm 12,7 km/h (3 Bft) W-SW 257 ° 0 min 0,000 mm 0,0 UV-I 0 W/m² 0,5 °C -1,2 °C 20,9 km/h (4 Bft)
09.11.2019 05:04 2,3 °C 88 % 1008,4 hPa 0,0 mm 15,8 km/h (3 Bft) W-NW 288 ° 0 min 0,000 mm 0,0 UV-I 0 W/m² 0,5 °C -1,7 °C 20,9 km/h (4 Bft)
09.11.2019 05:05 2,3 °C 88 % 1008,3 hPa 0,0 mm 9,6 km/h (2 Bft) W 278 ° 0 min 0,000 mm 0,0 UV-I 0 W/m² 0,5 °C -0,5 °C 14,5 km/h (3 Bft)
09.11.2019 05:06 2,3 °C 88 % 1008,4 hPa 0,0 mm 17,0 km/h (3 Bft) W 275 ° 0 min 0,000 mm 0,0 UV-I 0 W/m² 0,5 °C -1,9 °C 25,7 km/h (4 Bft)
09.11.2019 05:07 2,3 °C 88 % 1008,4 hPa 0,0 mm 16,8 km/h (3 Bft) W-NW 296 ° 0 min 0,000 mm 0,0 UV-I 0 W/m² 0,5 °C -1,9 °C 24,1 km/h (4 Bft)
09.11.2019 05:08 2,3 °C 88 % 1008,4 hPa 0,0 mm 11,2 km/h (2 Bft) W-NW 285 ° 0 min 0,000 mm 0,0 UV-I 0 W/m² 0,5 °C -0,8 °C 14,5 km/h (3 Bft)
09.11.2019 05:09 2,3 °C 88 % 1008,4 hPa 0,0 mm 15,5 km/h (3 Bft) W 259 ° 0 min 0,000 mm 0,0 UV-I 0 W/m² 0,5 °C -1,7 °C 20,9 km/h (4 Bft)
09.11.2019 05:10 2,3 °C 88 % 1008,5 hPa 0,0 mm 17,8 km/h (3 Bft) W 265 ° 0 min 0,000 mm 0,0 UV-I 0 W/m² 0,5 °C -2,0 °C 27,4 km/h (4 Bft)
09.11.2019 05:11 2,3 °C 88 % 1008,5 hPa 0,0 mm 15,7 km/h (3 Bft) W 262 ° 0 min 0,000 mm 0,0 UV-I 0 W/m² 0,5 °C -1,7 °C 22,5 km/h (4 Bft)
09.11.2019 05:12 2,3 °C 88 % 1008,6 hPa 0,0 mm 16,2 km/h (3 Bft) W 260 ° 0 min 0,000 mm 0,0 UV-I 0 W/m² 0,5 °C -1,8 °C 20,9 km/h (4 Bft)
09.11.2019 05:13 2,3 °C 88 % 1008,6 hPa 0,0 mm 14,7 km/h (3 Bft) W 272 ° 0 min 0,000 mm 0,0 UV-I 0 W/m² 0,5 °C -1,5 °C 19,3 km/h (3 Bft)
09.11.2019 05:14 2,3 °C 88 % 1008,6 hPa 0,0 mm 11,9 km/h (2 Bft) W-SW 258 ° 0 min 0,000 mm 0,0 UV-I 0 W/m² 0,5 °C -1,0 °C 17,7 km/h (3 Bft)
09.11.2019 05:15 2,3 °C 88 % 1008,7 hPa 0,0 mm 12,5 km/h (3 Bft) SW 232 ° 0 min 0,000 mm 0,0 UV-I 0 W/m² 0,5 °C -1,1 °C 19,3 km/h (3 Bft)
09.11.2019 05:16 2,3 °C 88 % 1008,7 hPa 0,0 mm 7,6 km/h (2 Bft) W-SW 248 ° 0 min 0,000 mm 0,0 UV-I 0 W/m² 0,5 °C 0,1 °C 14,5 km/h (3 Bft)
09.11.2019 05:17 2,3 °C 88 % 1008,7 hPa 0,0 mm 7,0 km/h (2 Bft) W 263 ° 0 min 0,000 mm 0,0 UV-I 0 W/m² 0,5 °C 0,3 °C 11,3 km/h (2 Bft)
09.11.2019 05:18 2,3 °C 88 % 1008,7 hPa 0,0 mm 7,0 km/h (2 Bft) W 263 ° 0 min 0,000 mm 0,0 UV-I 0 W/m² 0,5 °C 0,3 °C 11,3 km/h (2 Bft)
09.11.2019 05:19 2,3 °C 88 % 1008,7 hPa 0,0 mm 8,3 km/h (2 Bft) W 271 ° 0 min 0,000 mm 0,0 UV-I 0 W/m² 0,5 °C -0,1 °C 12,9 km/h (3 Bft)
09.11.2019 05:20 2,3 °C 88 % 1008,7 hPa 0,0 mm 10,1 km/h (2 Bft) W-SW 258 ° 0 min 0,000 mm 0,0 UV-I 0 W/m² 0,5 °C -0,6 °C 14,5 km/h (3 Bft)
09.11.2019 05:21 2,3 °C 88 % 1008,7 hPa 0,0 mm 15,4 km/h (3 Bft) W-SW 254 ° 0 min 0,000 mm 0,0 UV-I 0 W/m² 0,5 °C -1,6 °C 19,3 km/h (3 Bft)
09.11.2019 05:22 2,3 °C 88 % 1008,8 hPa 0,0 mm 11,8 km/h (2 Bft) W 271 ° 0 min 0,000 mm 0,0 UV-I 0 W/m² 0,5 °C -1,0 °C 17,7 km/h (3 Bft)
09.11.2019 05:23 2,3 °C 88 % 1008,7 hPa 0,0 mm 12,4 km/h (3 Bft) W-SW 249 ° 0 min 0,000 mm 0,0 UV-I 0 W/m² 0,5 °C -1,1 °C 19,3 km/h (3 Bft)
09.11.2019 05:24 2,3 °C 88 % 1008,7 hPa 0,0 mm 9,9 km/h (2 Bft) W-SW 257 ° 0 min 0,000 mm 0,0 UV-I 0 W/m² 0,5 °C -0,5 °C 12,9 km/h (3 Bft)
09.11.2019 05:25 2,3 °C 88 % 1008,7 hPa 0,0 mm 10,8 km/h (2 Bft) W-NW 286 ° 0 min 0,000 mm 0,0 UV-I 0 W/m² 0,5 °C -0,8 °C 14,5 km/h (3 Bft)
09.11.2019 05:26 2,3 °C 88 % 1008,8 hPa 0,0 mm 9,5 km/h (2 Bft) W 275 ° 0 min 0,000 mm 0,0 UV-I 0 W/m² 0,5 °C -0,4 °C 19,3 km/h (3 Bft)
09.11.2019 05:27 2,4 °C 88 % 1008,8 hPa 0,0 mm 14,1 km/h (3 Bft) W 269 ° 0 min 0,000 mm 0,0 UV-I 0 W/m² 0,6 °C -1,3 °C 20,9 km/h (4 Bft)
09.11.2019 05:28 2,3 °C 88 % 1008,8 hPa 0,0 mm 9,8 km/h (2 Bft) W-SW 248 ° 0 min 0,000 mm 0,0 UV-I 0 W/m² 0,5 °C -0,5 °C 14,5 km/h (3 Bft)
09.11.2019 05:29 2,3 °C 88 % 1008,9 hPa 0,0 mm 10,5 km/h (2 Bft) W 271 ° 0 min 0,000 mm 0,0 UV-I 0 W/m² 0,5 °C -0,7 °C 16,1 km/h (3 Bft)
09.11.2019 05:30 2,3 °C 88 % 1008,9 hPa 0,0 mm 10,9 km/h (2 Bft) W 263 ° 0 min 0,000 mm 0,0 UV-I 0 W/m² 0,5 °C -0,8 °C 14,5 km/h (3 Bft)
09.11.2019 05:31 2,3 °C 88 % 1008,9 hPa 0,0 mm 15,0 km/h (3 Bft) W 277 ° 0 min 0,000 mm 0,0 UV-I 0 W/m² 0,5 °C -1,6 °C 19,3 km/h (3 Bft)
09.11.2019 05:32 2,3 °C 88 % 1008,9 hPa 0,0 mm 8,9 km/h (2 Bft) W-SW 246 ° 0 min 0,000 mm 0,0 UV-I 0 W/m² 0,5 °C -0,3 °C 17,7 km/h (3 Bft)
09.11.2019 05:33 2,3 °C 88 % 1008,8 hPa 0,0 mm 6,2 km/h (2 Bft) S-SW 192 ° 0 min 0,000 mm 0,0 UV-I 0 W/m² 0,5 °C 0,5 °C 12,9 km/h (3 Bft)
09.11.2019 05:34 2,3 °C 89 % 1008,9 hPa 0,0 mm 8,9 km/h (2 Bft) W 267 ° 0 min 0,000 mm 0,0 UV-I 0 W/m² 0,7 °C -0,3 °C 14,5 km/h (3 Bft)
09.11.2019 05:35 2,3 °C 88 % 1008,9 hPa 0,0 mm 13,7 km/h (3 Bft) W 262 ° 0 min 0,000 mm 0,0 UV-I 0 W/m² 0,5 °C -1,3 °C 16,1 km/h (3 Bft)
09.11.2019 05:36 2,3 °C 89 % 1008,9 hPa 0,0 mm 10,2 km/h (2 Bft) W-NW 298 ° 0 min 0,000 mm 0,0 UV-I 0 W/m² 0,7 °C -0,6 °C 14,5 km/h (3 Bft)
09.11.2019 05:37 2,3 °C 89 % 1008,9 hPa 0,0 mm 10,5 km/h (2 Bft) W 277 ° 0 min 0,000 mm 0,0 UV-I 0 W/m² 0,7 °C -0,7 °C 14,5 km/h (3 Bft)
09.11.2019 05:38 2,3 °C 89 % 1008,9 hPa 0,0 mm 6,5 km/h (2 Bft) W 265 ° 0 min 0,000 mm 0,0 UV-I 0 W/m² 0,7 °C 0,4 °C 11,3 km/h (2 Bft)
09.11.2019 05:39 2,3 °C 89 % 1008,9 hPa 0,0 mm 9,2 km/h (2 Bft) W-SW 254 ° 0 min 0,000 mm 0,0 UV-I 0 W/m² 0,7 °C -0,4 °C 14,5 km/h (3 Bft)
09.11.2019 05:40 2,3 °C 89 % 1008,9 hPa 0,0 mm 8,9 km/h (2 Bft) W-SW 257 ° 0 min 0,000 mm 0,0 UV-I 0 W/m² 0,7 °C -0,3 °C 12,9 km/h (3 Bft)
09.11.2019 05:41 2,3 °C 89 % 1008,9 hPa 0,0 mm 7,7 km/h (2 Bft) W-NW 283 ° 0 min 0,000 mm 0,0 UV-I 0 W/m² 0,7 °C 0,1 °C 12,9 km/h (3 Bft)
09.11.2019 05:42 2,3 °C 89 % 1008,9 hPa 0,0 mm 8,6 km/h (2 Bft) W-SW 248 ° 0 min 0,000 mm 0,0 UV-I 0 W/m² 0,7 °C -0,2 °C 12,9 km/h (3 Bft)
09.11.2019 05:43 2,3 °C 89 % 1008,9 hPa 0,0 mm 7,0 km/h (2 Bft) SW 235 ° 0 min 0,000 mm 0,0 UV-I 0 W/m² 0,7 °C 0,3 °C 11,3 km/h (2 Bft)
09.11.2019 05:44 2,3 °C 89 % 1008,9 hPa 0,0 mm 8,5 km/h (2 Bft) W-NW 288 ° 0 min 0,000 mm 0,0 UV-I 0 W/m² 0,7 °C -0,2 °C 12,9 km/h (3 Bft)
09.11.2019 05:45 2,3 °C 89 % 1008,9 hPa 0,0 mm 11,6 km/h (2 Bft) W 273 ° 0 min 0,000 mm 0,0 UV-I 0 W/m² 0,7 °C -0,9 °C 16,1 km/h (3 Bft)
09.11.2019 05:46 2,3 °C 89 % 1008,9 hPa 0,0 mm 5,8 km/h (2 Bft) W 265 ° 0 min 0,000 mm 0,0 UV-I 0 W/m² 0,7 °C 0,7 °C 9,7 km/h (2 Bft)
09.11.2019 05:47 2,3 °C 89 % 1008,9 hPa 0,0 mm 13,9 km/h (3 Bft) W 262 ° 0 min 0,000 mm 0,0 UV-I 0 W/m² 0,7 °C -1,4 °C 20,9 km/h (4 Bft)
09.11.2019 05:48 2,3 °C 89 % 1008,9 hPa 0,0 mm 8,7 km/h (2 Bft) W-SW 252 ° 0 min 0,000 mm 0,0 UV-I 0 W/m² 0,7 °C -0,2 °C 14,5 km/h (3 Bft)
09.11.2019 05:49 2,3 °C 89 % 1008,9 hPa 0,0 mm 3,8 km/h (1 Bft) W-NW 291 ° 0 min 0,000 mm 0,0 UV-I 0 W/m² 0,7 °C 2,3 °C 6,4 km/h (2 Bft)
09.11.2019 05:50 2,3 °C 89 % 1009,0 hPa 0,0 mm 4,6 km/h (1 Bft) W-NW 293 ° 0 min 0,000 mm 0,0 UV-I 0 W/m² 0,7 °C 1,2 °C 6,4 km/h (2 Bft)
09.11.2019 05:51 2,3 °C 89 % 1008,9 hPa 0,0 mm 5,1 km/h (1 Bft) W-SW 247 ° 0 min 0,000 mm 0,0 UV-I 0 W/m² 0,7 °C 1,0 °C 8,0 km/h (2 Bft)
09.11.2019 05:52 2,3 °C 89 % 1009,0 hPa 0,0 mm 6,0 km/h (2 Bft) W-SW 256 ° 0 min 0,000 mm 0,0 UV-I 0 W/m² 0,7 °C 0,6 °C 8,0 km/h (2 Bft)
09.11.2019 05:53 2,3 °C 89 % 1009,1 hPa 0,0 mm 11,4 km/h (2 Bft) W-SW 252 ° 0 min 0,000 mm 0,0 UV-I 0 W/m² 0,7 °C -0,9 °C 14,5 km/h (3 Bft)
09.11.2019 05:54 2,2 °C 89 % 1009,1 hPa 0,0 mm 7,2 km/h (2 Bft) W 265 ° 0 min 0,000 mm 0,0 UV-I 0 W/m² 0,6 °C 0,1 °C 12,9 km/h (3 Bft)
09.11.2019 05:55 2,3 °C 89 % 1009,0 hPa 0,0 mm 4,3 km/h (1 Bft) W-SW 246 ° 0 min 0,000 mm 0,0 UV-I 0 W/m² 0,7 °C 2,3 °C 6,4 km/h (2 Bft)
09.11.2019 05:56 2,3 °C 89 % 1009,0 hPa 0,0 mm 4,6 km/h (1 Bft) W 259 ° 0 min 0,000 mm 0,0 UV-I 0 W/m² 0,7 °C 1,2 °C 6,4 km/h (2 Bft)
09.11.2019 05:57 2,2 °C 89 % 1009,1 hPa 0,0 mm 3,9 km/h (1 Bft) W 275 ° 0 min 0,000 mm 0,0 UV-I 0 W/m² 0,6 °C 2,2 °C 4,8 km/h (1 Bft)
09.11.2019 05:58 2,2 °C 89 % 1009,0 hPa 0,0 mm 3,8 km/h (1 Bft) W 275 ° 0 min 0,000 mm 0,0 UV-I 0 W/m² 0,6 °C 2,2 °C 4,8 km/h (1 Bft)
09.11.2019 05:59 2,3 °C 89 % 1009,0 hPa 0,0 mm 3,0 km/h (1 Bft) W 274 ° 0 min 0,000 mm 0,0 UV-I 0 W/m² 0,7 °C 2,3 °C 3,2 km/h (1 Bft)
09.11.2019 06:00 2,2 °C 89 % 1009,0 hPa 0,0 mm 4,4 km/h (1 Bft) W-SW 246 ° 0 min 0,000 mm 0,0 UV-I 0 W/m² 0,6 °C 2,2 °C 6,4 km/h (2 Bft)
09.11.2019 06:01 2,2 °C 89 % 1009,1 hPa 0,0 mm 6,0 km/h (2 Bft) W-SW 241 ° 0 min 0,000 mm 0,0 UV-I 0 W/m² 0,6 °C 0,5 °C 12,9 km/h (3 Bft)
09.11.2019 06:02 2,2 °C 89 % 1009,1 hPa 0,0 mm 8,6 km/h (2 Bft) W-NW 289 ° 0 min 0,000 mm 0,0 UV-I 0 W/m² 0,6 °C -0,3 °C 12,9 km/h (3 Bft)
09.11.2019 06:03 2,2 °C 89 % 1009,1 hPa 0,0 mm 5,1 km/h (1 Bft) W 277 ° 0 min 0,000 mm 0,0 UV-I 0 W/m² 0,6 °C 0,9 °C 11,3 km/h (2 Bft)
09.11.2019 06:04 2,2 °C 89 % 1009,1 hPa 0,0 mm 3,6 km/h (1 Bft) W 275 ° 0 min 0,000 mm 0,0 UV-I 0 W/m² 0,6 °C 2,2 °C 6,4 km/h (2 Bft)
09.11.2019 06:05 2,2 °C 89 % 1009,1 hPa 0,0 mm 4,4 km/h (1 Bft) W 265 ° 0 min 0,000 mm 0,0 UV-I 0 W/m² 0,6 °C 2,2 °C 6,4 km/h (2 Bft)
09.11.2019 06:06 2,2 °C 89 % 1009,1 hPa 0,0 mm 5,0 km/h (1 Bft) W-SW 257 ° 0 min 0,000 mm 0,0 UV-I 0 W/m² 0,6 °C 0,9 °C 6,4 km/h (2 Bft)
09.11.2019 06:07 2,2 °C 89 % 1009,1 hPa 0,0 mm 4,8 km/h (1 Bft) W 270 ° 0 min 0,000 mm 0,0 UV-I 0 W/m² 0,6 °C 1,0 °C 6,4 km/h (2 Bft)
09.11.2019 06:08 2,2 °C 89 % 1009,1 hPa 0,0 mm 3,2 km/h (1 Bft) W 270 ° 0 min 0,000 mm 0,0 UV-I 0 W/m² 0,6 °C 2,2 °C 4,8 km/h (1 Bft)
09.11.2019 06:09 2,2 °C 89 % 1009,1 hPa 0,0 mm 3,5 km/h (1 Bft) W 265 ° 0 min 0,000 mm 0,0 UV-I 0 W/m² 0,6 °C 2,2 °C 6,4 km/h (2 Bft)
09.11.2019 06:10 2,2 °C 89 % 1009,1 hPa 0,0 mm 3,8 km/h (1 Bft) W 272 ° 0 min 0,000 mm 0,0 UV-I 0 W/m² 0,6 °C 2,2 °C 6,4 km/h (2 Bft)
09.11.2019 06:11 2,2 °C 89 % 1009,1 hPa 0,0 mm 2,9 km/h (1 Bft) W 272 ° 0 min 0,000 mm 0,0 UV-I 0 W/m² 0,6 °C 2,2 °C 4,8 km/h (1 Bft)
09.11.2019 06:12 2,2 °C 89 % 1009,2 hPa 0,0 mm 2,5 km/h (1 Bft) W 271 ° 0 min 0,000 mm 0,0 UV-I 0 W/m² 0,6 °C 2,2 °C 4,8 km/h (1 Bft)
09.11.2019 06:13 2,2 °C 89 % 1009,2 hPa 0,0 mm 3,2 km/h (1 Bft) SW 235 ° 0 min 0,000 mm 0,0 UV-I 0 W/m² 0,6 °C 2,2 °C 4,8 km/h (1 Bft)
09.11.2019 06:14 2,2 °C 89 % 1009,2 hPa 0,0 mm 6,0 km/h (2 Bft) W-SW 243 ° 0 min 0,000 mm 0,0 UV-I 0 W/m² 0,6 °C 0,5 °C 11,3 km/h (2 Bft)
09.11.2019 06:15 2,2 °C 89 % 1009,2 hPa 0,0 mm 3,8 km/h (1 Bft) W-SW 244 ° 0 min 0,000 mm 0,0 UV-I 0 W/m² 0,6 °C 2,2 °C 8,0 km/h (2 Bft)
09.11.2019 06:16 2,2 °C 89 % 1009,2 hPa 0,0 mm 5,0 km/h (1 Bft) W 269 ° 0 min 0,000 mm 0,0 UV-I 0 W/m² 0,6 °C 0,9 °C 6,4 km/h (2 Bft)
09.11.2019 06:17 2,2 °C 89 % 1009,2 hPa 0,0 mm 6,0 km/h (2 Bft) W 263 ° 0 min 0,000 mm 0,0 UV-I 0 W/m² 0,6 °C 0,5 °C 9,7 km/h (2 Bft)
09.11.2019 06:18 2,2 °C 89 % 1009,2 hPa 0,0 mm 4,1 km/h (1 Bft) W 264 ° 0 min 0,000 mm 0,0 UV-I 0 W/m² 0,6 °C 2,2 °C 6,4 km/h (2 Bft)
09.11.2019 06:19 2,2 °C 89 % 1009,1 hPa 0,0 mm 3,4 km/h (1 Bft) W 263 ° 0 min 0,000 mm 0,0 UV-I 0 W/m² 0,6 °C 2,2 °C 4,8 km/h (1 Bft)
09.11.2019 06:20 2,2 °C 89 % 1009,1 hPa 0,0 mm 4,2 km/h (1 Bft) W-NW 288 ° 0 min 0,000 mm 0,0 UV-I 0 W/m² 0,6 °C 2,2 °C 6,4 km/h (2 Bft)
09.11.2019 06:21 2,2 °C 89 % 1009,1 hPa 0,0 mm 4,0 km/h (1 Bft) W-NW 284 ° 0 min 0,000 mm 0,0 UV-I 0 W/m² 0,6 °C 2,2 °C 4,8 km/h (1 Bft)
09.11.2019 06:22 2,2 °C 89 % 1009,2 hPa 0,0 mm 3,0 km/h (1 Bft) W-NW 284 ° 0 min 0,000 mm 0,0 UV-I 0 W/m² 0,6 °C 2,2 °C 4,8 km/h (1 Bft)
09.11.2019 06:23 2,2 °C 89 % 1009,2 hPa 0,0 mm 4,8 km/h (1 Bft) W-SW 255 ° 0 min 0,000 mm 0,0 UV-I 0 W/m² 0,6 °C 1,0 °C 6,4 km/h (2 Bft)
09.11.2019 06:24 2,2 °C 89 % 1009,2 hPa 0,0 mm 4,3 km/h (1 Bft) W 269 ° 0 min 0,000 mm 0,0 UV-I 0 W/m² 0,6 °C 2,2 °C 9,7 km/h (2 Bft)
09.11.2019 06:25 2,2 °C 89 % 1009,2 hPa 0,0 mm 2,7 km/h (1 Bft) W 271 ° 0 min 0,000 mm 0,0 UV-I 0 W/m² 0,6 °C 2,2 °C 4,8 km/h (1 Bft)
09.11.2019 06:26 2,2 °C 89 % 1009,2 hPa 0,0 mm 6,0 km/h (2 Bft) W-SW 240 ° 0 min 0,000 mm 0,0 UV-I 0 W/m² 0,6 °C 0,5 °C 9,7 km/h (2 Bft)
09.11.2019 06:27 2,2 °C 89 % 1009,2 hPa 0,0 mm 5,9 km/h (2 Bft) W-NW 285 ° 0 min 0,000 mm 0,0 UV-I 0 W/m² 0,6 °C 0,5 °C 9,7 km/h (2 Bft)
09.11.2019 06:28 2,2 °C 89 % 1009,2 hPa 0,0 mm 4,6 km/h (1 Bft) W 273 ° 0 min 0,000 mm 0,0 UV-I 0 W/m² 0,6 °C 1,1 °C 6,4 km/h (2 Bft)
09.11.2019 06:29 2,2 °C 90 % 1009,2 hPa 0,0 mm 2,6 km/h (1 Bft) W 273 ° 0 min 0,000 mm 0,0 UV-I 0 W/m² 0,7 °C 2,2 °C 3,2 km/h (1 Bft)
09.11.2019 06:30 2,2 °C 90 % 1009,2 hPa 0,0 mm 2,7 km/h (1 Bft) W 272 ° 0 min 0,000 mm 0,0 UV-I 0 W/m² 0,7 °C 2,2 °C 4,8 km/h (1 Bft)
09.11.2019 06:31 2,2 °C 90 % 1009,2 hPa 0,0 mm 5,2 km/h (1 Bft) W 273 ° 0 min 0,000 mm 0,0 UV-I 0 W/m² 0,7 °C 0,8 °C 9,7 km/h (2 Bft)
09.11.2019 06:32 2,2 °C 90 % 1009,2 hPa 0,0 mm 4,6 km/h (1 Bft) W 277 ° 0 min 0,000 mm 0,0 UV-I 0 W/m² 0,7 °C 1,1 °C 4,8 km/h (1 Bft)
09.11.2019 06:33 2,2 °C 90 % 1009,2 hPa 0,0 mm 4,8 km/h (1 Bft) W 261 ° 0 min 0,000 mm 0,0 UV-I 0 W/m² 0,7 °C 1,0 °C 6,4 km/h (2 Bft)
09.11.2019 06:34 2,2 °C 90 % 1009,2 hPa 0,0 mm 4,6 km/h (1 Bft) W 263 ° 0 min 0,000 mm 0,0 UV-I 0 W/m² 0,7 °C 1,1 °C 6,4 km/h (2 Bft)
09.11.2019 06:35 2,2 °C 90 % 1009,2 hPa 0,0 mm 3,8 km/h (1 Bft) W-SW 240 ° 0 min 0,000 mm 0,0 UV-I 0 W/m² 0,7 °C 2,2 °C 6,4 km/h (2 Bft)
09.11.2019 06:36 2,2 °C 90 % 1009,2 hPa 0,0 mm 4,9 km/h (1 Bft) W-SW 246 ° 0 min 0,000 mm 0,0 UV-I 0 W/m² 0,7 °C 1,0 °C 8,0 km/h (2 Bft)
09.11.2019 06:37 2,2 °C 90 % 1009,3 hPa 0,0 mm 3,6 km/h (1 Bft) W-SW 249 ° 0 min 0,000 mm 0,0 UV-I 0 W/m² 0,7 °C 2,2 °C 6,4 km/h (2 Bft)
09.11.2019 06:38 2,2 °C 90 % 1009,3 hPa 0,0 mm 4,5 km/h (1 Bft) W 259 ° 0 min 0,000 mm 0,0 UV-I 0 W/m² 0,7 °C 2,2 °C 6,4 km/h (2 Bft)
09.11.2019 06:39 2,2 °C 90 % 1009,3 hPa 0,0 mm 3,8 km/h (1 Bft) W 259 ° 0 min 0,000 mm 0,0 UV-I 0 W/m² 0,7 °C 2,2 °C 6,4 km/h (2 Bft)
09.11.2019 06:40 2,2 °C 90 % 1009,3 hPa 0,0 mm 3,6 km/h (1 Bft) W 260 ° 0 min 0,000 mm 0,0 UV-I 0 W/m² 0,7 °C 2,2 °C 4,8 km/h (1 Bft)
09.11.2019 06:41 2,2 °C 90 % 1009,3 hPa 0,0 mm 2,5 km/h (1 Bft) W 259 ° 0 min 0,000 mm 0,0 UV-I 0 W/m² 0,7 °C 2,2 °C 3,2 km/h (1 Bft)
09.11.2019 06:42 2,2 °C 90 % 1009,3 hPa 0,0 mm 2,8 km/h (1 Bft) W 261 ° 0 min 0,000 mm 0,0 UV-I 0 W/m² 0,7 °C 2,2 °C 4,8 km/h (1 Bft)
09.11.2019 06:43 2,2 °C 90 % 1009,3 hPa 0,0 mm 1,3 km/h (1 Bft) W 261 ° 0 min 0,000 mm 0,0 UV-I 0 W/m² 0,7 °C 2,2 °C 3,2 km/h (1 Bft)
09.11.2019 06:44 2,2 °C 90 % 1009,3 hPa 0,0 mm 1,3 km/h (1 Bft) W 261 ° 0 min 0,000 mm 0,0 UV-I 0 W/m² 0,7 °C 2,2 °C 3,2 km/h (1 Bft)
09.11.2019 06:45 2,2 °C 90 % 1009,3 hPa 0,0 mm 0,1 km/h (0 Bft) W 261 ° 0 min 0,000 mm 0,0 UV-I 0 W/m² 0,7 °C 2,2 °C 1,6 km/h (1 Bft)
09.11.2019 06:46 2,2 °C 90 % 1009,3 hPa 0,0 mm 1,1 km/h (1 Bft) W 261 ° 0 min 0,000 mm 0,0 UV-I 0 W/m² 0,7 °C 2,2 °C 3,2 km/h (1 Bft)
09.11.2019 06:47 2,2 °C 90 % 1009,3 hPa 0,0 mm 2,4 km/h (1 Bft) W 261 ° 0 min 0,000 mm 0,0 UV-I 0 W/m² 0,7 °C 2,2 °C 3,2 km/h (1 Bft)
09.11.2019 06:48 2,2 °C 90 % 1009,3 hPa 0,0 mm 1,8 km/h (1 Bft) W 261 ° 0 min 0,000 mm 0,0 UV-I 0 W/m² 0,7 °C 2,2 °C 3,2 km/h (1 Bft)
09.11.2019 06:49 2,2 °C 90 % 1009,3 hPa 0,0 mm 2,4 km/h (1 Bft) W 261 ° 0 min 0,000 mm 0,0 UV-I 0 W/m² 0,7 °C 2,2 °C 3,2 km/h (1 Bft)
09.11.2019 06:50 2,2 °C 90 % 1009,4 hPa 0,0 mm 3,5 km/h (1 Bft) W 261 ° 0 min 0,000 mm 0,0 UV-I 0 W/m² 0,7 °C 2,2 °C 4,8 km/h (1 Bft)
09.11.2019 06:51 2,2 °C 90 % 1009,3 hPa 0,0 mm 2,1 km/h (1 Bft) W 261 ° 0 min 0,000 mm 0,0 UV-I 0 W/m² 0,7 °C 2,2 °C 3,2 km/h (1 Bft)
09.11.2019 06:52 2,2 °C 90 % 1009,3 hPa 0,0 mm 0,3 km/h (0 Bft) W 261 ° 0 min 0,000 mm 0,0 UV-I 0 W/m² 0,7 °C 2,2 °C 1,6 km/h (1 Bft)
09.11.2019 06:53 2,2 °C 90 % 1009,3 hPa 0,0 mm 0,0 km/h (0 Bft) W 261 ° 0 min 0,000 mm 0,0 UV-I 0 W/m² 0,7 °C 2,2 °C 0,0 km/h (0 Bft)
09.11.2019 06:54 2,2 °C 90 % 1009,3 hPa 0,0 mm 0,0 km/h (0 Bft) W 261 ° 0 min 0,000 mm 0,0 UV-I 0 W/m² 0,7 °C 2,2 °C 0,0 km/h (0 Bft)
09.11.2019 06:55 2,2 °C 90 % 1009,3 hPa 0,0 mm 0,0 km/h (0 Bft) W 261 ° 0 min 0,000 mm 0,0 UV-I 0 W/m² 0,7 °C 2,2 °C 0,0 km/h (0 Bft)
09.11.2019 06:56 2,2 °C 90 % 1009,3 hPa 0,0 mm 0,0 km/h (0 Bft) W 261 ° 0 min 0,000 mm 0,0 UV-I 0 W/m² 0,7 °C 2,2 °C 0,0 km/h (0 Bft)
09.11.2019 06:57 2,2 °C 90 % 1009,3 hPa 0,0 mm 0,0 km/h (0 Bft) W 261 ° 0 min 0,000 mm 0,0 UV-I 0 W/m² 0,7 °C 2,2 °C 0,0 km/h (0 Bft)
09.11.2019 06:58 2,2 °C 90 % 1009,3 hPa 0,0 mm 1,7 km/h (1 Bft) W 261 ° 0 min 0,000 mm 0,0 UV-I 0 W/m² 0,7 °C 2,2 °C 3,2 km/h (1 Bft)
09.11.2019 06:59 2,2 °C 90 % 1009,4 hPa 0,0 mm 1,9 km/h (1 Bft) W 261 ° 0 min 0,000 mm 0,0 UV-I 0 W/m² 0,7 °C 2,2 °C 3,2 km/h (1 Bft)
09.11.2019 07:00 2,2 °C 90 % 1009,4 hPa 0,0 mm 2,3 km/h (1 Bft) W 261 ° 0 min 0,000 mm 0,0 UV-I 0 W/m² 0,7 °C 2,2 °C 3,2 km/h (1 Bft)
09.11.2019 07:01 2,2 °C 90 % 1009,4 hPa 0,0 mm 3,1 km/h (1 Bft) W 262 ° 0 min 0,000 mm 0,0 UV-I 0 W/m² 0,7 °C 2,2 °C 4,8 km/h (1 Bft)
09.11.2019 07:02 2,2 °C 90 % 1009,4 hPa 0,0 mm 3,7 km/h (1 Bft) W 261 ° 0 min 0,000 mm 0,0 UV-I 0 W/m² 0,7 °C 2,2 °C 4,8 km/h (1 Bft)
09.11.2019 07:03 2,2 °C 90 % 1009,5 hPa 0,0 mm 1,5 km/h (1 Bft) W 262 ° 0 min 0,000 mm 0,0 UV-I 0 W/m² 0,7 °C 2,2 °C 3,2 km/h (1 Bft)
09.11.2019 07:04 2,2 °C 90 % 1009,4 hPa 0,0 mm 0,0 km/h (0 Bft) W 262 ° 0 min 0,000 mm 0,0 UV-I 0 W/m² 0,7 °C 2,2 °C 0,0 km/h (0 Bft)
09.11.2019 07:05 2,2 °C 90 % 1009,5 hPa 0,0 mm 0,0 km/h (0 Bft) W 261 ° 0 min 0,000 mm 0,0 UV-I 0 W/m² 0,7 °C 2,2 °C 0,0 km/h (0 Bft)
09.11.2019 07:06 2,2 °C 90 % 1009,5 hPa 0,0 mm 3,6 km/h (1 Bft) W 263 ° 0 min 0,000 mm 0,0 UV-I 0 W/m² 0,7 °C 2,2 °C 6,4 km/h (2 Bft)
09.11.2019 07:07 2,2 °C 90 % 1009,4 hPa 0,0 mm 4,0 km/h (1 Bft) W 266 ° 0 min 0,000 mm 0,0 UV-I 0 W/m² 0,7 °C 2,2 °C 4,8 km/h (1 Bft)
09.11.2019 07:08 2,2 °C 90 % 1009,5 hPa 0,0 mm 3,7 km/h (1 Bft) W 263 ° 0 min 0,000 mm 0,0 UV-I 0 W/m² 0,7 °C 2,2 °C 6,4 km/h (2 Bft)
09.11.2019 07:09 2,2 °C 90 % 1009,5 hPa 0,0 mm 4,6 km/h (1 Bft) W 265 ° 0 min 0,000 mm 0,0 UV-I 0 W/m² 0,7 °C 1,1 °C 6,4 km/h (2 Bft)
09.11.2019 07:10 2,2 °C 90 % 1009,5 hPa 0,0 mm 3,3 km/h (1 Bft) W 265 ° 0 min 0,000 mm 0,0 UV-I 0 W/m² 0,7 °C 2,2 °C 4,8 km/h (1 Bft)
09.11.2019 07:11 2,2 °C 90 % 1009,5 hPa 0,0 mm 1,0 km/h (0 Bft) W 265 ° 0 min 0,000 mm 0,0 UV-I 0 W/m² 0,7 °C 2,2 °C 3,2 km/h (1 Bft)
09.11.2019 07:12 2,2 °C 90 % 1009,5 hPa 0,0 mm 0,0 km/h (0 Bft) W 265 ° 0 min 0,000 mm 0,0 UV-I 0 W/m² 0,7 °C 2,2 °C 0,0 km/h (0 Bft)
09.11.2019 07:13 2,2 °C 90 % 1009,5 hPa 0,0 mm 0,0 km/h (0 Bft) W 265 ° 0 min 0,000 mm 0,0 UV-I 0 W/m² 0,7 °C 2,2 °C 0,0 km/h (0 Bft)
09.11.2019 07:14 2,2 °C 90 % 1009,5 hPa 0,0 mm 0,0 km/h (0 Bft) W 265 ° 0 min 0,000 mm 0,0 UV-I 0 W/m² 0,7 °C 2,2 °C 0,0 km/h (0 Bft)
09.11.2019 07:15 2,2 °C 90 % 1009,6 hPa 0,0 mm 0,0 km/h (0 Bft) W 265 ° 0 min 0,000 mm 0,0 UV-I 0 W/m² 0,7 °C 2,2 °C 0,0 km/h (0 Bft)
09.11.2019 07:16 2,2 °C 90 % 1009,5 hPa 0,0 mm 0,0 km/h (0 Bft) W 265 ° 0 min 0,000 mm 0,0 UV-I 0 W/m² 0,7 °C 2,2 °C 0,0 km/h (0 Bft)
09.11.2019 07:17 2,2 °C 90 % 1009,5 hPa 0,0 mm 0,0 km/h (0 Bft) W 265 ° 0 min 0,000 mm 0,0 UV-I 0 W/m² 0,7 °C 2,2 °C 0,0 km/h (0 Bft)
09.11.2019 07:18 2,2 °C 90 % 1009,6 hPa 0,0 mm 0,0 km/h (0 Bft) W 265 ° 0 min 0,000 mm 0,0 UV-I 0 W/m² 0,7 °C 2,2 °C 0,0 km/h (0 Bft)
09.11.2019 07:19 2,2 °C 90 % 1009,5 hPa 0,0 mm 0,0 km/h (0 Bft) W 265 ° 0 min 0,000 mm 0,0 UV-I 0 W/m² 0,7 °C 2,2 °C 0,0 km/h (0 Bft)
09.11.2019 07:20 2,3 °C 90 % 1009,5 hPa 0,0 mm 0,0 km/h (0 Bft) W 265 ° 0 min 0,000 mm 0,0 UV-I 0 W/m² 0,8 °C 2,3 °C 0,0 km/h (0 Bft)
09.11.2019 07:21 2,3 °C 91 % 1009,6 hPa 0,0 mm 0,0 km/h (0 Bft) W 265 ° 0 min 0,000 mm 0,0 UV-I 0 W/m² 1,0 °C 2,3 °C 0,0 km/h (0 Bft)
09.11.2019 07:22 2,3 °C 91 % 1009,7 hPa 0,0 mm 0,0 km/h (0 Bft) W 265 ° 0 min 0,000 mm 0,0 UV-I 0 W/m² 1,0 °C 2,3 °C 0,0 km/h (0 Bft)
09.11.2019 07:23 2,3 °C 91 % 1009,6 hPa 0,0 mm 4,5 km/h (1 Bft) W-NW 283 ° 0 min 0,000 mm 0,0 UV-I 0 W/m² 1,0 °C 2,3 °C 6,4 km/h (2 Bft)
09.11.2019 07:24 2,2 °C 91 % 1009,7 hPa 0,0 mm 3,2 km/h (1 Bft) W 278 ° 0 min 0,000 mm 0,0 UV-I 0 W/m² 0,9 °C 2,2 °C 4,8 km/h (1 Bft)
09.11.2019 07:25 2,2 °C 91 % 1009,7 hPa 0,0 mm 4,7 km/h (1 Bft) SW 227 ° 0 min 0,000 mm 0,0 UV-I 0 W/m² 0,9 °C 1,0 °C 9,7 km/h (2 Bft)
09.11.2019 07:26 2,2 °C 91 % 1009,7 hPa 0,0 mm 6,8 km/h (2 Bft) W-SW 244 ° 0 min 0,000 mm 0,0 UV-I 0 W/m² 0,9 °C 0,2 °C 9,7 km/h (2 Bft)
09.11.2019 07:27 2,2 °C 91 % 1009,8 hPa 0,0 mm 8,9 km/h (2 Bft) W-NW 288 ° 0 min 0,000 mm 0,0 UV-I 0 W/m² 0,9 °C -0,4 °C 11,3 km/h (2 Bft)
09.11.2019 07:28 2,2 °C 91 % 1009,8 hPa 0,0 mm 8,9 km/h (2 Bft) W 261 ° 0 min 0,000 mm 0,0 UV-I 0 W/m² 0,9 °C -0,4 °C 12,9 km/h (3 Bft)
09.11.2019 07:29 2,3 °C 91 % 1009,8 hPa 0,0 mm 5,9 km/h (2 Bft) S-SW 207 ° 0 min 0,000 mm 0,0 UV-I 0 W/m² 1,0 °C 0,7 °C 8,0 km/h (2 Bft)
09.11.2019 07:30 2,3 °C 91 % 1009,8 hPa 0,0 mm 2,3 km/h (1 Bft) S-SW 213 ° 0 min 0,000 mm 0,0 UV-I 0 W/m² 1,0 °C 2,3 °C 6,4 km/h (2 Bft)
09.11.2019 07:31 2,3 °C 91 % 1009,8 hPa 0,0 mm 4,2 km/h (1 Bft) W-SW 250 ° 0 min 0,000 mm 0,0 UV-I 0 W/m² 1,0 °C 2,3 °C 6,4 km/h (2 Bft)
09.11.2019 07:32 2,3 °C 91 % 1009,8 hPa 0,0 mm 4,0 km/h (1 Bft) W-SW 248 ° 0 min 0,000 mm 0,0 UV-I 0 W/m² 1,0 °C 2,3 °C 4,8 km/h (1 Bft)
09.11.2019 07:33 2,2 °C 91 % 1009,8 hPa 0,0 mm 3,3 km/h (1 Bft) W 259 ° 0 min 0,000 mm 0,0 UV-I 0 W/m² 0,9 °C 2,2 °C 4,8 km/h (1 Bft)
09.11.2019 07:34 2,3 °C 91 % 1009,9 hPa 0,0 mm 2,7 km/h (1 Bft) W-SW 258 ° 0 min 0,000 mm 0,0 UV-I 0 W/m² 1,0 °C 2,3 °C 3,2 km/h (1 Bft)
09.11.2019 07:35 2,3 °C 91 % 1009,8 hPa 0,0 mm 4,3 km/h (1 Bft) S-SW 207 ° 0 min 0,000 mm 0,0 UV-I 0 W/m² 1,0 °C 2,3 °C 8,0 km/h (2 Bft)
09.11.2019 07:36 2,3 °C 91 % 1009,8 hPa 0,0 mm 3,0 km/h (1 Bft) W 272 ° 0 min 0,000 mm 0,0 UV-I 5 W/m² 1,0 °C 2,3 °C 4,8 km/h (1 Bft)
09.11.2019 07:37 2,3 °C 91 % 1009,9 hPa 0,0 mm 4,0 km/h (1 Bft) W 271 ° 0 min 0,000 mm 0,0 UV-I 5 W/m² 1,0 °C 2,3 °C 6,4 km/h (2 Bft)
09.11.2019 07:38 2,3 °C 91 % 1009,9 hPa 0,0 mm 3,9 km/h (1 Bft) W 278 ° 0 min 0,000 mm 0,0 UV-I 5 W/m² 1,0 °C 2,3 °C 6,4 km/h (2 Bft)
09.11.2019 07:39 2,2 °C 91 % 1009,9 hPa 0,0 mm 2,5 km/h (1 Bft) W 279 ° 0 min 0,000 mm 0,0 UV-I 5 W/m² 0,9 °C 2,2 °C 6,4 km/h (2 Bft)
09.11.2019 07:40 2,3 °C 91 % 1009,9 hPa 0,0 mm 3,9 km/h (1 Bft) W-SW 258 ° 0 min 0,000 mm 0,0 UV-I 5 W/m² 1,0 °C 2,3 °C 6,4 km/h (2 Bft)
09.11.2019 07:41 2,3 °C 91 % 1009,9 hPa 0,0 mm 5,0 km/h (1 Bft) W-SW 253 ° 0 min 0,000 mm 0,0 UV-I 5 W/m² 1,0 °C 1,0 °C 6,4 km/h (2 Bft)
09.11.2019 07:42 2,3 °C 91 % 1009,9 hPa 0,0 mm 3,5 km/h (1 Bft) W 259 ° 0 min 0,000 mm 0,0 UV-I 5 W/m² 1,0 °C 2,3 °C 6,4 km/h (2 Bft)
09.11.2019 07:43 2,3 °C 91 % 1010,0 hPa 0,0 mm 2,7 km/h (1 Bft) W 259 ° 0 min 0,000 mm 0,0 UV-I 7 W/m² 1,0 °C 2,3 °C 4,8 km/h (1 Bft)
09.11.2019 07:44 2,2 °C 91 % 1010,0 hPa 0,0 mm 3,4 km/h (1 Bft) W 259 ° 0 min 0,000 mm 0,0 UV-I 7 W/m² 0,9 °C 2,2 °C 4,8 km/h (1 Bft)
09.11.2019 07:45 2,2 °C 91 % 1010,0 hPa 0,0 mm 5,4 km/h (1 Bft) W 265 ° 0 min 0,000 mm 0,0 UV-I 7 W/m² 0,9 °C 0,7 °C 9,7 km/h (2 Bft)
09.11.2019 07:46 2,2 °C 91 % 1010,0 hPa 0,0 mm 5,2 km/h (1 Bft) W-SW 244 ° 0 min 0,000 mm 0,0 UV-I 7 W/m² 0,9 °C 0,8 °C 6,4 km/h (2 Bft)
09.11.2019 07:47 2,3 °C 91 % 1010,0 hPa 0,0 mm 4,0 km/h (1 Bft) W-SW 257 ° 0 min 0,000 mm 0,0 UV-I 7 W/m² 1,0 °C 2,3 °C 8,0 km/h (2 Bft)
09.11.2019 07:48 2,2 °C 91 % 1010,1 hPa 0,0 mm 4,2 km/h (1 Bft) W-SW 257 ° 0 min 0,000 mm 0,0 UV-I 7 W/m² 0,9 °C 2,2 °C 4,8 km/h (1 Bft)
09.11.2019 07:49 2,3 °C 91 % 1010,1 hPa 0,0 mm 5,9 km/h (2 Bft) W 275 ° 0 min 0,000 mm 0,0 UV-I 7 W/m² 1,0 °C 0,7 °C 9,7 km/h (2 Bft)
09.11.2019 07:50 2,3 °C 91 % 1010,1 hPa 0,0 mm 5,9 km/h (2 Bft) W 267 ° 0 min 0,000 mm 0,0 UV-I 7 W/m² 1,0 °C 0,7 °C 9,7 km/h (2 Bft)
09.11.2019 07:51 2,2 °C 91 % 1010,1 hPa 0,0 mm 2,3 km/h (1 Bft) W 267 ° 0 min 0,000 mm 0,0 UV-I 7 W/m² 0,9 °C 2,2 °C 4,8 km/h (1 Bft)
09.11.2019 07:52 2,3 °C 91 % 1010,1 hPa 0,0 mm 0,3 km/h (0 Bft) W 267 ° 0 min 0,000 mm 0,0 UV-I 7 W/m² 1,0 °C 2,3 °C 1,6 km/h (1 Bft)
09.11.2019 07:53 2,3 °C 91 % 1010,1 hPa 0,0 mm 1,7 km/h (1 Bft) W 267 ° 0 min 0,000 mm 0,0 UV-I 7 W/m² 1,0 °C 2,3 °C 3,2 km/h (1 Bft)
09.11.2019 07:54 2,3 °C 91 % 1010,1 hPa 0,0 mm 2,3 km/h (1 Bft) W 267 ° 0 min 0,000 mm 0,0 UV-I 7 W/m² 1,0 °C 2,3 °C 3,2 km/h (1 Bft)
09.11.2019 07:55 2,3 °C 91 % 1010,2 hPa 0,0 mm 1,5 km/h (1 Bft) W 267 ° 0 min 0,000 mm 0,0 UV-I 7 W/m² 1,0 °C 2,3 °C 3,2 km/h (1 Bft)
09.11.2019 07:56 2,3 °C 91 % 1010,2 hPa 0,0 mm 1,7 km/h (1 Bft) SW 232 ° 0 min 0,000 mm 0,0 UV-I 9 W/m² 1,0 °C 2,3 °C 6,4 km/h (2 Bft)
09.11.2019 07:57 2,2 °C 91 % 1010,1 hPa 0,0 mm 3,4 km/h (1 Bft) SW 235 ° 0 min 0,000 mm 0,0 UV-I 9 W/m² 0,9 °C 2,2 °C 4,8 km/h (1 Bft)
09.11.2019 07:58 2,3 °C 91 % 1010,2 hPa 0,0 mm 0,8 km/h (0 Bft) SW 235 ° 0 min 0,000 mm 0,0 UV-I 9 W/m² 1,0 °C 2,3 °C 1,6 km/h (1 Bft)
09.11.2019 07:59 2,3 °C 91 % 1010,2 hPa 0,0 mm 2,9 km/h (1 Bft) SW 235 ° 0 min 0,000 mm 0,0 UV-I 9 W/m² 1,0 °C 2,3 °C 4,8 km/h (1 Bft)
09.11.2019 08:00 2,3 °C 91 % 1010,2 hPa 0,0 mm 2,3 km/h (1 Bft) W-SW 248 ° 0 min 0,000 mm 0,0 UV-I 9 W/m² 1,0 °C 2,3 °C 3,2 km/h (1 Bft)
09.11.2019 08:01 2,3 °C 91 % 1010,2 hPa 0,0 mm 3,1 km/h (1 Bft) W-SW 248 ° 0 min 0,000 mm 0,0 UV-I 9 W/m² 1,0 °C 2,3 °C 4,8 km/h (1 Bft)
09.11.2019 08:02 2,3 °C 91 % 1010,3 hPa 0,0 mm 3,4 km/h (1 Bft) W-SW 257 ° 0 min 0,000 mm 0,0 UV-I 11 W/m² 1,0 °C 2,3 °C 6,4 km/h (2 Bft)
09.11.2019 08:03 2,3 °C 91 % 1010,3 hPa 0,0 mm 0,9 km/h (0 Bft) W-SW 255 ° 0 min 0,000 mm 0,0 UV-I 11 W/m² 1,0 °C 2,3 °C 3,2 km/h (1 Bft)
09.11.2019 08:04 2,3 °C 91 % 1010,3 hPa 0,0 mm 3,5 km/h (1 Bft) W 263 ° 0 min 0,000 mm 0,0 UV-I 11 W/m² 1,0 °C 2,3 °C 6,4 km/h (2 Bft)
09.11.2019 08:05 2,3 °C 91 % 1010,3 hPa 0,0 mm 5,2 km/h (1 Bft) W 277 ° 0 min 0,000 mm 0,0 UV-I 12 W/m² 1,0 °C 0,9 °C 8,0 km/h (2 Bft)
09.11.2019 08:06 2,3 °C 91 % 1010,3 hPa 0,0 mm 2,5 km/h (1 Bft) W 277 ° 0 min 0,000 mm 0,0 UV-I 12 W/m² 1,0 °C 2,3 °C 4,8 km/h (1 Bft)
09.11.2019 08:07 2,3 °C 91 % 1010,3 hPa 0,0 mm 4,4 km/h (1 Bft) SW 222 ° 0 min 0,000 mm 0,0 UV-I 14 W/m² 1,0 °C 2,3 °C 6,4 km/h (2 Bft)
09.11.2019 08:08 2,3 °C 91 % 1010,3 hPa 0,0 mm 6,7 km/h (2 Bft) W-NW 283 ° 0 min 0,000 mm 0,0 UV-I 14 W/m² 1,0 °C 0,4 °C 11,3 km/h (2 Bft)
09.11.2019 08:09 2,3 °C 91 % 1010,3 hPa 0,0 mm 4,6 km/h (1 Bft) W 270 ° 0 min 0,000 mm 0,0 UV-I 14 W/m² 1,0 °C 1,2 °C 6,4 km/h (2 Bft)
09.11.2019 08:10 2,3 °C 91 % 1010,4 hPa 0,0 mm 4,0 km/h (1 Bft) W 281 ° 0 min 0,000 mm 0,0 UV-I 14 W/m² 1,0 °C 2,3 °C 6,4 km/h (2 Bft)
09.11.2019 08:11 2,3 °C 91 % 1010,4 hPa 0,0 mm 2,4 km/h (1 Bft) W 281 ° 0 min 0,000 mm 0,0 UV-I 14 W/m² 1,0 °C 2,3 °C 3,2 km/h (1 Bft)
09.11.2019 08:12 2,3 °C 91 % 1010,4 hPa 0,0 mm 2,0 km/h (1 Bft) W 281 ° 0 min 0,000 mm 0,0 UV-I 14 W/m² 1,0 °C 2,3 °C 3,2 km/h (1 Bft)
09.11.2019 08:13 2,3 °C 91 % 1010,4 hPa 0,0 mm 3,2 km/h (1 Bft) W-NW 283 ° 0 min 0,000 mm 0,0 UV-I 14 W/m² 1,0 °C 2,3 °C 4,8 km/h (1 Bft)
09.11.2019 08:14 2,3 °C 91 % 1010,4 hPa 0,0 mm 4,1 km/h (1 Bft) W 259 ° 0 min 0,000 mm 0,0 UV-I 16 W/m² 1,0 °C 2,3 °C 6,4 km/h (2 Bft)
09.11.2019 08:15 2,3 °C 91 % 1010,4 hPa 0,0 mm 5,2 km/h (1 Bft) W 264 ° 0 min 0,000 mm 0,0 UV-I 16 W/m² 1,0 °C 0,9 °C 6,4 km/h (2 Bft)
09.11.2019 08:16 2,3 °C 91 % 1010,4 hPa 0,0 mm 2,5 km/h (1 Bft) W 265 ° 0 min 0,000 mm 0,0 UV-I 16 W/m² 1,0 °C 2,3 °C 3,2 km/h (1 Bft)
09.11.2019 08:17 2,3 °C 91 % 1010,4 hPa 0,0 mm 1,9 km/h (1 Bft) W 262 ° 0 min 0,000 mm 0,0 UV-I 14 W/m² 1,0 °C 2,3 °C 3,2 km/h (1 Bft)
09.11.2019 08:18 2,3 °C 91 % 1010,4 hPa 0,0 mm 2,7 km/h (1 Bft) W 263 ° 0 min 0,000 mm 0,0 UV-I 14 W/m² 1,0 °C 2,3 °C 3,2 km/h (1 Bft)
09.11.2019 08:19 2,3 °C 91 % 1010,4 hPa 0,0 mm 3,5 km/h (1 Bft) W 262 ° 0 min 0,000 mm 0,0 UV-I 16 W/m² 1,0 °C 2,3 °C 4,8 km/h (1 Bft)
09.11.2019 08:20 2,3 °C 91 % 1010,4 hPa 0,0 mm 2,1 km/h (1 Bft) W 262 ° 0 min 0,000 mm 0,0 UV-I 18 W/m² 1,0 °C 2,3 °C 3,2 km/h (1 Bft)
09.11.2019 08:21 2,3 °C 91 % 1010,4 hPa 0,0 mm 2,1 km/h (1 Bft) W 262 ° 0 min 0,000 mm 0,0 UV-I 19 W/m² 1,0 °C 2,3 °C 3,2 km/h (1 Bft)
09.11.2019 08:22 2,3 °C 91 % 1010,4 hPa 0,0 mm 2,6 km/h (1 Bft) W 262 ° 0 min 0,000 mm 0,0 UV-I 21 W/m² 1,0 °C 2,3 °C 3,2 km/h (1 Bft)
09.11.2019 08:23 2,3 °C 91 % 1010,4 hPa 0,0 mm 2,2 km/h (1 Bft) W 262 ° 0 min 0,000 mm 0,0 UV-I 21 W/m² 1,0 °C 2,3 °C 4,8 km/h (1 Bft)
09.11.2019 08:24 2,3 °C 91 % 1010,5 hPa 0,0 mm 3,3 km/h (1 Bft) W 262 ° 0 min 0,000 mm 0,0 UV-I 19 W/m² 1,0 °C 2,3 °C 4,8 km/h (1 Bft)
09.11.2019 08:25 2,3 °C 91 % 1010,5 hPa 0,0 mm 2,6 km/h (1 Bft) W 262 ° 0 min 0,000 mm 0,0 UV-I 19 W/m² 1,0 °C 2,3 °C 3,2 km/h (1 Bft)
09.11.2019 08:26 2,4 °C 91 % 1010,5 hPa 0,0 mm 2,2 km/h (1 Bft) W 262 ° 0 min 0,000 mm 0,0 UV-I 18 W/m² 1,1 °C 2,4 °C 3,2 km/h (1 Bft)
09.11.2019 08:27 2,4 °C 92 % 1010,5 hPa 0,0 mm 2,0 km/h (1 Bft) W 262 ° 0 min 0,000 mm 0,0 UV-I 18 W/m² 1,2 °C 2,4 °C 3,2 km/h (1 Bft)
09.11.2019 08:28 2,3 °C 92 % 1010,6 hPa 0,0 mm 3,5 km/h (1 Bft) W 262 ° 0 min 0,000 mm 0,0 UV-I 16 W/m² 1,1 °C 2,3 °C 4,8 km/h (1 Bft)
09.11.2019 08:29 2,4 °C 91 % 1010,6 hPa 0,0 mm 2,3 km/h (1 Bft) W 262 ° 0 min 0,000 mm 0,0 UV-I 14 W/m² 1,1 °C 2,4 °C 4,8 km/h (1 Bft)
09.11.2019 08:30 2,4 °C 92 % 1010,6 hPa 0,0 mm 0,3 km/h (0 Bft) W 262 ° 0 min 0,000 mm 0,0 UV-I 14 W/m² 1,2 °C 2,4 °C 1,6 km/h (1 Bft)
09.11.2019 08:31 2,4 °C 91 % 1010,5 hPa 0,0 mm 2,4 km/h (1 Bft) W 262 ° 0 min 0,000 mm 0,0 UV-I 14 W/m² 1,1 °C 2,4 °C 3,2 km/h (1 Bft)
09.11.2019 08:32 2,4 °C 92 % 1010,5 hPa 0,0 mm 3,1 km/h (1 Bft) W 262 ° 0 min 0,000 mm 0,0 UV-I 16 W/m² 1,2 °C 2,4 °C 4,8 km/h (1 Bft)
09.11.2019 08:33 2,4 °C 91 % 1010,6 hPa 0,0 mm 5,0 km/h (1 Bft) W 261 ° 0 min 0,000 mm 0,0 UV-I 16 W/m² 1,1 °C 1,1 °C 8,0 km/h (2 Bft)
09.11.2019 08:34 2,4 °C 92 % 1010,6 hPa 0,0 mm 2,0 km/h (1 Bft) W 260 ° 0 min 0,000 mm 0,0 UV-I 19 W/m² 1,2 °C 2,4 °C 4,8 km/h (1 Bft)
09.11.2019 08:35 2,4 °C 91 % 1010,6 hPa 0,0 mm 3,2 km/h (1 Bft) W 260 ° 0 min 0,000 mm 0,0 UV-I 21 W/m² 1,1 °C 2,4 °C 4,8 km/h (1 Bft)
09.11.2019 08:36 2,4 °C 91 % 1010,6 hPa 0,0 mm 3,6 km/h (1 Bft) W 262 ° 0 min 0,000 mm 0,0 UV-I 23 W/m² 1,1 °C 2,4 °C 6,4 km/h (2 Bft)
09.11.2019 08:37 2,4 °C 91 % 1010,6 hPa 0,0 mm 4,7 km/h (1 Bft) W-SW 245 ° 0 min 0,000 mm 0,0 UV-I 25 W/m² 1,1 °C 1,3 °C 6,4 km/h (2 Bft)
09.11.2019 08:38 2,4 °C 92 % 1010,6 hPa 0,0 mm 4,2 km/h (1 Bft) W 265 ° 0 min 0,000 mm 0,0 UV-I 26 W/m² 1,2 °C 2,4 °C 4,8 km/h (1 Bft)
09.11.2019 08:39 2,4 °C 91 % 1010,6 hPa 0,0 mm 2,2 km/h (1 Bft) W 265 ° 0 min 0,000 mm 0,0 UV-I 28 W/m² 1,1 °C 2,4 °C 4,8 km/h (1 Bft)
09.11.2019 08:40 2,4 °C 91 % 1010,6 hPa 0,0 mm 2,5 km/h (1 Bft) W 265 ° 0 min 0,000 mm 0,0 UV-I 28 W/m² 1,1 °C 2,4 °C 4,8 km/h (1 Bft)
09.11.2019 08:41 2,4 °C 91 % 1010,5 hPa 0,0 mm 3,0 km/h (1 Bft) W-NW 285 ° 0 min 0,000 mm 0,0 UV-I 23 W/m² 1,1 °C 2,4 °C 4,8 km/h (1 Bft)
09.11.2019 08:42 2,4 °C 91 % 1010,6 hPa 0,0 mm 4,6 km/h (1 Bft) NW 309 ° 0 min 0,000 mm 0,0 UV-I 19 W/m² 1,1 °C 1,3 °C 6,4 km/h (2 Bft)
09.11.2019 08:43 2,4 °C 92 % 1010,6 hPa 0,0 mm 5,2 km/h (1 Bft) W 275 ° 0 min 0,000 mm 0,0 UV-I 16 W/m² 1,2 °C 1,0 °C 9,7 km/h (2 Bft)
09.11.2019 08:44 2,5 °C 91 % 1010,6 hPa 0,0 mm 5,4 km/h (1 Bft) W-SW 246 ° 0 min 0,000 mm 0,0 UV-I 14 W/m² 1,2 °C 1,1 °C 11,3 km/h (2 Bft)
09.11.2019 08:45 2,5 °C 91 % 1010,6 hPa 0,0 mm 5,1 km/h (1 Bft) W-NW 294 ° 0 min 0,000 mm 0,0 UV-I 14 W/m² 1,2 °C 1,2 °C 6,4 km/h (2 Bft)
09.11.2019 08:46 2,5 °C 91 % 1010,7 hPa 0,0 mm 4,6 km/h (1 Bft) W-NW 298 ° 0 min 0,000 mm 0,0 UV-I 12 W/m² 1,2 °C 1,4 °C 6,4 km/h (2 Bft)
09.11.2019 08:47 2,5 °C 91 % 1010,7 hPa 0,0 mm 10,9 km/h (2 Bft) W-NW 291 ° 0 min 0,000 mm 0,0 UV-I 12 W/m² 1,2 °C -0,5 °C 14,5 km/h (3 Bft)
09.11.2019 08:48 2,4 °C 91 % 1010,7 hPa 0,0 mm 7,0 km/h (2 Bft) W-SW 251 ° 0 min 0,000 mm 0,0 UV-I 12 W/m² 1,1 °C 0,4 °C 11,3 km/h (2 Bft)
09.11.2019 08:49 2,5 °C 91 % 1010,7 hPa 0,0 mm 7,6 km/h (2 Bft) W 259 ° 0 min 0,000 mm 0,0 UV-I 12 W/m² 1,2 °C 0,3 °C 12,9 km/h (3 Bft)
09.11.2019 08:50 2,4 °C 91 % 1010,8 hPa 0,0 mm 8,6 km/h (2 Bft) W-SW 257 ° 0 min 0,000 mm 0,0 UV-I 14 W/m² 1,1 °C -0,1 °C 12,9 km/h (3 Bft)
09.11.2019 08:51 2,4 °C 91 % 1010,8 hPa 0,0 mm 11,3 km/h (2 Bft) W 259 ° 0 min 0,000 mm 0,0 UV-I 14 W/m² 1,1 °C -0,7 °C 12,9 km/h (3 Bft)
09.11.2019 08:52 2,4 °C 91 % 1010,8 hPa 0,0 mm 10,9 km/h (2 Bft) W-NW 290 ° 0 min 0,000 mm 0,0 UV-I 14 W/m² 1,1 °C -0,7 °C 12,9 km/h (3 Bft)
09.11.2019 08:53 2,4 °C 91 % 1010,8 hPa 0,0 mm 8,4 km/h (2 Bft) W-NW 302 ° 0 min 0,000 mm 0,0 UV-I 14 W/m² 1,1 °C -0,0 °C 12,9 km/h (3 Bft)
09.11.2019 08:54 2,4 °C 91 % 1010,8 hPa 0,0 mm 8,2 km/h (2 Bft) W-NW 282 ° 0 min 0,000 mm 0,0 UV-I 16 W/m² 1,1 °C 0,0 °C 12,9 km/h (3 Bft)
09.11.2019 08:55 2,4 °C 91 % 1010,8 hPa 0,0 mm 7,6 km/h (2 Bft) W 281 ° 0 min 0,000 mm 0,0 UV-I 18 W/m² 1,1 °C 0,2 °C 11,3 km/h (2 Bft)
09.11.2019 08:56 2,3 °C 91 % 1010,9 hPa 0,0 mm 10,0 km/h (2 Bft) W-NW 300 ° 0 min 0,000 mm 0,0 UV-I 19 W/m² 1,0 °C -0,6 °C 12,9 km/h (3 Bft)
09.11.2019 08:57 2,3 °C 91 % 1010,8 hPa 0,0 mm 8,4 km/h (2 Bft) W-NW 289 ° 0 min 0,000 mm 0,0 UV-I 23 W/m² 1,0 °C -0,2 °C 12,9 km/h (3 Bft)
09.11.2019 08:58 2,3 °C 91 % 1010,9 hPa 0,0 mm 5,6 km/h (1 Bft) W 275 ° 0 min 0,000 mm 0,0 UV-I 26 W/m² 1,0 °C 0,8 °C 9,7 km/h (2 Bft)
09.11.2019 08:59 2,2 °C 91 % 1010,9 hPa 0,0 mm 4,4 km/h (1 Bft) W-NW 291 ° 0 min 0,000 mm 0,0 UV-I 30 W/m² 0,9 °C 2,2 °C 6,4 km/h (2 Bft)
09.11.2019 09:00 2,2 °C 91 % 1010,9 hPa 0,0 mm 3,5 km/h (1 Bft) W-NW 288 ° 0 min 0,000 mm 0,0 UV-I 32 W/m² 0,9 °C 2,2 °C 4,8 km/h (1 Bft)
09.11.2019 09:01 2,2 °C 91 % 1010,9 hPa 0,0 mm 4,1 km/h (1 Bft) W 259 ° 0 min 0,000 mm 0,0 UV-I 33 W/m² 0,9 °C 2,2 °C 6,4 km/h (2 Bft)
09.11.2019 09:02 2,2 °C 91 % 1010,9 hPa 0,0 mm 8,9 km/h (2 Bft) W-SW 245 ° 0 min 0,000 mm 0,0 UV-I 37 W/m² 0,9 °C -0,4 °C 12,9 km/h (3 Bft)
09.11.2019 09:03 2,2 °C 91 % 1010,8 hPa 0,0 mm 5,2 km/h (1 Bft) W-SW 248 ° 0 min 0,000 mm 0,0 UV-I 44 W/m² 0,9 °C 0,8 °C 8,0 km/h (2 Bft)
09.11.2019 09:04 2,1 °C 91 % 1010,9 hPa 0,0 mm 3,9 km/h (1 Bft) W 263 ° 0 min 0,000 mm 0,0 UV-I 47 W/m² 0,8 °C 2,1 °C 4,8 km/h (1 Bft)
09.11.2019 09:05 2,1 °C 91 % 1010,9 hPa 0,0 mm 5,3 km/h (1 Bft) W 263 ° 0 min 0,000 mm 0,0 UV-I 49 W/m² 0,8 °C 0,7 °C 9,7 km/h (2 Bft)
09.11.2019 09:06 2,1 °C 91 % 1010,9 hPa 0,0 mm 7,4 km/h (2 Bft) W-SW 254 ° 0 min 0,000 mm 0,0 UV-I 51 W/m² 0,8 °C -0,1 °C 11,3 km/h (2 Bft)
09.11.2019 09:07 2,1 °C 91 % 1010,9 hPa 0,0 mm 5,4 km/h (1 Bft) W-SW 252 ° 0 min 0,000 mm 0,0 UV-I 53 W/m² 0,8 °C 0,6 °C 11,3 km/h (2 Bft)
09.11.2019 09:08 2,1 °C 91 % 1010,9 hPa 0,0 mm 3,6 km/h (1 Bft) W-SW 252 ° 0 min 0,000 mm 0,0 UV-I 54 W/m² 0,8 °C 2,1 °C 4,8 km/h (1 Bft)
09.11.2019 09:09 2,1 °C 91 % 1010,9 hPa 0,0 mm 4,2 km/h (1 Bft) SW 232 ° 0 min 0,000 mm 0,0 UV-I 53 W/m² 0,8 °C 2,1 °C 4,8 km/h (1 Bft)
09.11.2019 09:10 2,1 °C 91 % 1010,9 hPa 0,0 mm 3,1 km/h (1 Bft) SW 232 ° 0 min 0,000 mm 0,0 UV-I 53 W/m² 0,8 °C 2,1 °C 4,8 km/h (1 Bft)
09.11.2019 09:11 2,0 °C 91 % 1010,9 hPa 0,0 mm 9,4 km/h (2 Bft) W 259 ° 0 min 0,000 mm 0,0 UV-I 53 W/m² 0,7 °C -0,8 °C 11,3 km/h (2 Bft)
09.11.2019 09:12 2,0 °C 91 % 1010,9 hPa 0,0 mm 5,3 km/h (1 Bft) W 269 ° 0 min 0,000 mm 0,0 UV-I 53 W/m² 0,7 °C 0,6 °C 8,0 km/h (2 Bft)
09.11.2019 09:13 2,1 °C 91 % 1010,9 hPa 0,0 mm 4,6 km/h (1 Bft) W-SW 257 ° 0 min 0,000 mm 0,0 UV-I 53 W/m² 0,8 °C 1,0 °C 6,4 km/h (2 Bft)
09.11.2019 09:14 2,0 °C 92 % 1010,9 hPa 0,0 mm 6,4 km/h (2 Bft) W 270 ° 0 min 0,000 mm 0,0 UV-I 56 W/m² 0,8 °C 0,1 °C 9,7 km/h (2 Bft)
09.11.2019 09:15 2,0 °C 92 % 1010,9 hPa 0,0 mm 4,1 km/h (1 Bft) W 265 ° 0 min 0,000 mm 0,0 UV-I 56 W/m² 0,8 °C 2,0 °C 9,7 km/h (2 Bft)
09.11.2019 09:16 2,0 °C 92 % 1010,9 hPa 0,0 mm 5,1 km/h (1 Bft) W 265 ° 0 min 0,000 mm 0,0 UV-I 54 W/m² 0,8 °C 0,6 °C 9,7 km/h (2 Bft)
09.11.2019 09:17 2,0 °C 92 % 1011,0 hPa 0,0 mm 7,3 km/h (2 Bft) W-SW 240 ° 0 min 0,000 mm 0,0 UV-I 54 W/m² 0,8 °C -0,2 °C 12,9 km/h (3 Bft)
09.11.2019 09:18 2,1 °C 92 % 1010,9 hPa 0,0 mm 3,4 km/h (1 Bft) W-SW 248 ° 0 min 0,000 mm 0,0 UV-I 56 W/m² 0,9 °C 2,1 °C 6,4 km/h (2 Bft)
09.11.2019 09:19 2,1 °C 92 % 1010,9 hPa 0,0 mm 9,7 km/h (2 Bft) W-SW 254 ° 0 min 0,000 mm 0,0 UV-I 58 W/m² 0,9 °C -0,7 °C 12,9 km/h (3 Bft)
09.11.2019 09:20 2,0 °C 92 % 1010,9 hPa 0,0 mm 4,8 km/h (1 Bft) W-SW 254 ° 0 min 0,000 mm 0,0 UV-I 60 W/m² 0,8 °C 0,8 °C 6,4 km/h (2 Bft)
09.11.2019 09:21 2,1 °C 92 % 1010,9 hPa 0,0 mm 8,9 km/h (2 Bft) W 268 ° 0 min 0,000 mm 0,0 UV-I 65 W/m² 0,9 °C -0,5 °C 17,7 km/h (3 Bft)
09.11.2019 09:22 2,1 °C 92 % 1010,9 hPa 0,0 mm 5,3 km/h (1 Bft) W-SW 238 ° 0 min 0,000 mm 0,0 UV-I 69 W/m² 0,9 °C 0,7 °C 6,4 km/h (2 Bft)
09.11.2019 09:23 2,0 °C 92 % 1010,9 hPa 0,0 mm 9,1 km/h (2 Bft) W-SW 251 ° 0 min 0,000 mm 0,0 UV-I 70 W/m² 0,8 °C -0,7 °C 14,5 km/h (3 Bft)
09.11.2019 09:24 2,1 °C 92 % 1010,9 hPa 0,0 mm 3,2 km/h (1 Bft) W-SW 248 ° 0 min 0,000 mm 0,0 UV-I 72 W/m² 0,9 °C 2,1 °C 6,4 km/h (2 Bft)
09.11.2019 09:25 2,1 °C 92 % 1010,9 hPa 0,0 mm 6,6 km/h (2 Bft) W 274 ° 0 min 0,000 mm 0,5 UV-I 74 W/m² 0,9 °C 0,2 °C 12,9 km/h (3 Bft)
09.11.2019 09:26 2,1 °C 92 % 1010,9 hPa 0,0 mm 6,6 km/h (2 Bft) W-SW 241 ° 0 min 0,000 mm 0,5 UV-I 74 W/m² 0,9 °C 0,2 °C 11,3 km/h (2 Bft)
09.11.2019 09:27 2,1 °C 92 % 1010,9 hPa 0,0 mm 7,9 km/h (2 Bft) W-SW 253 ° 0 min 0,000 mm 0,5 UV-I 76 W/m² 0,9 °C -0,2 °C 14,5 km/h (3 Bft)
09.11.2019 09:28 2,1 °C 92 % 1010,9 hPa 0,0 mm 5,0 km/h (1 Bft) W 271 ° 0 min 0,000 mm 0,5 UV-I 76 W/m² 0,9 °C 0,8 °C 9,7 km/h (2 Bft)
09.11.2019 09:29 2,1 °C 92 % 1010,9 hPa 0,0 mm 7,8 km/h (2 Bft) W 264 ° 0 min 0,000 mm 0,5 UV-I 76 W/m² 0,9 °C -0,2 °C 11,3 km/h (2 Bft)
09.11.2019 09:30 2,1 °C 92 % 1010,9 hPa 0,0 mm 8,3 km/h (2 Bft) W-SW 254 ° 0 min 0,000 mm 0,5 UV-I 76 W/m² 0,9 °C -0,4 °C 11,3 km/h (2 Bft)
09.11.2019 09:31 2,1 °C 92 % 1010,9 hPa 0,0 mm 9,6 km/h (2 Bft) W-NW 287 ° 0 min 0,000 mm 0,5 UV-I 76 W/m² 0,9 °C -0,7 °C 14,5 km/h (3 Bft)
09.11.2019 09:32 2,1 °C 92 % 1010,9 hPa 0,0 mm 10,8 km/h (2 Bft) W 261 ° 0 min 0,000 mm 0,5 UV-I 76 W/m² 0,9 °C -1,0 °C 17,7 km/h (3 Bft)
09.11.2019 09:33 2,1 °C 92 % 1010,9 hPa 0,0 mm 12,6 km/h (3 Bft) W 261 ° 0 min 0,000 mm 0,5 UV-I 79 W/m² 0,9 °C -1,4 °C 19,3 km/h (3 Bft)
09.11.2019 09:34 2,1 °C 92 % 1010,9 hPa 0,0 mm 4,4 km/h (1 Bft) S-SW 202 ° 0 min 0,000 mm 0,5 UV-I 81 W/m² 0,9 °C 2,1 °C 11,3 km/h (2 Bft)
09.11.2019 09:35 2,1 °C 92 % 1010,9 hPa 0,0 mm 6,1 km/h (2 Bft) W 267 ° 0 min 0,000 mm 0,5 UV-I 84 W/m² 0,9 °C 0,4 °C 9,7 km/h (2 Bft)
09.11.2019 09:36 2,1 °C 92 % 1011,0 hPa 0,0 mm 6,6 km/h (2 Bft) W 263 ° 0 min 0,000 mm 0,6 UV-I 90 W/m² 0,9 °C 0,2 °C 11,3 km/h (2 Bft)
09.11.2019 09:37 2,1 °C 92 % 1011,0 hPa 0,0 mm 5,9 km/h (2 Bft) SW 218 ° 0 min 0,000 mm 0,6 UV-I 95 W/m² 0,9 °C 0,4 °C 9,7 km/h (2 Bft)
09.11.2019 09:38 2,1 °C 92 % 1011,0 hPa 0,0 mm 4,3 km/h (1 Bft) SW 227 ° 0 min 0,000 mm 0,6 UV-I 104 W/m² 0,9 °C 2,1 °C 6,4 km/h (2 Bft)
09.11.2019 09:39 2,2 °C 92 % 1011,0 hPa 0,0 mm 3,9 km/h (1 Bft) W 261 ° 0 min 0,000 mm 0,7 UV-I 114 W/m² 1,0 °C 2,2 °C 4,8 km/h (1 Bft)
09.11.2019 09:40 2,1 °C 92 % 1011,0 hPa 0,0 mm 7,1 km/h (2 Bft) W 269 ° 0 min 0,000 mm 0,7 UV-I 120 W/m² 0,9 °C 0,0 °C 12,9 km/h (3 Bft)
09.11.2019 09:41 2,2 °C 92 % 1011,0 hPa 0,0 mm 11,6 km/h (2 Bft) W 275 ° 0 min 0,000 mm 0,8 UV-I 127 W/m² 1,0 °C -1,1 °C 16,1 km/h (3 Bft)
09.11.2019 09:42 2,2 °C 92 % 1011,0 hPa 0,0 mm 10,3 km/h (2 Bft) W 280 ° 0 min 0,000 mm 0,8 UV-I 132 W/m² 1,0 °C -0,8 °C 12,9 km/h (3 Bft)
09.11.2019 09:43 2,2 °C 93 % 1010,9 hPa 0,0 mm 6,8 km/h (2 Bft) W-SW 250 ° 0 min 0,000 mm 0,8 UV-I 134 W/m² 1,2 °C 0,2 °C 9,7 km/h (2 Bft)
09.11.2019 09:44 2,2 °C 93 % 1011,0 hPa 0,0 mm 6,1 km/h (2 Bft) W-NW 286 ° 0 min 0,000 mm 0,8 UV-I 135 W/m² 1,2 °C 0,5 °C 12,9 km/h (3 Bft)
09.11.2019 09:45 2,3 °C 93 % 1011,0 hPa 0,0 mm 10,1 km/h (2 Bft) W 273 ° 0 min 0,000 mm 0,8 UV-I 137 W/m² 1,3 °C -0,6 °C 14,5 km/h (3 Bft)
09.11.2019 09:46 2,3 °C 93 % 1011,0 hPa 0,0 mm 8,8 km/h (2 Bft) W-SW 246 ° 0 min 0,000 mm 0,8 UV-I 139 W/m² 1,3 °C -0,3 °C 12,9 km/h (3 Bft)
09.11.2019 09:47 2,3 °C 93 % 1011,1 hPa 0,0 mm 5,6 km/h (1 Bft) W-SW 243 ° 0 min 0,000 mm 0,8 UV-I 141 W/m² 1,3 °C 0,8 °C 9,7 km/h (2 Bft)
09.11.2019 09:48 2,3 °C 93 % 1011,0 hPa 0,0 mm 5,6 km/h (1 Bft) SW 236 ° 0 min 0,000 mm 0,8 UV-I 141 W/m² 1,3 °C 0,8 °C 11,3 km/h (2 Bft)
09.11.2019 09:49 2,3 °C 93 % 1011,0 hPa 0,0 mm 4,9 km/h (1 Bft) SW 228 ° 0 min 0,000 mm 0,8 UV-I 139 W/m² 1,3 °C 1,1 °C 8,0 km/h (2 Bft)
09.11.2019 09:50 2,4 °C 93 % 1011,0 hPa 0,0 mm 6,5 km/h (2 Bft) W 263 ° 0 min 0,000 mm 0,8 UV-I 135 W/m² 1,4 °C 0,6 °C 12,9 km/h (3 Bft)
09.11.2019 09:51 2,4 °C 93 % 1011,0 hPa 0,0 mm 5,0 km/h (1 Bft) SW 229 ° 0 min 0,000 mm 0,8 UV-I 134 W/m² 1,4 °C 1,1 °C 11,3 km/h (2 Bft)
09.11.2019 09:52 2,4 °C 93 % 1011,1 hPa 0,0 mm 4,2 km/h (1 Bft) W-SW 245 ° 0 min 0,000 mm 0,8 UV-I 130 W/m² 1,4 °C 2,4 °C 6,4 km/h (2 Bft)
09.11.2019 09:53 2,4 °C 93 % 1011,1 hPa 0,0 mm 7,7 km/h (2 Bft) W 278 ° 0 min 0,000 mm 0,8 UV-I 128 W/m² 1,4 °C 0,2 °C 12,9 km/h (3 Bft)
09.11.2019 09:54 2,4 °C 93 % 1011,1 hPa 0,0 mm 9,0 km/h (2 Bft) W-NW 297 ° 0 min 0,000 mm 0,8 UV-I 127 W/m² 1,4 °C -0,2 °C 12,9 km/h (3 Bft)
09.11.2019 09:55 2,5 °C 93 % 1011,1 hPa 0,0 mm 8,0 km/h (2 Bft) W 260 ° 0 min 0,000 mm 0,8 UV-I 127 W/m² 1,5 °C 0,2 °C 12,9 km/h (3 Bft)
09.11.2019 09:56 2,5 °C 93 % 1011,1 hPa 0,0 mm 10,5 km/h (2 Bft) W-SW 237 ° 0 min 0,000 mm 0,8 UV-I 127 W/m² 1,5 °C -0,4 °C 14,5 km/h (3 Bft)
09.11.2019 09:57 2,6 °C 93 % 1011,1 hPa 0,0 mm 6,1 km/h (2 Bft) SW 231 ° 0 min 0,000 mm 0,9 UV-I 127 W/m² 1,6 °C 0,9 °C 11,3 km/h (2 Bft)
09.11.2019 09:58 2,6 °C 93 % 1011,1 hPa 0,0 mm 8,0 km/h (2 Bft) W-NW 288 ° 0 min 0,000 mm 0,9 UV-I 128 W/m² 1,6 °C 0,3 °C 12,9 km/h (3 Bft)
09.11.2019 09:59 2,5 °C 93 % 1011,1 hPa 0,0 mm 8,8 km/h (2 Bft) W-SW 242 ° 0 min 0,000 mm 0,9 UV-I 132 W/m² 1,5 °C -0,0 °C 14,5 km/h (3 Bft)
09.11.2019 10:00 2,6 °C 93 % 1011,1 hPa 0,0 mm 4,4 km/h (1 Bft) W-NW 288 ° 0 min 0,000 mm 0,9 UV-I 132 W/m² 1,6 °C 2,6 °C 11,3 km/h (2 Bft)
09.11.2019 10:01 2,6 °C 93 % 1011,1 hPa 0,0 mm 3,3 km/h (1 Bft) W-NW 284 ° 0 min 0,025 mm 0,9 UV-I 134 W/m² 1,6 °C 2,6 °C 6,4 km/h (2 Bft)
09.11.2019 10:02 2,6 °C 93 % 1011,1 hPa 0,0 mm 2,8 km/h (1 Bft) NW 304 ° 0 min 0,000 mm 0,9 UV-I 134 W/m² 1,6 °C 2,6 °C 4,8 km/h (1 Bft)
09.11.2019 10:03 2,7 °C 93 % 1011,1 hPa 0,0 mm 5,4 km/h (1 Bft) W-SW 257 ° 0 min 0,000 mm 0,9 UV-I 135 W/m² 1,7 °C 1,3 °C 8,0 km/h (2 Bft)
09.11.2019 10:04 2,7 °C 93 % 1011,2 hPa 0,0 mm 5,2 km/h (1 Bft) W-SW 240 ° 0 min 0,000 mm 1,0 UV-I 141 W/m² 1,7 °C 1,4 °C 9,7 km/h (2 Bft)
09.11.2019 10:05 2,7 °C 93 % 1011,2 hPa 0,0 mm 7,2 km/h (2 Bft) S-SW 209 ° 0 min 0,000 mm 1,0 UV-I 144 W/m² 1,7 °C 0,7 °C 16,1 km/h (3 Bft)
09.11.2019 10:06 2,7 °C 93 % 1011,2 hPa 0,0 mm 5,0 km/h (1 Bft) W-SW 250 ° 0 min 0,000 mm 1,0 UV-I 146 W/m² 1,7 °C 1,5 °C 9,7 km/h (2 Bft)
09.11.2019 10:07 2,7 °C 93 % 1011,2 hPa 0,0 mm 4,2 km/h (1 Bft) W 273 ° 0 min 0,000 mm 1,0 UV-I 148 W/m² 1,7 °C 2,7 °C 6,4 km/h (2 Bft)
09.11.2019 10:08 2,7 °C 93 % 1011,2 hPa 0,0 mm 2,7 km/h (1 Bft) W 266 ° 0 min 0,000 mm 1,0 UV-I 148 W/m² 1,7 °C 2,7 °C 4,8 km/h (1 Bft)
09.11.2019 10:09 2,8 °C 93 % 1011,2 hPa 0,0 mm 3,6 km/h (1 Bft) W 265 ° 0 min 0,000 mm 1,0 UV-I 148 W/m² 1,8 °C 2,8 °C 4,8 km/h (1 Bft)
09.11.2019 10:10 2,8 °C 93 % 1011,2 hPa 0,0 mm 2,7 km/h (1 Bft) W 269 ° 0 min 0,000 mm 1,0 UV-I 146 W/m² 1,8 °C 2,8 °C 4,8 km/h (1 Bft)
09.11.2019 10:11 2,9 °C 93 % 1011,2 hPa 0,0 mm 6,7 km/h (2 Bft) SW 229 ° 0 min 0,000 mm 1,0 UV-I 146 W/m² 1,9 °C 1,1 °C 11,3 km/h (2 Bft)
09.11.2019 10:12 2,9 °C 93 % 1011,2 hPa 0,0 mm 3,1 km/h (1 Bft) W-SW 247 ° 0 min 0,000 mm 1,0 UV-I 148 W/m² 1,9 °C 2,9 °C 4,8 km/h (1 Bft)
09.11.2019 10:13 2,9 °C 93 % 1011,2 hPa 0,0 mm 6,2 km/h (2 Bft) W-SW 246 ° 0 min 0,000 mm 1,0 UV-I 148 W/m² 1,9 °C 1,2 °C 11,3 km/h (2 Bft)
09.11.2019 10:14 3,0 °C 93 % 1011,2 hPa 0,0 mm 6,6 km/h (2 Bft) W-SW 250 ° 0 min 0,000 mm 1,0 UV-I 151 W/m² 2,0 °C 1,2 °C 9,7 km/h (2 Bft)
09.11.2019 10:15 3,0 °C 93 % 1011,2 hPa 0,0 mm 6,8 km/h (2 Bft) W-SW 244 ° 0 min 0,000 mm 1,0 UV-I 153 W/m² 2,0 °C 1,1 °C 12,9 km/h (3 Bft)
09.11.2019 10:16 3,0 °C 93 % 1011,2 hPa 0,0 mm 4,7 km/h (1 Bft) S-SW 205 ° 0 min 0,000 mm 1,0 UV-I 153 W/m² 2,0 °C 1,9 °C 8,0 km/h (2 Bft)
09.11.2019 10:17 3,0 °C 93 % 1011,2 hPa 0,0 mm 4,3 km/h (1 Bft) W 266 ° 0 min 0,000 mm 1,1 UV-I 155 W/m² 2,0 °C 3,0 °C 6,4 km/h (2 Bft)
09.11.2019 10:18 3,0 °C 93 % 1011,2 hPa 0,0 mm 6,0 km/h (2 Bft) W-SW 237 ° 0 min 0,000 mm 1,1 UV-I 155 W/m² 2,0 °C 1,4 °C 9,7 km/h (2 Bft)
09.11.2019 10:19 3,1 °C 93 % 1011,2 hPa 0,0 mm 5,6 km/h (1 Bft) SW 225 ° 0 min 0,000 mm 1,1 UV-I 153 W/m² 2,1 °C 1,7 °C 8,0 km/h (2 Bft)
09.11.2019 10:20 3,1 °C 93 % 1011,3 hPa 0,0 mm 6,0 km/h (2 Bft) W-SW 245 ° 0 min 0,000 mm 1,1 UV-I 151 W/m² 2,1 °C 1,5 °C 9,7 km/h (2 Bft)
09.11.2019 10:21 3,1 °C 92 % 1011,2 hPa 0,0 mm 5,1 km/h (1 Bft) W 272 ° 0 min 0,000 mm 1,0 UV-I 149 W/m² 1,9 °C 1,9 °C 9,7 km/h (2 Bft)
09.11.2019 10:22 3,1 °C 92 % 1011,2 hPa 0,0 mm 1,8 km/h (1 Bft) W 272 ° 0 min 0,000 mm 1,1 UV-I 148 W/m² 1,9 °C 3,1 °C 3,2 km/h (1 Bft)
09.11.2019 10:23 3,1 °C 92 % 1011,2 hPa 0,0 mm 8,6 km/h (2 Bft) W 274 ° 0 min 0,000 mm 1,1 UV-I 146 W/m² 1,9 °C 0,7 °C 14,5 km/h (3 Bft)
09.11.2019 10:24 3,1 °C 92 % 1011,2 hPa 0,0 mm 8,6 km/h (2 Bft) SW 223 ° 0 min 0,000 mm 1,1 UV-I 146 W/m² 1,9 °C 0,7 °C 12,9 km/h (3 Bft)
09.11.2019 10:25 3,1 °C 92 % 1011,3 hPa 0,0 mm 5,9 km/h (2 Bft) W 271 ° 0 min 0,000 mm 1,1 UV-I 148 W/m² 1,9 °C 1,6 °C 9,7 km/h (2 Bft)
09.11.2019 10:26 3,1 °C 92 % 1011,3 hPa 0,0 mm 10,5 km/h (2 Bft) W 273 ° 0 min 0,000 mm 1,1 UV-I 149 W/m² 1,9 °C 0,3 °C 16,1 km/h (3 Bft)
09.11.2019 10:27 3,1 °C 92 % 1011,3 hPa 0,0 mm 12,3 km/h (3 Bft) W 268 ° 0 min 0,000 mm 1,1 UV-I 149 W/m² 1,9 °C -0,1 °C 16,1 km/h (3 Bft)
09.11.2019 10:28 3,1 °C 92 % 1011,3 hPa 0,0 mm 10,1 km/h (2 Bft) W 260 ° 0 min 0,000 mm 1,1 UV-I 153 W/m² 1,9 °C 0,4 °C 12,9 km/h (3 Bft)
09.11.2019 10:29 3,1 °C 92 % 1011,3 hPa 0,0 mm 7,4 km/h (2 Bft) W-NW 283 ° 0 min 0,000 mm 1,1 UV-I 156 W/m² 1,9 °C 1,1 °C 11,3 km/h (2 Bft)
09.11.2019 10:30 3,1 °C 92 % 1011,3 hPa 0,0 mm 8,3 km/h (2 Bft) W-SW 242 ° 0 min 0,000 mm 1,1 UV-I 160 W/m² 1,9 °C 0,8 °C 14,5 km/h (3 Bft)
09.11.2019 10:31 3,1 °C 92 % 1011,3 hPa 0,0 mm 4,2 km/h (1 Bft) W-SW 239 ° 0 min 0,000 mm 1,1 UV-I 165 W/m² 1,9 °C 3,1 °C 8,0 km/h (2 Bft)
09.11.2019 10:32 3,2 °C 92 % 1011,3 hPa 0,0 mm 0,8 km/h (0 Bft) W-SW 239 ° 0 min 0,000 mm 1,1 UV-I 169 W/m² 2,0 °C 3,2 °C 4,8 km/h (1 Bft)
09.11.2019 10:33 3,2 °C 92 % 1011,3 hPa 0,0 mm 4,2 km/h (1 Bft) W-SW 252 ° 0 min 0,000 mm 1,1 UV-I 171 W/m² 2,0 °C 3,2 °C 6,4 km/h (2 Bft)
09.11.2019 10:34 3,2 °C 92 % 1011,4 hPa 0,0 mm 6,9 km/h (2 Bft) W 261 ° 0 min 0,000 mm 1,1 UV-I 174 W/m² 2,0 °C 1,3 °C 12,9 km/h (3 Bft)
09.11.2019 10:35 3,3 °C 92 % 1011,3 hPa 0,0 mm 5,0 km/h (1 Bft) W-NW 299 ° 0 min 0,000 mm 1,1 UV-I 174 W/m² 2,1 °C 2,2 °C 6,4 km/h (2 Bft)
09.11.2019 10:36 3,3 °C 92 % 1011,3 hPa 0,0 mm 5,8 km/h (2 Bft) NW 315 ° 0 min 0,000 mm 1,1 UV-I 179 W/m² 2,1 °C 1,8 °C 11,3 km/h (2 Bft)
09.11.2019 10:37 3,3 °C 92 % 1011,4 hPa 0,0 mm 2,5 km/h (1 Bft) W-NW 300 ° 0 min 0,000 mm 1,1 UV-I 176 W/m² 2,1 °C 3,3 °C 4,8 km/h (1 Bft)
09.11.2019 10:38 3,3 °C 92 % 1011,3 hPa 0,0 mm 5,4 km/h (1 Bft) W-NW 289 ° 0 min 0,000 mm 1,1 UV-I 179 W/m² 2,1 °C 2,0 °C 9,7 km/h (2 Bft)
09.11.2019 10:39 3,3 °C 92 % 1011,3 hPa 0,0 mm 2,1 km/h (1 Bft) W-NW 285 ° 0 min 0,000 mm 1,0 UV-I 181 W/m² 2,1 °C 3,3 °C 4,8 km/h (1 Bft)
09.11.2019 10:40 3,4 °C 92 % 1011,3 hPa 0,0 mm 7,4 km/h (2 Bft) W-NW 283 ° 0 min 0,000 mm 1,0 UV-I 178 W/m² 2,2 °C 1,4 °C 11,3 km/h (2 Bft)
09.11.2019 10:41 3,5 °C 92 % 1011,3 hPa 0,0 mm 3,9 km/h (1 Bft) W-NW 288 ° 0 min 0,000 mm 1,0 UV-I 172 W/m² 2,3 °C 3,5 °C 9,7 km/h (2 Bft)
09.11.2019 10:42 3,5 °C 92 % 1011,4 hPa 0,0 mm 4,1 km/h (1 Bft) W 259 ° 0 min 0,000 mm 1,0 UV-I 165 W/m² 2,3 °C 3,5 °C 6,4 km/h (2 Bft)
09.11.2019 10:43 3,6 °C 92 % 1011,4 hPa 0,0 mm 7,4 km/h (2 Bft) W-NW 283 ° 0 min 0,000 mm 1,0 UV-I 172 W/m² 2,4 °C 1,7 °C 12,9 km/h (3 Bft)
09.11.2019 10:44 3,6 °C 92 % 1011,4 hPa 0,0 mm 5,4 km/h (1 Bft) W-NW 291 ° 0 min 0,000 mm 1,1 UV-I 179 W/m² 2,4 °C 2,3 °C 9,7 km/h (2 Bft)
09.11.2019 10:45 3,6 °C 92 % 1011,4 hPa 0,0 mm 6,7 km/h (2 Bft) W 280 ° 0 min 0,000 mm 1,1 UV-I 186 W/m² 2,4 °C 1,9 °C 11,3 km/h (2 Bft)
09.11.2019 10:46 3,6 °C 92 % 1011,4 hPa 0,0 mm 6,3 km/h (2 Bft) W 268 ° 0 min 0,000 mm 1,1 UV-I 190 W/m² 2,4 °C 2,0 °C 11,3 km/h (2 Bft)
09.11.2019 10:47 3,6 °C 91 % 1011,4 hPa 0,0 mm 9,0 km/h (2 Bft) W 266 ° 0 min 0,000 mm 1,0 UV-I 186 W/m² 2,3 °C 1,2 °C 14,5 km/h (3 Bft)
09.11.2019 10:48 3,6 °C 91 % 1011,4 hPa 0,0 mm 10,3 km/h (2 Bft) W-NW 296 ° 0 min 0,000 mm 1,0 UV-I 174 W/m² 2,3 °C 0,9 °C 12,9 km/h (3 Bft)
09.11.2019 10:49 3,6 °C 91 % 1011,5 hPa 0,0 mm 6,9 km/h (2 Bft) W-NW 294 ° 0 min 0,000 mm 0,9 UV-I 158 W/m² 2,3 °C 1,8 °C 12,9 km/h (3 Bft)
09.11.2019 10:50 3,6 °C 91 % 1011,5 hPa 0,0 mm 8,5 km/h (2 Bft) SW 217 ° 0 min 0,000 mm 0,9 UV-I 153 W/m² 2,3 °C 1,4 °C 12,9 km/h (3 Bft)
09.11.2019 10:51 3,6 °C 91 % 1011,5 hPa 0,0 mm 7,4 km/h (2 Bft) SW 219 ° 0 min 0,000 mm 0,8 UV-I 146 W/m² 2,3 °C 1,7 °C 11,3 km/h (2 Bft)
09.11.2019 10:52 3,6 °C 91 % 1011,5 hPa 0,0 mm 4,6 km/h (1 Bft) W 264 ° 0 min 0,000 mm 0,8 UV-I 137 W/m² 2,3 °C 2,7 °C 6,4 km/h (2 Bft)
09.11.2019 10:53 3,6 °C 91 % 1011,5 hPa 0,0 mm 11,1 km/h (2 Bft) W 280 ° 0 min 0,000 mm 0,7 UV-I 130 W/m² 2,3 °C 0,7 °C 16,1 km/h (3 Bft)
09.11.2019 10:54 3,6 °C 91 % 1011,4 hPa 0,0 mm 5,3 km/h (1 Bft) W-SW 247 ° 0 min 0,000 mm 0,7 UV-I 125 W/m² 2,3 °C 2,4 °C 6,4 km/h (2 Bft)
09.11.2019 10:55 3,6 °C 91 % 1011,5 hPa 0,0 mm 4,4 km/h (1 Bft) W 268 ° 0 min 0,000 mm 0,7 UV-I 125 W/m² 2,3 °C 3,6 °C 6,4 km/h (2 Bft)
09.11.2019 10:56 3,6 °C 91 % 1011,5 hPa 0,0 mm 6,7 km/h (2 Bft) W 273 ° 0 min 0,000 mm 0,7 UV-I 125 W/m² 2,3 °C 1,9 °C 14,5 km/h (3 Bft)
09.11.2019 10:57 3,6 °C 91 % 1011,5 hPa 0,0 mm 12,5 km/h (3 Bft) W 261 ° 0 min 0,000 mm 0,8 UV-I 127 W/m² 2,3 °C 0,5 °C 16,1 km/h (3 Bft)
09.11.2019 10:58 3,6 °C 91 % 1011,5 hPa 0,0 mm 8,7 km/h (2 Bft) W 269 ° 0 min 0,000 mm 0,8 UV-I 132 W/m² 2,3 °C 1,3 °C 17,7 km/h (3 Bft)
09.11.2019 10:59 3,6 °C 91 % 1011,5 hPa 0,0 mm 7,4 km/h (2 Bft) NW 313 ° 0 min 0,000 mm 0,8 UV-I 135 W/m² 2,3 °C 1,7 °C 11,3 km/h (2 Bft)
09.11.2019 11:00 3,6 °C 91 % 1011,5 hPa 0,0 mm 7,2 km/h (2 Bft) W-NW 284 ° 0 min 0,000 mm 0,9 UV-I 141 W/m² 2,3 °C 1,7 °C 11,3 km/h (2 Bft)
09.11.2019 11:01 3,6 °C 91 % 1011,5 hPa 0,0 mm 8,4 km/h (2 Bft) W-SW 246 ° 0 min 0,051 mm 0,9 UV-I 149 W/m² 2,3 °C 1,4 °C 12,9 km/h (3 Bft)
09.11.2019 11:02 3,6 °C 91 % 1011,5 hPa 0,0 mm 10,9 km/h (2 Bft) W-NW 298 ° 0 min 0,000 mm 0,9 UV-I 148 W/m² 2,3 °C 0,8 °C 12,9 km/h (3 Bft)
09.11.2019 11:03 3,6 °C 90 % 1011,5 hPa 0,0 mm 5,8 km/h (2 Bft) W 259 ° 0 min 0,000 mm 0,9 UV-I 148 W/m² 2,1 °C 2,2 °C 9,7 km/h (2 Bft)
09.11.2019 11:04 3,6 °C 91 % 1011,5 hPa 0,0 mm 6,1 km/h (2 Bft) W-NW 283 ° 0 min 0,000 mm 0,9 UV-I 149 W/m² 2,3 °C 2,1 °C 8,0 km/h (2 Bft)
09.11.2019 11:05 3,6 °C 91 % 1011,4 hPa 0,0 mm 8,0 km/h (2 Bft) W 269 ° 0 min 0,000 mm 0,9 UV-I 149 W/m² 2,3 °C 1,5 °C 12,9 km/h (3 Bft)
09.11.2019 11:06 3,6 °C 90 % 1011,5 hPa 0,0 mm 6,8 km/h (2 Bft) W-SW 241 ° 0 min 0,000 mm 0,9 UV-I 149 W/m² 2,1 °C 1,8 °C 11,3 km/h (2 Bft)
09.11.2019 11:07 3,6 °C 91 % 1011,5 hPa 0,0 mm 8,9 km/h (2 Bft) SW 225 ° 0 min 0,000 mm 0,9 UV-I 151 W/m² 2,3 °C 1,3 °C 14,5 km/h (3 Bft)
09.11.2019 11:08 3,6 °C 90 % 1011,5 hPa 0,0 mm 9,1 km/h (2 Bft) SW 221 ° 0 min 0,000 mm 0,9 UV-I 153 W/m² 2,1 °C 1,2 °C 14,5 km/h (3 Bft)
09.11.2019 11:09 3,6 °C 90 % 1011,5 hPa 0,0 mm 10,1 km/h (2 Bft) W-NW 285 ° 0 min 0,000 mm 0,9 UV-I 156 W/m² 2,1 °C 1,0 °C 14,5 km/h (3 Bft)
09.11.2019 11:10 3,6 °C 90 % 1011,5 hPa 0,0 mm 6,8 km/h (2 Bft) W 261 ° 0 min 0,000 mm 0,9 UV-I 162 W/m² 2,1 °C 1,8 °C 11,3 km/h (2 Bft)
09.11.2019 11:11 3,6 °C 90 % 1011,4 hPa 0,0 mm 7,9 km/h (2 Bft) W-NW 296 ° 0 min 0,000 mm 1,0 UV-I 165 W/m² 2,1 °C 1,5 °C 11,3 km/h (2 Bft)
09.11.2019 11:12 3,7 °C 90 % 1011,5 hPa 0,0 mm 5,4 km/h (1 Bft) W 259 ° 0 min 0,000 mm 1,0 UV-I 169 W/m² 2,2 °C 2,4 °C 9,7 km/h (2 Bft)
09.11.2019 11:13 3,7 °C 90 % 1011,5 hPa 0,0 mm 4,7 km/h (1 Bft) W 273 ° 0 min 0,000 mm 1,0 UV-I 172 W/m² 2,2 °C 2,7 °C 9,7 km/h (2 Bft)
09.11.2019 11:14 3,7 °C 91 % 1011,4 hPa 0,0 mm 6,9 km/h (2 Bft) W-NW 293 ° 0 min 0,000 mm 1,1 UV-I 176 W/m² 2,4 °C 1,9 °C 12,9 km/h (3 Bft)
09.11.2019 11:15 3,8 °C 91 % 1011,4 hPa 0,0 mm 9,9 km/h (2 Bft) W-SW 251 ° 0 min 0,000 mm 1,1 UV-I 179 W/m² 2,5 °C 1,2 °C 14,5 km/h (3 Bft)
09.11.2019 11:16 3,8 °C 91 % 1011,4 hPa 0,0 mm 12,5 km/h (3 Bft) W 264 ° 0 min 0,000 mm 1,1 UV-I 179 W/m² 2,5 °C 0,7 °C 16,1 km/h (3 Bft)
09.11.2019 11:17 3,7 °C 90 % 1011,4 hPa 0,0 mm 6,1 km/h (2 Bft) W-SW 246 ° 0 min 0,000 mm 1,1 UV-I 176 W/m² 2,2 °C 2,2 °C 9,7 km/h (2 Bft)
09.11.2019 11:18 3,8 °C 90 % 1011,5 hPa 0,0 mm 6,6 km/h (2 Bft) W 279 ° 0 min 0,000 mm 1,0 UV-I 169 W/m² 2,3 °C 2,1 °C 11,3 km/h (2 Bft)
09.11.2019 11:19 3,8 °C 90 % 1011,4 hPa 0,0 mm 6,2 km/h (2 Bft) W-NW 287 ° 0 min 0,000 mm 1,0 UV-I 165 W/m² 2,3 °C 2,3 °C 11,3 km/h (2 Bft)
09.11.2019 11:20 3,8 °C 91 % 1011,4 hPa 0,0 mm 6,9 km/h (2 Bft) W 267 ° 0 min 0,000 mm 1,0 UV-I 165 W/m² 2,5 °C 2,0 °C 12,9 km/h (3 Bft)
09.11.2019 11:21 3,8 °C 90 % 1011,5 hPa 0,0 mm 8,9 km/h (2 Bft) W-NW 303 ° 0 min 0,000 mm 1,0 UV-I 171 W/m² 2,3 °C 1,5 °C 14,5 km/h (3 Bft)
09.11.2019 11:22 3,8 °C 90 % 1011,4 hPa 0,0 mm 8,9 km/h (2 Bft) W 273 ° 0 min 0,000 mm 1,1 UV-I 174 W/m² 2,3 °C 1,5 °C 16,1 km/h (3 Bft)
09.11.2019 11:23 3,8 °C 90 % 1011,4 hPa 0,0 mm 8,6 km/h (2 Bft) W-SW 237 ° 0 min 0,000 mm 1,1 UV-I 179 W/m² 2,3 °C 1,6 °C 12,9 km/h (3 Bft)
09.11.2019 11:24 3,8 °C 90 % 1011,4 hPa 0,0 mm 4,7 km/h (1 Bft) W-SW 256 ° 0 min 0,000 mm 1,1 UV-I 181 W/m² 2,3 °C 2,8 °C 8,0 km/h (2 Bft)
09.11.2019 11:25 3,9 °C 90 % 1011,5 hPa 0,0 mm 8,0 km/h (2 Bft) W 261 ° 0 min 0,000 mm 1,1 UV-I 179 W/m² 2,4 °C 1,8 °C 12,9 km/h (3 Bft)
09.11.2019 11:26 3,9 °C 90 % 1011,4 hPa 0,0 mm 9,5 km/h (2 Bft) W 279 ° 0 min 0,000 mm 1,0 UV-I 174 W/m² 2,4 °C 1,5 °C 16,1 km/h (3 Bft)
09.11.2019 11:27 3,8 °C 90 % 1011,5 hPa 0,0 mm 9,9 km/h (2 Bft) W-NW 303 ° 0 min 0,000 mm 1,0 UV-I 169 W/m² 2,3 °C 1,2 °C 14,5 km/h (3 Bft)
09.11.2019 11:28 3,8 °C 89 % 1011,4 hPa 0,0 mm 9,8 km/h (2 Bft) W-NW 302 ° 0 min 0,000 mm 1,0 UV-I 162 W/m² 2,2 °C 1,3 °C 14,5 km/h (3 Bft)
09.11.2019 11:29 3,8 °C 89 % 1011,4 hPa 0,0 mm 8,0 km/h (2 Bft) W-SW 240 ° 0 min 0,000 mm 1,0 UV-I 158 W/m² 2,2 °C 1,7 °C 12,9 km/h (3 Bft)
09.11.2019 11:30 3,8 °C 89 % 1011,4 hPa 0,0 mm 4,8 km/h (1 Bft) W 275 ° 0 min 0,000 mm 0,9 UV-I 148 W/m² 2,2 °C 2,8 °C 9,7 km/h (2 Bft)
09.11.2019 11:31 3,9 °C 89 % 1011,4 hPa 0,0 mm 7,6 km/h (2 Bft) SW 223 ° 0 min 0,000 mm 0,9 UV-I 141 W/m² 2,3 °C 2,0 °C 14,5 km/h (3 Bft)
09.11.2019 11:32 3,8 °C 90 % 1011,4 hPa 0,0 mm 11,0 km/h (2 Bft) W 267 ° 0 min 0,000 mm 0,8 UV-I 134 W/m² 2,3 °C 1,0 °C 14,5 km/h (3 Bft)
09.11.2019 11:33 3,8 °C 89 % 1011,4 hPa 0,0 mm 7,9 km/h (2 Bft) SW 231 ° 0 min 0,000 mm 0,8 UV-I 128 W/m² 2,2 °C 1,8 °C 11,3 km/h (2 Bft)
09.11.2019 11:34 3,8 °C 89 % 1011,4 hPa 0,0 mm 9,2 km/h (2 Bft) W 276 ° 0 min 0,000 mm 0,8 UV-I 123 W/m² 2,2 °C 1,4 °C 12,9 km/h (3 Bft)
09.11.2019 11:35 3,8 °C 89 % 1011,4 hPa 0,0 mm 10,7 km/h (2 Bft) W 277 ° 0 min 0,000 mm 0,8 UV-I 121 W/m² 2,2 °C 1,1 °C 17,7 km/h (3 Bft)
09.11.2019 11:36 3,8 °C 88 % 1011,4 hPa 0,0 mm 10,9 km/h (2 Bft) W 269 ° 0 min 0,000 mm 0,8 UV-I 120 W/m² 2,0 °C 1,0 °C 16,1 km/h (3 Bft)
09.11.2019 11:37 3,8 °C 88 % 1011,4 hPa 0,0 mm 11,6 km/h (2 Bft) W-SW 251 ° 0 min 0,000 mm 0,8 UV-I 120 W/m² 2,0 °C 0,9 °C 16,1 km/h (3 Bft)
09.11.2019 11:38 3,7 °C 89 % 1011,4 hPa 0,0 mm 9,7 km/h (2 Bft) W-SW 255 ° 0 min 0,000 mm 0,8 UV-I 121 W/m² 2,1 °C 1,2 °C 17,7 km/h (3 Bft)
09.11.2019 11:39 3,7 °C 89 % 1011,4 hPa 0,0 mm 9,5 km/h (2 Bft) W 271 ° 0 min 0,000 mm 0,8 UV-I 123 W/m² 2,1 °C 1,2 °C 11,3 km/h (2 Bft)
09.11.2019 11:40 3,7 °C 89 % 1011,3 hPa 0,0 mm 6,3 km/h (2 Bft) W 277 ° 0 min 0,000 mm 0,8 UV-I 123 W/m² 2,1 °C 2,1 °C 9,7 km/h (2 Bft)
09.11.2019 11:41 3,8 °C 89 % 1011,4 hPa 0,0 mm 6,7 km/h (2 Bft) W 261 ° 0 min 0,000 mm 0,8 UV-I 125 W/m² 2,2 °C 2,1 °C 11,3 km/h (2 Bft)
09.11.2019 11:42 3,8 °C 89 % 1011,4 hPa 0,0 mm 5,3 km/h (1 Bft) W 273 ° 0 min 0,000 mm 0,8 UV-I 127 W/m² 2,2 °C 2,6 °C 9,7 km/h (2 Bft)
09.11.2019 11:43 3,8 °C 89 % 1011,4 hPa 0,0 mm 7,4 km/h (2 Bft) W 265 ° 0 min 0,000 mm 0,8 UV-I 130 W/m² 2,2 °C 1,9 °C 12,9 km/h (3 Bft)
09.11.2019 11:44 3,8 °C 89 % 1011,4 hPa 0,0 mm 8,3 km/h (2 Bft) W-NW 300 ° 0 min 0,000 mm 0,8 UV-I 132 W/m² 2,2 °C 1,6 °C 12,9 km/h (3 Bft)
09.11.2019 11:45 3,8 °C 90 % 1011,4 hPa 0,0 mm 3,8 km/h (1 Bft) W 279 ° 0 min 0,000 mm 0,9 UV-I 135 W/m² 2,3 °C 3,8 °C 4,8 km/h (1 Bft)
09.11.2019 11:46 3,8 °C 89 % 1011,4 hPa 0,0 mm 2,1 km/h (1 Bft) W 279 ° 0 min 0,000 mm 0,9 UV-I 139 W/m² 2,2 °C 3,8 °C 3,2 km/h (1 Bft)
09.11.2019 11:47 3,8 °C 89 % 1011,4 hPa 0,0 mm 5,2 km/h (1 Bft) W 280 ° 0 min 0,000 mm 0,9 UV-I 142 W/m² 2,2 °C 2,6 °C 9,7 km/h (2 Bft)
09.11.2019 11:48 3,9 °C 90 % 1011,4 hPa 0,0 mm 3,7 km/h (1 Bft) W 269 ° 0 min 0,000 mm 0,9 UV-I 144 W/m² 2,4 °C 3,9 °C 6,4 km/h (2 Bft)
09.11.2019 11:49 3,9 °C 90 % 1011,4 hPa 0,0 mm 6,0 km/h (2 Bft) W-SW 247 ° 0 min 0,000 mm 0,9 UV-I 144 W/m² 2,4 °C 2,5 °C 11,3 km/h (2 Bft)
09.11.2019 11:50 3,9 °C 90 % 1011,4 hPa 0,0 mm 7,1 km/h (2 Bft) W 265 ° 0 min 0,000 mm 0,9 UV-I 146 W/m² 2,4 °C 2,1 °C 14,5 km/h (3 Bft)
09.11.2019 11:51 3,9 °C 89 % 1011,4 hPa 0,0 mm 9,0 km/h (2 Bft) W 269 ° 0 min 0,000 mm 1,0 UV-I 148 W/m² 2,3 °C 1,6 °C 12,9 km/h (3 Bft)
09.11.2019 11:52 3,9 °C 89 % 1011,4 hPa 0,0 mm 6,1 km/h (2 Bft) W-NW 295 ° 0 min 0,000 mm 1,0 UV-I 151 W/m² 2,3 °C 2,4 °C 8,0 km/h (2 Bft)
09.11.2019 11:53 3,9 °C 89 % 1011,4 hPa 0,0 mm 7,3 km/h (2 Bft) W-NW 298 ° 0 min 0,000 mm 1,0 UV-I 160 W/m² 2,3 °C 2,0 °C 11,3 km/h (2 Bft)
09.11.2019 11:54 3,9 °C 89 % 1011,4 hPa 0,0 mm 8,9 km/h (2 Bft) W 271 ° 0 min 0,000 mm 1,0 UV-I 162 W/m² 2,3 °C 1,6 °C 12,9 km/h (3 Bft)
09.11.2019 11:55 3,9 °C 89 % 1011,3 hPa 0,0 mm 7,2 km/h (2 Bft) NW 315 ° 0 min 0,000 mm 1,0 UV-I 163 W/m² 2,3 °C 2,1 °C 12,9 km/h (3 Bft)
09.11.2019 11:56 3,9 °C 89 % 1011,3 hPa 0,0 mm 8,8 km/h (2 Bft) W-NW 302 ° 0 min 0,000 mm 1,0 UV-I 163 W/m² 2,3 °C 1,6 °C 12,9 km/h (3 Bft)
09.11.2019 11:57 3,9 °C 88 % 1011,3 hPa 0,0 mm 7,0 km/h (2 Bft) W 275 ° 0 min 0,000 mm 1,0 UV-I 162 W/m² 2,1 °C 2,1 °C 11,3 km/h (2 Bft)
09.11.2019 11:58 3,9 °C 88 % 1011,3 hPa 0,0 mm 6,0 km/h (2 Bft) W-NW 288 ° 0 min 0,000 mm 1,0 UV-I 158 W/m² 2,1 °C 2,5 °C 11,3 km/h (2 Bft)
09.11.2019 11:59 3,9 °C 88 % 1011,3 hPa 0,0 mm 7,6 km/h (2 Bft) W 273 ° 0 min 0,000 mm 1,0 UV-I 155 W/m² 2,1 °C 2,0 °C 11,3 km/h (2 Bft)
09.11.2019 12:00 3,9 °C 89 % 1011,3 hPa 0,0 mm 7,0 km/h (2 Bft) W-NW 294 ° 0 min 0,000 mm 1,0 UV-I 156 W/m² 2,3 °C 2,1 °C 11,3 km/h (2 Bft)
09.11.2019 12:01 3,9 °C 89 % 1011,3 hPa 0,0 mm 6,0 km/h (2 Bft) W-NW 298 ° 0 min 0,076 mm 1,0 UV-I 158 W/m² 2,3 °C 2,5 °C 9,7 km/h (2 Bft)
09.11.2019 12:02 3,9 °C 89 % 1011,3 hPa 0,0 mm 1,6 km/h (1 Bft) W 265 ° 0 min 0,000 mm 1,0 UV-I 163 W/m² 2,3 °C 3,9 °C 6,4 km/h (2 Bft)
09.11.2019 12:03 4,0 °C 89 % 1011,3 hPa 0,0 mm 4,5 km/h (1 Bft) W-NW 294 ° 0 min 0,000 mm 1,0 UV-I 171 W/m² 2,4 °C 4,0 °C 9,7 km/h (2 Bft)
09.11.2019 12:04 4,1 °C 88 % 1011,3 hPa 0,0 mm 9,8 km/h (2 Bft) W-SW 256 ° 0 min 0,000 mm 1,0 UV-I 178 W/m² 2,3 °C 1,6 °C 17,7 km/h (3 Bft)
09.11.2019 12:05 4,1 °C 89 % 1011,3 hPa 0,0 mm 8,6 km/h (2 Bft) W-NW 290 ° 0 min 0,000 mm 1,0 UV-I 186 W/m² 2,5 °C 1,9 °C 12,9 km/h (3 Bft)
09.11.2019 12:06 4,1 °C 88 % 1011,3 hPa 0,0 mm 10,5 km/h (2 Bft) W 265 ° 0 min 0,000 mm 1,0 UV-I 185 W/m² 2,3 °C 1,5 °C 17,7 km/h (3 Bft)
09.11.2019 12:07 4,1 °C 88 % 1011,3 hPa 0,0 mm 10,7 km/h (2 Bft) W 280 ° 0 min 0,000 mm 1,0 UV-I 183 W/m² 2,3 °C 1,4 °C 17,7 km/h (3 Bft)
09.11.2019 12:08 4,0 °C 88 % 1011,3 hPa 0,0 mm 8,4 km/h (2 Bft) W-NW 289 ° 0 min 0,000 mm 1,0 UV-I 179 W/m² 2,2 °C 1,9 °C 14,5 km/h (3 Bft)
09.11.2019 12:09 4,1 °C 88 % 1011,2 hPa 0,0 mm 9,9 km/h (2 Bft) W 263 ° 0 min 0,000 mm 1,0 UV-I 174 W/m² 2,3 °C 1,6 °C 14,5 km/h (3 Bft)
09.11.2019 12:10 4,1 °C 88 % 1011,2 hPa 0,0 mm 8,6 km/h (2 Bft) N-NW 332 ° 0 min 0,000 mm 1,0 UV-I 171 W/m² 2,3 °C 1,9 °C 12,9 km/h (3 Bft)
09.11.2019 12:11 4,1 °C 88 % 1011,3 hPa 0,0 mm 13,8 km/h (3 Bft) W 261 ° 0 min 0,000 mm 0,9 UV-I 167 W/m² 2,3 °C 0,8 °C 20,9 km/h (4 Bft)
09.11.2019 12:12 4,1 °C 87 % 1011,3 hPa 0,0 mm 8,9 km/h (2 Bft) W 277 ° 0 min 0,000 mm 0,9 UV-I 171 W/m² 2,1 °C 1,8 °C 14,5 km/h (3 Bft)
09.11.2019 12:13 4,1 °C 87 % 1011,3 hPa 0,0 mm 6,4 km/h (2 Bft) W 261 ° 0 min 0,000 mm 0,9 UV-I 171 W/m² 2,1 °C 2,6 °C 11,3 km/h (2 Bft)
09.11.2019 12:14 4,1 °C 87 % 1011,2 hPa 0,0 mm 5,7 km/h (1 Bft) W 265 ° 0 min 0,000 mm 0,9 UV-I 165 W/m² 2,1 °C 2,8 °C 9,7 km/h (2 Bft)
09.11.2019 12:15 4,1 °C 87 % 1011,2 hPa 0,0 mm 8,6 km/h (2 Bft) W-SW 257 ° 0 min 0,000 mm 0,9 UV-I 163 W/m² 2,1 °C 1,9 °C 11,3 km/h (2 Bft)
09.11.2019 12:16 4,1 °C 87 % 1011,2 hPa 0,0 mm 10,8 km/h (2 Bft) W 259 ° 0 min 0,000 mm 1,0 UV-I 174 W/m² 2,1 °C 1,4 °C 12,9 km/h (3 Bft)
09.11.2019 12:17 4,2 °C 87 % 1011,2 hPa 0,0 mm 10,4 km/h (2 Bft) W 277 ° 0 min 0,000 mm 1,0 UV-I 181 W/m² 2,2 °C 1,6 °C 16,1 km/h (3 Bft)
09.11.2019 12:18 4,2 °C 87 % 1011,3 hPa 0,0 mm 5,5 km/h (1 Bft) W-NW 286 ° 0 min 0,000 mm 1,1 UV-I 181 W/m² 2,2 °C 3,0 °C 6,4 km/h (2 Bft)
09.11.2019 12:19 4,2 °C 87 % 1011,3 hPa 0,0 mm 5,0 km/h (1 Bft) W-NW 286 ° 0 min 0,000 mm 1,1 UV-I 181 W/m² 2,2 °C 3,2 °C 9,7 km/h (2 Bft)
09.11.2019 12:20 4,3 °C 87 % 1011,3 hPa 0,0 mm 10,5 km/h (2 Bft) W 271 ° 0 min 0,000 mm 1,1 UV-I 181 W/m² 2,3 °C 1,7 °C 16,1 km/h (3 Bft)
09.11.2019 12:21 4,3 °C 87 % 1011,3 hPa 0,0 mm 11,3 km/h (2 Bft) W 270 ° 0 min 0,000 mm 1,1 UV-I 185 W/m² 2,3 °C 1,5 °C 16,1 km/h (3 Bft)
09.11.2019 12:22 4,3 °C 87 % 1011,2 hPa 0,0 mm 7,8 km/h (2 Bft) W 267 ° 0 min 0,000 mm 1,1 UV-I 190 W/m² 2,3 °C 2,4 °C 16,1 km/h (3 Bft)
09.11.2019 12:23 4,3 °C 87 % 1011,2 hPa 0,0 mm 2,1 km/h (1 Bft) S-SW 206 ° 0 min 0,000 mm 1,2 UV-I 195 W/m² 2,3 °C 4,3 °C 4,8 km/h (1 Bft)
09.11.2019 12:24 4,3 °C 87 % 1011,2 hPa 0,0 mm 6,6 km/h (2 Bft) SW 232 ° 0 min 0,000 mm 1,2 UV-I 193 W/m² 2,3 °C 2,7 °C 12,9 km/h (3 Bft)
09.11.2019 12:25 4,3 °C 87 % 1011,2 hPa 0,0 mm 6,7 km/h (2 Bft) W-SW 247 ° 0 min 0,000 mm 1,2 UV-I 197 W/m² 2,3 °C 2,7 °C 12,9 km/h (3 Bft)
09.11.2019 12:26 4,3 °C 86 % 1011,2 hPa 0,0 mm 6,2 km/h (2 Bft) W-SW 243 ° 0 min 0,000 mm 1,3 UV-I 204 W/m² 2,2 °C 2,9 °C 9,7 km/h (2 Bft)
09.11.2019 12:27 4,3 °C 86 % 1011,2 hPa 0,0 mm 2,7 km/h (1 Bft) W-SW 254 ° 0 min 0,000 mm 1,3 UV-I 211 W/m² 2,2 °C 4,3 °C 6,4 km/h (2 Bft)
09.11.2019 12:28 4,3 °C 87 % 1011,2 hPa 0,0 mm 3,9 km/h (1 Bft) W-SW 257 ° 0 min 0,000 mm 1,3 UV-I 213 W/m² 2,3 °C 4,3 °C 4,8 km/h (1 Bft)
09.11.2019 12:29 4,4 °C 88 % 1011,2 hPa 0,0 mm 4,2 km/h (1 Bft) W-SW 255 ° 0 min 0,000 mm 1,3 UV-I 199 W/m² 2,6 °C 4,4 °C 6,4 km/h (2 Bft)
09.11.2019 12:30 4,4 °C 87 % 1011,2 hPa 0,0 mm 3,1 km/h (1 Bft) W 261 ° 0 min 0,000 mm 1,3 UV-I 183 W/m² 2,4 °C 4,4 °C 4,8 km/h (1 Bft)
09.11.2019 12:31 4,5 °C 87 % 1011,2 hPa 0,0 mm 4,6 km/h (1 Bft) W-NW 289 ° 0 min 0,000 mm 1,2 UV-I 167 W/m² 2,5 °C 3,7 °C 9,7 km/h (2 Bft)
09.11.2019 12:32 4,5 °C 87 % 1011,2 hPa 0,0 mm 6,8 km/h (2 Bft) W-NW 291 ° 0 min 0,000 mm 1,3 UV-I 167 W/m² 2,5 °C 2,9 °C 12,9 km/h (3 Bft)
09.11.2019 12:33 4,5 °C 87 % 1011,2 hPa 0,0 mm 5,6 km/h (1 Bft) W-SW 242 ° 0 min 0,000 mm 1,3 UV-I 172 W/m² 2,5 °C 3,3 °C 6,4 km/h (2 Bft)
09.11.2019 12:34 4,4 °C 86 % 1011,2 hPa 0,0 mm 5,2 km/h (1 Bft) W-SW 251 ° 0 min 0,000 mm 1,3 UV-I 167 W/m² 2,3 °C 3,3 °C 9,7 km/h (2 Bft)
09.11.2019 12:35 4,4 °C 86 % 1011,1 hPa 0,0 mm 4,4 km/h (1 Bft) W 269 ° 0 min 0,000 mm 1,3 UV-I 153 W/m² 2,3 °C 4,4 °C 6,4 km/h (2 Bft)
09.11.2019 12:36 4,4 °C 86 % 1011,1 hPa 0,0 mm 5,5 km/h (1 Bft) W-NW 283 ° 0 min 0,000 mm 1,3 UV-I 146 W/m² 2,3 °C 3,2 °C 9,7 km/h (2 Bft)
09.11.2019 12:37 4,4 °C 86 % 1011,1 hPa 0,0 mm 3,7 km/h (1 Bft) W-NW 300 ° 0 min 0,000 mm 1,4 UV-I 148 W/m² 2,3 °C 4,4 °C 4,8 km/h (1 Bft)
09.11.2019 12:38 4,4 °C 86 % 1011,1 hPa 0,0 mm 4,8 km/h (1 Bft) W-NW 292 ° 0 min 0,000 mm 1,4 UV-I 144 W/m² 2,3 °C 3,5 °C 8,0 km/h (2 Bft)
09.11.2019 12:39 4,4 °C 86 % 1011,0 hPa 0,0 mm 3,4 km/h (1 Bft) W 269 ° 0 min 0,000 mm 1,4 UV-I 139 W/m² 2,3 °C 4,4 °C 6,4 km/h (2 Bft)
09.11.2019 12:40 4,4 °C 87 % 1011,0 hPa 0,0 mm 0,8 km/h (0 Bft) W 270 ° 0 min 0,000 mm 1,4 UV-I 127 W/m² 2,4 °C 4,4 °C 3,2 km/h (1 Bft)
09.11.2019 12:41 4,4 °C 86 % 1010,9 hPa 0,0 mm 1,8 km/h (1 Bft) W 270 ° 0 min 0,000 mm 1,4 UV-I 121 W/m² 2,3 °C 4,4 °C 4,8 km/h (1 Bft)
09.11.2019 12:42 4,5 °C 87 % 1011,0 hPa 0,0 mm 3,8 km/h (1 Bft) W 261 ° 0 min 0,000 mm 1,3 UV-I 118 W/m² 2,5 °C 4,5 °C 6,4 km/h (2 Bft)
09.11.2019 12:43 4,5 °C 86 % 1011,0 hPa 0,0 mm 8,6 km/h (2 Bft) W-SW 242 ° 0 min 0,000 mm 1,3 UV-I 121 W/m² 2,4 °C 2,4 °C 12,9 km/h (3 Bft)
09.11.2019 12:44 4,6 °C 86 % 1011,0 hPa 0,0 mm 7,4 km/h (2 Bft) W-NW 292 ° 0 min 0,000 mm 1,3 UV-I 123 W/m² 2,5 °C 2,8 °C 11,3 km/h (2 Bft)
09.11.2019 12:45 4,5 °C 85 % 1010,9 hPa 0,0 mm 5,2 km/h (1 Bft) NW 313 ° 0 min 0,000 mm 1,3 UV-I 114 W/m² 2,2 °C 3,4 °C 9,7 km/h (2 Bft)
09.11.2019 12:46 4,5 °C 85 % 1010,9 hPa 0,0 mm 4,2 km/h (1 Bft) W-SW 251 ° 0 min 0,000 mm 1,3 UV-I 109 W/m² 2,2 °C 4,5 °C 8,0 km/h (2 Bft)
09.11.2019 12:47 4,5 °C 85 % 1010,9 hPa 0,0 mm 6,4 km/h (2 Bft) W 277 ° 0 min 0,000 mm 1,3 UV-I 105 W/m² 2,2 °C 3,0 °C 11,3 km/h (2 Bft)
09.11.2019 12:48 4,6 °C 86 % 1010,9 hPa 0,0 mm 7,6 km/h (2 Bft) N-NW 328 ° 0 min 0,000 mm 1,3 UV-I 109 W/m² 2,5 °C 2,8 °C 11,3 km/h (2 Bft)
09.11.2019 12:49 4,6 °C 86 % 1010,9 hPa 0,0 mm 7,2 km/h (2 Bft) W 277 ° 0 min 0,000 mm 1,3 UV-I 111 W/m² 2,5 °C 2,9 °C 11,3 km/h (2 Bft)
09.11.2019 12:50 4,6 °C 86 % 1010,9 hPa 0,0 mm 6,1 km/h (2 Bft) W 266 ° 0 min 0,000 mm 1,3 UV-I 100 W/m² 2,5 °C 3,2 °C 11,3 km/h (2 Bft)
09.11.2019 12:51 4,6 °C 85 % 1010,9 hPa 0,0 mm 6,6 km/h (2 Bft) W 261 ° 0 min 0,000 mm 1,2 UV-I 93 W/m² 2,3 °C 3,1 °C 9,7 km/h (2 Bft)
09.11.2019 12:52 4,6 °C 85 % 1010,9 hPa 0,0 mm 6,6 km/h (2 Bft) W 263 ° 0 min 0,000 mm 1,2 UV-I 97 W/m² 2,3 °C 3,1 °C 11,3 km/h (2 Bft)
09.11.2019 12:53 4,6 °C 84 % 1010,9 hPa 0,0 mm 8,4 km/h (2 Bft) W-NW 296 ° 0 min 0,000 mm 1,2 UV-I 105 W/m² 2,1 °C 2,6 °C 11,3 km/h (2 Bft)
09.11.2019 12:54 4,6 °C 84 % 1010,9 hPa 0,0 mm 5,0 km/h (1 Bft) NW 304 ° 0 min 0,000 mm 1,2 UV-I 113 W/m² 2,1 °C 3,6 °C 11,3 km/h (2 Bft)
09.11.2019 12:55 4,6 °C 84 % 1010,9 hPa 0,0 mm 5,0 km/h (1 Bft) W 277 ° 0 min 0,000 mm 1,2 UV-I 118 W/m² 2,1 °C 3,6 °C 9,7 km/h (2 Bft)
09.11.2019 12:56 4,6 °C 85 % 1010,9 hPa 0,0 mm 8,3 km/h (2 Bft) W-NW 284 ° 0 min 0,000 mm 1,2 UV-I 120 W/m² 2,3 °C 2,6 °C 14,5 km/h (3 Bft)
09.11.2019 12:57 4,6 °C 84 % 1010,9 hPa 0,0 mm 6,2 km/h (2 Bft) W 268 ° 0 min 0,000 mm 1,2 UV-I 132 W/m² 2,1 °C 3,2 °C 8,0 km/h (2 Bft)
09.11.2019 12:58 4,6 °C 84 % 1010,9 hPa 0,0 mm 6,1 km/h (2 Bft) W-SW 246 ° 0 min 0,000 mm 1,2 UV-I 132 W/m² 2,1 °C 3,2 °C 9,7 km/h (2 Bft)
09.11.2019 12:59 4,6 °C 85 % 1011,0 hPa 0,0 mm 5,9 km/h (2 Bft) W 263 ° 0 min 0,000 mm 1,2 UV-I 125 W/m² 2,3 °C 3,3 °C 9,7 km/h (2 Bft)
09.11.2019 13:00 4,6 °C 84 % 1010,9 hPa 0,0 mm 4,6 km/h (1 Bft) W 269 ° 0 min 0,000 mm 1,2 UV-I 118 W/m² 2,1 °C 3,8 °C 9,7 km/h (2 Bft)
09.11.2019 13:01 4,6 °C 84 % 1010,9 hPa 0,0 mm 6,3 km/h (2 Bft) W-NW 290 ° 0 min 0,077 mm 1,2 UV-I 109 W/m² 2,1 °C 3,2 °C 9,7 km/h (2 Bft)
09.11.2019 13:02 4,6 °C 83 % 1010,9 hPa 0,0 mm 6,0 km/h (2 Bft) W 271 ° 0 min 0,000 mm 1,2 UV-I 102 W/m² 2,0 °C 3,3 °C 11,3 km/h (2 Bft)
09.11.2019 13:03 4,6 °C 83 % 1010,9 hPa 0,0 mm 6,6 km/h (2 Bft) W 277 ° 0 min 0,000 mm 1,2 UV-I 102 W/m² 2,0 °C 3,1 °C 9,7 km/h (2 Bft)
09.11.2019 13:04 4,6 °C 83 % 1010,9 hPa 0,0 mm 3,2 km/h (1 Bft) W 270 ° 0 min 0,000 mm 1,2 UV-I 120 W/m² 2,0 °C 4,6 °C 4,8 km/h (1 Bft)
09.11.2019 13:05 4,6 °C 84 % 1010,9 hPa 0,0 mm 7,0 km/h (2 Bft) W 265 ° 0 min 0,000 mm 1,2 UV-I 130 W/m² 2,1 °C 2,9 °C 9,7 km/h (2 Bft)
09.11.2019 13:06 4,6 °C 84 % 1010,9 hPa 0,0 mm 9,8 km/h (2 Bft) W 272 ° 0 min 0,000 mm 1,2 UV-I 141 W/m² 2,1 °C 2,2 °C 14,5 km/h (3 Bft)
09.11.2019 13:07 4,7 °C 84 % 1010,9 hPa 0,0 mm 5,9 km/h (2 Bft) W 275 ° 0 min 0,000 mm 1,2 UV-I 148 W/m² 2,2 °C 3,4 °C 9,7 km/h (2 Bft)
09.11.2019 13:08 4,8 °C 84 % 1010,9 hPa 0,0 mm 5,7 km/h (1 Bft) W-SW 254 ° 0 min 0,000 mm 1,2 UV-I 151 W/m² 2,3 °C 3,6 °C 8,0 km/h (2 Bft)
09.11.2019 13:09 4,8 °C 83 % 1010,9 hPa 0,0 mm 3,2 km/h (1 Bft) W 260 ° 0 min 0,000 mm 1,2 UV-I 149 W/m² 2,2 °C 4,8 °C 4,8 km/h (1 Bft)
09.11.2019 13:10 4,8 °C 83 % 1010,9 hPa 0,0 mm 3,8 km/h (1 Bft) W 264 ° 0 min 0,000 mm 1,2 UV-I 155 W/m² 2,2 °C 4,8 °C 9,7 km/h (2 Bft)
09.11.2019 13:11 4,9 °C 84 % 1010,8 hPa 0,0 mm 6,4 km/h (2 Bft) W-SW 256 ° 0 min 0,000 mm 1,1 UV-I 160 W/m² 2,4 °C 3,5 °C 9,7 km/h (2 Bft)
09.11.2019 13:12 4,9 °C 83 % 1010,8 hPa 0,0 mm 5,2 km/h (1 Bft) W-SW 254 ° 0 min 0,000 mm 1,1 UV-I 165 W/m² 2,3 °C 3,9 °C 6,4 km/h (2 Bft)
09.11.2019 13:13 4,9 °C 81 % 1010,8 hPa 0,0 mm 3,8 km/h (1 Bft) W 273 ° 0 min 0,000 mm 1,1 UV-I 162 W/m² 1,9 °C 4,9 °C 4,8 km/h (1 Bft)
09.11.2019 13:14 4,9 °C 82 % 1010,8 hPa 0,0 mm 6,8 km/h (2 Bft) W-SW 248 ° 0 min 0,000 mm 1,1 UV-I 163 W/m² 2,1 °C 3,4 °C 11,3 km/h (2 Bft)
09.11.2019 13:15 5,1 °C 83 % 1010,8 hPa 0,0 mm 6,9 km/h (2 Bft) W 279 ° 0 min 0,000 mm 1,0 UV-I 156 W/m² 2,5 °C 3,6 °C 9,7 km/h (2 Bft)
09.11.2019 13:16 5,1 °C 82 % 1010,8 hPa 0,0 mm 6,8 km/h (2 Bft) W-NW 286 ° 0 min 0,000 mm 1,0 UV-I 179 W/m² 2,3 °C 3,6 °C 12,9 km/h (3 Bft)
09.11.2019 13:17 5,1 °C 82 % 1010,8 hPa 0,0 mm 4,6 km/h (1 Bft) W 262 ° 0 min 0,000 mm 1,0 UV-I 186 W/m² 2,3 °C 4,4 °C 6,4 km/h (2 Bft)
09.11.2019 13:18 5,1 °C 81 % 1010,8 hPa 0,0 mm 4,3 km/h (1 Bft) W 272 ° 0 min 0,000 mm 1,0 UV-I 211 W/m² 2,1 °C 5,1 °C 6,4 km/h (2 Bft)
09.11.2019 13:19 5,1 °C 81 % 1010,8 hPa 0,0 mm 4,4 km/h (1 Bft) W-NW 299 ° 0 min 0,000 mm 1,1 UV-I 255 W/m² 2,1 °C 5,1 °C 6,4 km/h (2 Bft)
09.11.2019 13:20 5,2 °C 81 % 1010,7 hPa 0,0 mm 3,3 km/h (1 Bft) NW 312 ° 0 min 0,000 mm 1,1 UV-I 281 W/m² 2,2 °C 5,2 °C 4,8 km/h (1 Bft)
09.11.2019 13:21 5,2 °C 80 % 1010,7 hPa 0,0 mm 0,3 km/h (0 Bft) NW 312 ° 0 min 0,000 mm 1,1 UV-I 327 W/m² 2,0 °C 5,2 °C 1,6 km/h (1 Bft)
09.11.2019 13:22 5,2 °C 81 % 1010,7 hPa 0,0 mm 4,5 km/h (1 Bft) W 261 ° 0 min 0,000 mm 1,2 UV-I 390 W/m² 2,2 °C 5,2 °C 9,7 km/h (2 Bft)
09.11.2019 13:23 5,2 °C 80 % 1010,7 hPa 0,0 mm 3,4 km/h (1 Bft) W 263 ° 0 min 0,000 mm 1,1 UV-I 308 W/m² 2,0 °C 5,2 °C 4,8 km/h (1 Bft)
09.11.2019 13:24 5,2 °C 78 % 1010,7 hPa 0,0 mm 1,9 km/h (1 Bft) W 263 ° 0 min 0,000 mm 1,1 UV-I 322 W/m² 1,7 °C 5,2 °C 3,2 km/h (1 Bft)
09.11.2019 13:25 5,2 °C 80 % 1010,7 hPa 0,0 mm 4,7 km/h (1 Bft) W 277 ° 0 min 0,000 mm 1,1 UV-I 357 W/m² 2,0 °C 4,4 °C 6,4 km/h (2 Bft)
09.11.2019 13:26 5,2 °C 79 % 1010,6 hPa 0,0 mm 3,2 km/h (1 Bft) W 264 ° 0 min 0,000 mm 1,0 UV-I 302 W/m² 1,9 °C 5,2 °C 6,4 km/h (2 Bft)
09.11.2019 13:27 5,3 °C 79 % 1010,6 hPa 0,0 mm 4,2 km/h (1 Bft) W 269 ° 0 min 0,000 mm 1,0 UV-I 341 W/m² 2,0 °C 5,3 °C 6,4 km/h (2 Bft)
09.11.2019 13:28 5,3 °C 78 % 1010,6 hPa 0,0 mm 4,3 km/h (1 Bft) W-NW 298 ° 0 min 0,000 mm 0,9 UV-I 288 W/m² 1,8 °C 5,3 °C 8,0 km/h (2 Bft)
09.11.2019 13:29 5,3 °C 78 % 1010,6 hPa 0,0 mm 4,5 km/h (1 Bft) SW 225 ° 0 min 0,000 mm 0,9 UV-I 262 W/m² 1,8 °C 5,3 °C 6,4 km/h (2 Bft)
09.11.2019 13:30 5,3 °C 77 % 1010,6 hPa 0,0 mm 4,0 km/h (1 Bft) S-SW 192 ° 0 min 0,000 mm 0,9 UV-I 244 W/m² 1,6 °C 5,3 °C 8,0 km/h (2 Bft)
09.11.2019 13:31 5,4 °C 78 % 1010,6 hPa 0,0 mm 2,7 km/h (1 Bft) S-SW 192 ° 0 min 0,000 mm 1,0 UV-I 244 W/m² 1,9 °C 5,4 °C 4,8 km/h (1 Bft)
09.11.2019 13:32 5,4 °C 78 % 1010,6 hPa 0,0 mm 2,1 km/h (1 Bft) S 180 ° 0 min 0,000 mm 0,8 UV-I 376 W/m² 1,9 °C 5,4 °C 3,2 km/h (1 Bft)
09.11.2019 13:33 5,4 °C 77 % 1010,6 hPa 0,0 mm 2,1 km/h (1 Bft) S-SW 202 ° 0 min 0,000 mm 0,6 UV-I 141 W/m² 1,7 °C 5,4 °C 4,8 km/h (1 Bft)
09.11.2019 13:34 5,4 °C 78 % 1010,6 hPa 0,0 mm 0,4 km/h (0 Bft) S-SW 202 ° 0 min 0,000 mm 0,5 UV-I 146 W/m² 1,9 °C 5,4 °C 1,6 km/h (1 Bft)
09.11.2019 13:35 5,4 °C 79 % 1010,5 hPa 0,0 mm 3,5 km/h (1 Bft) N-NW 330 ° 0 min 0,000 mm 0,7 UV-I 146 W/m² 2,1 °C 5,4 °C 8,0 km/h (2 Bft)
09.11.2019 13:36 5,4 °C 80 % 1010,6 hPa 0,0 mm 7,9 km/h (2 Bft) NW 321 ° 0 min 0,000 mm 0,7 UV-I 250 W/m² 2,2 °C 3,6 °C 12,9 km/h (3 Bft)
09.11.2019 13:37 5,4 °C 80 % 1010,5 hPa 0,0 mm 6,9 km/h (2 Bft) NW 311 ° 0 min 0,000 mm 0,0 UV-I 250 W/m² 2,2 °C 3,9 °C 11,3 km/h (2 Bft)
09.11.2019 13:38 5,5 °C 80 % 1010,6 hPa 0,0 mm 5,9 km/h (2 Bft) NW 308 ° 0 min 0,000 mm 0,0 UV-I 250 W/m² 2,3 °C 4,3 °C 9,7 km/h (2 Bft)
09.11.2019 13:39 5,4 °C 80 % 1010,6 hPa 0,0 mm 3,9 km/h (1 Bft) NW 323 ° 0 min 0,000 mm 0,0 UV-I 91 W/m² 2,2 °C 5,4 °C 6,4 km/h (2 Bft)
09.11.2019 13:40 5,3 °C 79 % 1010,6 hPa 0,0 mm 3,2 km/h (1 Bft) W-NW 302 ° 0 min 0,000 mm 0,0 UV-I 95 W/m² 2,0 °C 5,3 °C 4,8 km/h (1 Bft)
09.11.2019 13:41 5,2 °C 80 % 1010,6 hPa 0,0 mm 4,7 km/h (1 Bft) NW 309 ° 0 min 0,000 mm 0,0 UV-I 95 W/m² 2,0 °C 4,4 °C 8,0 km/h (2 Bft)
09.11.2019 13:42 5,2 °C 80 % 1010,6 hPa 0,0 mm 5,8 km/h (2 Bft) N-NW 327 ° 0 min 0,000 mm 0,0 UV-I 104 W/m² 2,0 °C 4,0 °C 8,0 km/h (2 Bft)
09.11.2019 13:43 5,1 °C 80 % 1010,5 hPa 0,0 mm 5,8 km/h (2 Bft) NW 309 ° 0 min 0,000 mm 0,0 UV-I 114 W/m² 1,9 °C 3,9 °C 8,0 km/h (2 Bft)
09.11.2019 13:44 5,1 °C 80 % 1010,5 hPa 0,0 mm 8,9 km/h (2 Bft) NW 312 ° 0 min 0,000 mm 0,5 UV-I 130 W/m² 1,9 °C 3,0 °C 12,9 km/h (3 Bft)
09.11.2019 13:45 5,1 °C 81 % 1010,5 hPa 0,0 mm 4,7 km/h (1 Bft) NW 319 ° 0 min 0,000 mm 0,6 UV-I 165 W/m² 2,1 °C 4,3 °C 8,0 km/h (2 Bft)
09.11.2019 13:46 5,0 °C 81 % 1010,5 hPa 0,0 mm 3,0 km/h (1 Bft) NW 320 ° 0 min 0,000 mm 0,7 UV-I 183 W/m² 2,0 °C 5,0 °C 4,8 km/h (1 Bft)
09.11.2019 13:47 5,0 °C 81 % 1010,6 hPa 0,0 mm 5,1 km/h (1 Bft) NW 317 ° 0 min 0,000 mm 0,8 UV-I 195 W/m² 2,0 °C 4,0 °C 8,0 km/h (2 Bft)
09.11.2019 13:48 5,0 °C 82 % 1010,6 hPa 0,0 mm 4,3 km/h (1 Bft) W-NW 300 ° 0 min 0,000 mm 0,8 UV-I 197 W/m² 2,2 °C 5,0 °C 4,8 km/h (1 Bft)
09.11.2019 13:49 5,0 °C 82 % 1010,6 hPa 0,0 mm 3,5 km/h (1 Bft) W-NW 300 ° 0 min 0,000 mm 0,9 UV-I 195 W/m² 2,2 °C 5,0 °C 6,4 km/h (2 Bft)
09.11.2019 13:50 4,9 °C 81 % 1010,6 hPa 0,0 mm 6,0 km/h (2 Bft) N-NW 329 ° 0 min 0,000 mm 0,9 UV-I 188 W/m² 1,9 °C 3,6 °C 9,7 km/h (2 Bft)
09.11.2019 13:51 4,9 °C 82 % 1010,6 hPa 0,0 mm 5,2 km/h (1 Bft) W-NW 283 ° 0 min 0,000 mm 0,9 UV-I 167 W/m² 2,1 °C 3,9 °C 6,4 km/h (2 Bft)
09.11.2019 13:52 4,9 °C 82 % 1010,6 hPa 0,0 mm 4,9 km/h (1 Bft) W-NW 293 ° 0 min 0,000 mm 0,9 UV-I 160 W/m² 2,1 °C 4,0 °C 6,4 km/h (2 Bft)
09.11.2019 13:53 4,9 °C 82 % 1010,6 hPa 0,0 mm 5,4 km/h (1 Bft) W 276 ° 0 min 0,000 mm 0,9 UV-I 155 W/m² 2,1 °C 3,8 °C 6,4 km/h (2 Bft)
09.11.2019 13:54 4,9 °C 81 % 1010,5 hPa 0,0 mm 4,2 km/h (1 Bft) W-NW 302 ° 0 min 0,000 mm 0,9 UV-I 153 W/m² 1,9 °C 4,9 °C 6,4 km/h (2 Bft)
09.11.2019 13:55 4,9 °C 82 % 1010,6 hPa 0,0 mm 3,5 km/h (1 Bft) W-NW 282 ° 0 min 0,000 mm 0,9 UV-I 153 W/m² 2,1 °C 4,9 °C 4,8 km/h (1 Bft)
09.11.2019 13:56 4,9 °C 81 % 1010,6 hPa 0,0 mm 1,2 km/h (1 Bft) W-NW 283 ° 0 min 0,000 mm 0,9 UV-I 151 W/m² 1,9 °C 4,9 °C 3,2 km/h (1 Bft)
09.11.2019 13:57 4,8 °C 81 % 1010,5 hPa 0,0 mm 1,7 km/h (1 Bft) W-NW 283 ° 0 min 0,000 mm 0,9 UV-I 151 W/m² 1,8 °C 4,8 °C 3,2 km/h (1 Bft)
09.11.2019 13:58 4,8 °C 81 % 1010,5 hPa 0,0 mm 4,2 km/h (1 Bft) NW 309 ° 0 min 0,000 mm 0,9 UV-I 149 W/m² 1,8 °C 4,8 °C 6,4 km/h (2 Bft)
09.11.2019 13:59 4,8 °C 82 % 1010,5 hPa 0,0 mm 6,4 km/h (2 Bft) N-NW 331 ° 0 min 0,000 mm 0,9 UV-I 149 W/m² 2,0 °C 3,4 °C 8,0 km/h (2 Bft)
09.11.2019 14:00 4,9 °C 82 % 1010,5 hPa 0,0 mm 5,3 km/h (1 Bft) N-NW 328 ° 0 min 0,000 mm 0,9 UV-I 151 W/m² 2,1 °C 3,9 °C 6,4 km/h (2 Bft)
09.11.2019 14:01 4,9 °C 83 % 1010,5 hPa 0,0 mm 2,3 km/h (1 Bft) N-NW 331 ° 0 min 0,076 mm 0,9 UV-I 178 W/m² 2,3 °C 4,9 °C 4,8 km/h (1 Bft)
09.11.2019 14:02 4,9 °C 83 % 1010,5 hPa 0,0 mm 3,0 km/h (1 Bft) N-NW 336 ° 0 min 0,000 mm 0,8 UV-I 167 W/m² 2,3 °C 4,9 °C 4,8 km/h (1 Bft)
09.11.2019 14:03 4,9 °C 83 % 1010,5 hPa 0,0 mm 2,7 km/h (1 Bft) N-NW 344 ° 0 min 0,000 mm 0,8 UV-I 169 W/m² 2,3 °C 4,9 °C 4,8 km/h (1 Bft)
09.11.2019 14:04 4,9 °C 82 % 1010,4 hPa 0,0 mm 2,5 km/h (1 Bft) N-NW 344 ° 0 min 0,000 mm 0,8 UV-I 172 W/m² 2,1 °C 4,9 °C 3,2 km/h (1 Bft)
09.11.2019 14:05 4,9 °C 81 % 1010,5 hPa 0,0 mm 1,8 km/h (1 Bft) N-NW 344 ° 0 min 0,000 mm 0,7 UV-I 174 W/m² 1,9 °C 4,9 °C 4,8 km/h (1 Bft)
09.11.2019 14:06 4,9 °C 82 % 1010,5 hPa 0,0 mm 2,0 km/h (1 Bft) N-NW 344 ° 0 min 0,000 mm 0,7 UV-I 174 W/m² 2,1 °C 4,9 °C 3,2 km/h (1 Bft)
09.11.2019 14:07 5,0 °C 81 % 1010,5 hPa 0,0 mm 1,4 km/h (1 Bft) N-NW 344 ° 0 min 0,000 mm 0,7 UV-I 163 W/m² 2,0 °C 5,0 °C 3,2 km/h (1 Bft)
09.11.2019 14:08 5,0 °C 80 % 1010,5 hPa 0,0 mm 1,6 km/h (1 Bft) N-NW 344 ° 0 min 0,000 mm 0,7 UV-I 141 W/m² 1,8 °C 5,0 °C 3,2 km/h (1 Bft)
09.11.2019 14:09 4,9 °C 79 % 1010,5 hPa 0,0 mm 0,0 km/h (0 Bft) N-NW 344 ° 0 min 0,000 mm 0,7 UV-I 132 W/m² 1,6 °C 4,9 °C 0,0 km/h (0 Bft)
09.11.2019 14:10 5,0 °C 80 % 1010,5 hPa 0,0 mm 0,1 km/h (0 Bft) N-NW 344 ° 0 min 0,000 mm 0,6 UV-I 121 W/m² 1,8 °C 5,0 °C 1,6 km/h (1 Bft)
09.11.2019 14:11 4,9 °C 80 % 1010,5 hPa 0,0 mm 4,4 km/h (1 Bft) N-NW 330 ° 0 min 0,000 mm 0,6 UV-I 114 W/m² 1,7 °C 4,9 °C 6,4 km/h (2 Bft)
09.11.2019 14:12 5,1 °C 82 % 1010,4 hPa 0,0 mm 4,8 km/h (1 Bft) N-NW 327 ° 0 min 0,000 mm 0,6 UV-I 107 W/m² 2,3 °C 4,3 °C 6,4 km/h (2 Bft)
09.11.2019 14:13 5,1 °C 81 % 1010,5 hPa 0,0 mm 1,5 km/h (1 Bft) N-NW 327 ° 0 min 0,000 mm 0,5 UV-I 105 W/m² 2,1 °C 5,1 °C 3,2 km/h (1 Bft)
09.11.2019 14:14 5,0 °C 81 % 1010,5 hPa 0,0 mm 3,4 km/h (1 Bft) N-NW 327 ° 0 min 0,000 mm 0,5 UV-I 105 W/m² 2,0 °C 5,0 °C 4,8 km/h (1 Bft)
09.11.2019 14:15 5,1 °C 81 % 1010,5 hPa 0,0 mm 4,5 km/h (1 Bft) NW 325 ° 0 min 0,000 mm 0,5 UV-I 105 W/m² 2,1 °C 5,1 °C 6,4 km/h (2 Bft)
09.11.2019 14:16 5,0 °C 82 % 1010,5 hPa 0,0 mm 4,0 km/h (1 Bft) NW 326 ° 0 min 0,000 mm 0,5 UV-I 104 W/m² 2,2 °C 5,0 °C 4,8 km/h (1 Bft)
09.11.2019 14:17 5,1 °C 82 % 1010,5 hPa 0,0 mm 3,6 km/h (1 Bft) NW 326 ° 0 min 0,000 mm 0,5 UV-I 102 W/m² 2,3 °C 5,1 °C 4,8 km/h (1 Bft)
09.11.2019 14:18 5,0 °C 82 % 1010,5 hPa 0,0 mm 0,4 km/h (0 Bft) NW 326 ° 0 min 0,000 mm 0,5 UV-I 102 W/m² 2,2 °C 5,0 °C 1,6 km/h (1 Bft)
09.11.2019 14:19 5,0 °C 82 % 1010,5 hPa 0,0 mm 0,7 km/h (0 Bft) NW 326 ° 0 min 0,000 mm 0,5 UV-I 102 W/m² 2,2 °C 5,0 °C 3,2 km/h (1 Bft)
09.11.2019 14:20 4,9 °C 81 % 1010,5 hPa 0,0 mm 4,0 km/h (1 Bft) W-NW 291 ° 0 min 0,000 mm 0,5 UV-I 107 W/m² 1,9 °C 4,9 °C 6,4 km/h (2 Bft)
09.11.2019 14:21 4,9 °C 81 % 1010,5 hPa 0,0 mm 6,0 km/h (2 Bft) W-NW 289 ° 0 min 0,000 mm 0,6 UV-I 111 W/m² 1,9 °C 3,6 °C 11,3 km/h (2 Bft)
09.11.2019 14:22 4,9 °C 81 % 1010,5 hPa 0,0 mm 4,4 km/h (1 Bft) W-NW 294 ° 0 min 0,000 mm 0,6 UV-I 113 W/m² 1,9 °C 4,9 °C 8,0 km/h (2 Bft)
09.11.2019 14:23 4,9 °C 81 % 1010,5 hPa 0,0 mm 3,2 km/h (1 Bft) W-NW 294 ° 0 min 0,000 mm 0,6 UV-I 114 W/m² 1,9 °C 4,9 °C 4,8 km/h (1 Bft)
09.11.2019 14:24 5,0 °C 82 % 1010,5 hPa 0,0 mm 6,5 km/h (2 Bft) W-NW 298 ° 0 min 0,000 mm 0,6 UV-I 114 W/m² 2,2 °C 3,6 °C 11,3 km/h (2 Bft)
09.11.2019 14:25 5,0 °C 81 % 1010,5 hPa 0,0 mm 9,1 km/h (2 Bft) NW 309 ° 0 min 0,000 mm 0,7 UV-I 113 W/m² 2,0 °C 2,9 °C 12,9 km/h (3 Bft)
09.11.2019 14:26 5,0 °C 80 % 1010,5 hPa 0,0 mm 8,9 km/h (2 Bft) NW 311 ° 0 min 0,000 mm 0,7 UV-I 105 W/m² 1,8 °C 2,9 °C 12,9 km/h (3 Bft)
09.11.2019 14:27 5,0 °C 80 % 1010,5 hPa 0,0 mm 4,9 km/h (1 Bft) NW 306 ° 0 min 0,000 mm 0,7 UV-I 105 W/m² 1,8 °C 4,1 °C 8,0 km/h (2 Bft)
09.11.2019 14:28 5,0 °C 80 % 1010,5 hPa 0,0 mm 4,0 km/h (1 Bft) W 272 ° 0 min 0,000 mm 0,7 UV-I 98 W/m² 1,8 °C 5,0 °C 6,4 km/h (2 Bft)
09.11.2019 14:29 5,0 °C 80 % 1010,5 hPa 0,0 mm 4,5 km/h (1 Bft) NW 319 ° 0 min 0,000 mm 0,6 UV-I 97 W/m² 1,8 °C 5,0 °C 8,0 km/h (2 Bft)
09.11.2019 14:30 5,0 °C 81 % 1010,5 hPa 0,0 mm 6,3 km/h (2 Bft) NW 319 ° 0 min 0,000 mm 0,6 UV-I 97 W/m² 2,0 °C 3,6 °C 8,0 km/h (2 Bft)
09.11.2019 14:31 5,0 °C 81 % 1010,5 hPa 0,0 mm 5,7 km/h (1 Bft) NW 323 ° 0 min 0,000 mm 0,6 UV-I 100 W/m² 2,0 °C 3,8 °C 6,4 km/h (2 Bft)
09.11.2019 14:32 4,9 °C 82 % 1010,5 hPa 0,0 mm 5,5 km/h (1 Bft) N-NW 335 ° 0 min 0,000 mm 0,6 UV-I 104 W/m² 2,1 °C 3,8 °C 8,0 km/h (2 Bft)
09.11.2019 14:33 4,9 °C 83 % 1010,5 hPa 0,0 mm 3,2 km/h (1 Bft) N-NW 333 ° 0 min 0,000 mm 0,6 UV-I 104 W/m² 2,3 °C 4,9 °C 4,8 km/h (1 Bft)
09.11.2019 14:34 4,9 °C 83 % 1010,6 hPa 0,0 mm 4,4 km/h (1 Bft) NW 324 ° 0 min 0,000 mm 0,6 UV-I 102 W/m² 2,3 °C 4,9 °C 4,8 km/h (1 Bft)
09.11.2019 14:35 4,8 °C 83 % 1010,5 hPa 0,0 mm 3,3 km/h (1 Bft) NW 319 ° 0 min 0,000 mm 0,6 UV-I 104 W/m² 2,2 °C 4,8 °C 4,8 km/h (1 Bft)
09.11.2019 14:36 4,8 °C 83 % 1010,5 hPa 0,0 mm 1,9 km/h (1 Bft) NW 320 ° 0 min 0,000 mm 0,6 UV-I 102 W/m² 2,2 °C 4,8 °C 3,2 km/h (1 Bft)
09.11.2019 14:37 4,7 °C 83 % 1010,5 hPa 0,0 mm 2,3 km/h (1 Bft) NW 320 ° 0 min 0,000 mm 0,6 UV-I 104 W/m² 2,1 °C 4,7 °C 3,2 km/h (1 Bft)
09.11.2019 14:38 4,7 °C 83 % 1010,5 hPa 0,0 mm 0,1 km/h (0 Bft) NW 320 ° 0 min 0,000 mm 0,6 UV-I 104 W/m² 2,1 °C 4,7 °C 3,2 km/h (1 Bft)
09.11.2019 14:39 4,8 °C 84 % 1010,5 hPa 0,0 mm 4,0 km/h (1 Bft) NW 320 ° 0 min 0,000 mm 0,6 UV-I 104 W/m² 2,3 °C 4,8 °C 6,4 km/h (2 Bft)
09.11.2019 14:40 4,7 °C 84 % 1010,5 hPa 0,0 mm 3,2 km/h (1 Bft) NW 320 ° 0 min 0,000 mm 0,6 UV-I 104 W/m² 2,2 °C 4,7 °C 6,4 km/h (2 Bft)
09.11.2019 14:41 4,8 °C 84 % 1010,5 hPa 0,0 mm 3,0 km/h (1 Bft) NW 320 ° 0 min 0,000 mm 0,6 UV-I 105 W/m² 2,3 °C 4,8 °C 3,2 km/h (1 Bft)
09.11.2019 14:42 4,8 °C 84 % 1010,5 hPa 0,0 mm 3,0 km/h (1 Bft) NW 320 ° 0 min 0,000 mm 0,6 UV-I 105 W/m² 2,3 °C 4,8 °C 4,8 km/h (1 Bft)
09.11.2019 14:43 4,8 °C 84 % 1010,5 hPa 0,0 mm 2,8 km/h (1 Bft) NW 320 ° 0 min 0,000 mm 0,6 UV-I 109 W/m² 2,3 °C 4,8 °C 4,8 km/h (1 Bft)
09.11.2019 14:44 4,7 °C 83 % 1010,5 hPa 0,0 mm 3,1 km/h (1 Bft) NW 320 ° 0 min 0,000 mm 0,6 UV-I 109 W/m² 2,1 °C 4,7 °C 4,8 km/h (1 Bft)
09.11.2019 14:45 4,7 °C 82 % 1010,5 hPa 0,0 mm 0,7 km/h (0 Bft) NW 320 ° 0 min 0,000 mm 0,6 UV-I 111 W/m² 1,9 °C 4,7 °C 3,2 km/h (1 Bft)
09.11.2019 14:46 4,7 °C 83 % 1010,5 hPa 0,0 mm 0,9 km/h (0 Bft) NW 320 ° 0 min 0,000 mm 0,6 UV-I 111 W/m² 2,1 °C 4,7 °C 3,2 km/h (1 Bft)
09.11.2019 14:47 4,7 °C 83 % 1010,5 hPa 0,0 mm 1,5 km/h (1 Bft) NW 315 ° 0 min 0,000 mm 0,6 UV-I 109 W/m² 2,1 °C 4,7 °C 4,8 km/h (1 Bft)
09.11.2019 14:48 4,7 °C 82 % 1010,5 hPa 0,0 mm 1,5 km/h (1 Bft) NW 315 ° 0 min 0,000 mm 0,6 UV-I 107 W/m² 1,9 °C 4,7 °C 3,2 km/h (1 Bft)
09.11.2019 14:49 4,7 °C 82 % 1010,5 hPa 0,0 mm 0,0 km/h (0 Bft) NW 315 ° 0 min 0,000 mm 0,6 UV-I 100 W/m² 1,9 °C 4,7 °C 0,0 km/h (0 Bft)
09.11.2019 14:50 4,7 °C 82 % 1010,5 hPa 0,0 mm 0,8 km/h (0 Bft) NW 317 ° 0 min 0,000 mm 0,6 UV-I 97 W/m² 1,9 °C 4,7 °C 3,2 km/h (1 Bft)
09.11.2019 14:51 4,7 °C 82 % 1010,5 hPa 0,0 mm 0,0 km/h (0 Bft) NW 317 ° 0 min 0,000 mm 0,6 UV-I 95 W/m² 1,9 °C 4,7 °C 0,0 km/h (0 Bft)
09.11.2019 14:52 4,8 °C 82 % 1010,5 hPa 0,0 mm 2,2 km/h (1 Bft) NW 317 ° 0 min 0,000 mm 0,6 UV-I 93 W/m² 2,0 °C 4,8 °C 4,8 km/h (1 Bft)
09.11.2019 14:53 4,8 °C 82 % 1010,5 hPa 0,0 mm 0,1 km/h (0 Bft) NW 317 ° 0 min 0,000 mm 0,6 UV-I 91 W/m² 2,0 °C 4,8 °C 1,6 km/h (1 Bft)
09.11.2019 14:54 4,7 °C 82 % 1010,5 hPa 0,0 mm 0,0 km/h (0 Bft) NW 317 ° 0 min 0,000 mm 0,6 UV-I 90 W/m² 1,9 °C 4,7 °C 0,0 km/h (0 Bft)
09.11.2019 14:55 4,8 °C 82 % 1010,5 hPa 0,0 mm 0,0 km/h (0 Bft) NW 317 ° 0 min 0,000 mm 0,6 UV-I 88 W/m² 2,0 °C 4,8 °C 0,0 km/h (0 Bft)
09.11.2019 14:56 4,7 °C 82 % 1010,4 hPa 0,0 mm 0,0 km/h (0 Bft) NW 317 ° 0 min 0,000 mm 0,6 UV-I 88 W/m² 1,9 °C 4,7 °C 0,0 km/h (0 Bft)
09.11.2019 14:57 4,7 °C 82 % 1010,4 hPa 0,0 mm 0,0 km/h (0 Bft) NW 317 ° 0 min 0,000 mm 0,5 UV-I 88 W/m² 1,9 °C 4,7 °C 0,0 km/h (0 Bft)
09.11.2019 14:58 4,7 °C 81 % 1010,4 hPa 0,0 mm 0,0 km/h (0 Bft) NW 317 ° 0 min 0,000 mm 0,5 UV-I 88 W/m² 1,7 °C 4,7 °C 0,0 km/h (0 Bft)
09.11.2019 14:59 4,7 °C 82 % 1010,4 hPa 0,0 mm 0,0 km/h (0 Bft) NW 317 ° 0 min 0,000 mm 0,5 UV-I 88 W/m² 1,9 °C 4,7 °C 0,0 km/h (0 Bft)
09.11.2019 15:00 4,8 °C 82 % 1010,4 hPa 0,0 mm 1,6 km/h (1 Bft) NW 317 ° 0 min 0,051 mm 0,5 UV-I 88 W/m² 2,0 °C 4,8 °C 6,4 km/h (2 Bft)
09.11.2019 15:01 4,8 °C 82 % 1010,4 hPa 0,0 mm 3,1 km/h (1 Bft) NW 317 ° 0 min 0,000 mm 0,5 UV-I 90 W/m² 2,0 °C 4,8 °C 6,4 km/h (2 Bft)
09.11.2019 15:02 4,8 °C 82 % 1010,4 hPa 0,0 mm 1,7 km/h (1 Bft) NW 317 ° 0 min 0,000 mm 0,5 UV-I 91 W/m² 2,0 °C 4,8 °C 3,2 km/h (1 Bft)
09.11.2019 15:03 4,8 °C 82 % 1010,4 hPa 0,0 mm 1,4 km/h (1 Bft) NW 317 ° 0 min 0,000 mm 0,5 UV-I 91 W/m² 2,0 °C 4,8 °C 3,2 km/h (1 Bft)
09.11.2019 15:04 4,8 °C 82 % 1010,4 hPa 0,0 mm 1,1 km/h (1 Bft) NW 317 ° 0 min 0,000 mm 0,5 UV-I 90 W/m² 2,0 °C 4,8 °C 3,2 km/h (1 Bft)
09.11.2019 15:05 4,8 °C 82 % 1010,4 hPa 0,0 mm 0,0 km/h (0 Bft) NW 317 ° 0 min 0,000 mm 0,5 UV-I 90 W/m² 2,0 °C 4,8 °C 0,0 km/h (0 Bft)
09.11.2019 15:06 4,8 °C 81 % 1010,4 hPa 0,0 mm 0,0 km/h (0 Bft) NW 317 ° 0 min 0,000 mm 0,5 UV-I 88 W/m² 1,8 °C 4,8 °C 0,0 km/h (0 Bft)
09.11.2019 15:07 4,8 °C 82 % 1010,4 hPa 0,0 mm 0,5 km/h (0 Bft) NW 317 ° 0 min 0,000 mm 0,5 UV-I 84 W/m² 2,0 °C 4,8 °C 1,6 km/h (1 Bft)
09.11.2019 15:08 4,8 °C 81 % 1010,4 hPa 0,0 mm 0,0 km/h (0 Bft) NW 317 ° 0 min 0,000 mm 0,5 UV-I 83 W/m² 1,8 °C 4,8 °C 0,0 km/h (0 Bft)
09.11.2019 15:09 4,8 °C 81 % 1010,4 hPa 0,0 mm 0,7 km/h (0 Bft) NW 317 ° 0 min 0,000 mm 0,5 UV-I 83 W/m² 1,8 °C 4,8 °C 3,2 km/h (1 Bft)
09.11.2019 15:10 4,8 °C 81 % 1010,4 hPa 0,0 mm 1,6 km/h (1 Bft) NW 317 ° 0 min 0,000 mm 0,5 UV-I 81 W/m² 1,8 °C 4,8 °C 3,2 km/h (1 Bft)
09.11.2019 15:11 4,8 °C 80 % 1010,4 hPa 0,0 mm 0,2 km/h (0 Bft) NW 317 ° 0 min 0,000 mm 0,5 UV-I 81 W/m² 1,6 °C 4,8 °C 1,6 km/h (1 Bft)
09.11.2019 15:12 4,8 °C 80 % 1010,4 hPa 0,0 mm 1,3 km/h (1 Bft) NW 317 ° 0 min 0,000 mm 0,5 UV-I 79 W/m² 1,6 °C 4,8 °C 3,2 km/h (1 Bft)
09.11.2019 15:13 4,8 °C 80 % 1010,4 hPa 0,0 mm 0,0 km/h (0 Bft) NW 317 ° 0 min 0,000 mm 0,5 UV-I 79 W/m² 1,6 °C 4,8 °C 0,0 km/h (0 Bft)
09.11.2019 15:14 4,8 °C 81 % 1010,3 hPa 0,0 mm 0,0 km/h (0 Bft) NW 317 ° 0 min 0,000 mm 0,5 UV-I 79 W/m² 1,8 °C 4,8 °C 0,0 km/h (0 Bft)
09.11.2019 15:15 4,8 °C 81 % 1010,3 hPa 0,0 mm 0,0 km/h (0 Bft) NW 317 ° 0 min 0,000 mm 0,5 UV-I 77 W/m² 1,8 °C 4,8 °C 0,0 km/h (0 Bft)
09.11.2019 15:16 4,8 °C 81 % 1010,4 hPa 0,0 mm 0,0 km/h (0 Bft) NW 317 ° 0 min 0,000 mm 0,5 UV-I 76 W/m² 1,8 °C 4,8 °C 0,0 km/h (0 Bft)
09.11.2019 15:17 4,8 °C 81 % 1010,3 hPa 0,0 mm 0,0 km/h (0 Bft) NW 317 ° 0 min 0,000 mm 0,0 UV-I 74 W/m² 1,8 °C 4,8 °C 0,0 km/h (0 Bft)
09.11.2019 15:18 4,8 °C 82 % 1010,3 hPa 0,0 mm 0,0 km/h (0 Bft) NW 317 ° 0 min 0,000 mm 0,0 UV-I 74 W/m² 2,0 °C 4,8 °C 0,0 km/h (0 Bft)
09.11.2019 15:19 4,8 °C 82 % 1010,4 hPa 0,0 mm 0,0 km/h (0 Bft) NW 317 ° 0 min 0,000 mm 0,0 UV-I 74 W/m² 2,0 °C 4,8 °C 0,0 km/h (0 Bft)
09.11.2019 15:20 4,8 °C 81 % 1010,4 hPa 0,0 mm 0,1 km/h (0 Bft) NW 317 ° 0 min 0,000 mm 0,0 UV-I 72 W/m² 1,8 °C 4,8 °C 1,6 km/h (1 Bft)
09.11.2019 15:21 4,8 °C 82 % 1010,4 hPa 0,0 mm 0,0 km/h (0 Bft) NW 317 ° 0 min 0,000 mm 0,0 UV-I 72 W/m² 2,0 °C 4,8 °C 0,0 km/h (0 Bft)
09.11.2019 15:22 4,8 °C 81 % 1010,4 hPa 0,0 mm 0,0 km/h (0 Bft) NW 317 ° 0 min 0,000 mm 0,0 UV-I 70 W/m² 1,8 °C 4,8 °C 0,0 km/h (0 Bft)
09.11.2019 15:23 4,8 °C 81 % 1010,3 hPa 0,0 mm 0,0 km/h (0 Bft) NW 317 ° 0 min 0,000 mm 0,0 UV-I 69 W/m² 1,8 °C 4,8 °C 0,0 km/h (0 Bft)
09.11.2019 15:24 4,8 °C 81 % 1010,3 hPa 0,0 mm 0,0 km/h (0 Bft) NW 317 ° 0 min 0,000 mm 0,0 UV-I 67 W/m² 1,8 °C 4,8 °C 0,0 km/h (0 Bft)
09.11.2019 15:25 4,8 °C 81 % 1010,3 hPa 0,0 mm 0,0 km/h (0 Bft) NW 317 ° 0 min 0,000 mm 0,0 UV-I 65 W/m² 1,8 °C 4,8 °C 0,0 km/h (0 Bft)
09.11.2019 15:26 4,8 °C 81 % 1010,3 hPa 0,0 mm 0,0 km/h (0 Bft) NW 317 ° 0 min 0,000 mm 0,0 UV-I 65 W/m² 1,8 °C 4,8 °C 0,0 km/h (0 Bft)
09.11.2019 15:27 4,8 °C 81 % 1010,3 hPa 0,0 mm 0,0 km/h (0 Bft) NW 317 ° 0 min 0,000 mm 0,0 UV-I 63 W/m² 1,8 °C 4,8 °C 0,0 km/h (0 Bft)
09.11.2019 15:28 4,8 °C 82 % 1010,3 hPa 0,0 mm 0,0 km/h (0 Bft) NW 317 ° 0 min 0,000 mm 0,0 UV-I 62 W/m² 2,0 °C 4,8 °C 0,0 km/h (0 Bft)
09.11.2019 15:29 4,8 °C 81 % 1010,3 hPa 0,0 mm 0,0 km/h (0 Bft) NW 317 ° 0 min 0,000 mm 0,0 UV-I 60 W/m² 1,8 °C 4,8 °C 0,0 km/h (0 Bft)
09.11.2019 15:30 4,7 °C 81 % 1010,3 hPa 0,0 mm 0,0 km/h (0 Bft) NW 317 ° 0 min 0,000 mm 0,0 UV-I 58 W/m² 1,7 °C 4,7 °C 0,0 km/h (0 Bft)
09.11.2019 15:31 4,7 °C 80 % 1010,3 hPa 0,0 mm 0,0 km/h (0 Bft) NW 317 ° 0 min 0,000 mm 0,0 UV-I 58 W/m² 1,6 °C 4,7 °C 0,0 km/h (0 Bft)
09.11.2019 15:32 4,7 °C 80 % 1010,4 hPa 0,0 mm 0,0 km/h (0 Bft) NW 317 ° 0 min 0,000 mm 0,0 UV-I 56 W/m² 1,6 °C 4,7 °C 0,0 km/h (0 Bft)
09.11.2019 15:33 4,7 °C 81 % 1010,4 hPa 0,0 mm 0,0 km/h (0 Bft) NW 317 ° 0 min 0,000 mm 0,0 UV-I 56 W/m² 1,7 °C 4,7 °C 0,0 km/h (0 Bft)
09.11.2019 15:34 4,7 °C 81 % 1010,3 hPa 0,0 mm 0,0 km/h (0 Bft) NW 317 ° 0 min 0,000 mm 0,0 UV-I 56 W/m² 1,7 °C 4,7 °C 0,0 km/h (0 Bft)
09.11.2019 15:35 4,8 °C 82 % 1010,3 hPa 0,0 mm 0,0 km/h (0 Bft) NW 317 ° 0 min 0,000 mm 0,0 UV-I 56 W/m² 2,0 °C 4,8 °C 0,0 km/h (0 Bft)
09.11.2019 15:36 4,8 °C 82 % 1010,3 hPa 0,0 mm 0,0 km/h (0 Bft) NW 317 ° 0 min 0,000 mm 0,0 UV-I 54 W/m² 2,0 °C 4,8 °C 0,0 km/h (0 Bft)
09.11.2019 15:37 4,7 °C 82 % 1010,4 hPa 0,0 mm 0,0 km/h (0 Bft) NW 317 ° 0 min 0,000 mm 0,0 UV-I 53 W/m² 1,9 °C 4,7 °C 0,0 km/h (0 Bft)
09.11.2019 15:38 4,7 °C 81 % 1010,3 hPa 0,0 mm 0,0 km/h (0 Bft) NW 317 ° 0 min 0,000 mm 0,0 UV-I 53 W/m² 1,7 °C 4,7 °C 0,0 km/h (0 Bft)
09.11.2019 15:39 4,7 °C 81 % 1010,4 hPa 0,0 mm 0,0 km/h (0 Bft) NW 317 ° 0 min 0,000 mm 0,0 UV-I 53 W/m² 1,7 °C 4,7 °C 0,0 km/h (0 Bft)
09.11.2019 15:40 4,6 °C 81 % 1010,3 hPa 0,0 mm 0,0 km/h (0 Bft) NW 317 ° 0 min 0,000 mm 0,0 UV-I 51 W/m² 1,6 °C 4,6 °C 0,0 km/h (0 Bft)
09.11.2019 15:41 4,6 °C 82 % 1010,4 hPa 0,0 mm 0,0 km/h (0 Bft) NW 317 ° 0 min 0,000 mm 0,0 UV-I 51 W/m² 1,8 °C 4,6 °C 0,0 km/h (0 Bft)
09.11.2019 15:42 4,6 °C 82 % 1010,4 hPa 0,0 mm 0,0 km/h (0 Bft) NW 317 ° 0 min 0,000 mm 0,0 UV-I 49 W/m² 1,8 °C 4,6 °C 0,0 km/h (0 Bft)
09.11.2019 15:43 4,6 °C 82 % 1010,4 hPa 0,0 mm 0,0 km/h (0 Bft) NW 317 ° 0 min 0,000 mm 0,0 UV-I 47 W/m² 1,8 °C 4,6 °C 0,0 km/h (0 Bft)
09.11.2019 15:44 4,6 °C 82 % 1010,4 hPa 0,0 mm 0,0 km/h (0 Bft) NW 317 ° 0 min 0,000 mm 0,0 UV-I 47 W/m² 1,8 °C 4,6 °C 0,0 km/h (0 Bft)
09.11.2019 15:45 4,6 °C 82 % 1010,4 hPa 0,0 mm 0,0 km/h (0 Bft) NW 317 ° 0 min 0,000 mm 0,0 UV-I 46 W/m² 1,8 °C 4,6 °C 0,0 km/h (0 Bft)
09.11.2019 15:46 4,6 °C 82 % 1010,4 hPa 0,0 mm 0,0 km/h (0 Bft) NW 317 ° 0 min 0,000 mm 0,0 UV-I 44 W/m² 1,8 °C 4,6 °C 0,0 km/h (0 Bft)
09.11.2019 15:47 4,6 °C 82 % 1010,4 hPa 0,0 mm 0,0 km/h (0 Bft) NW 317 ° 0 min 0,000 mm 0,0 UV-I 44 W/m² 1,8 °C 4,6 °C 0,0 km/h (0 Bft)
09.11.2019 15:48 4,6 °C 82 % 1010,4 hPa 0,0 mm 0,0 km/h (0 Bft) NW 317 ° 0 min 0,000 mm 0,0 UV-I 40 W/m² 1,8 °C 4,6 °C 0,0 km/h (0 Bft)
09.11.2019 15:49 4,6 °C 82 % 1010,4 hPa 0,0 mm 0,0 km/h (0 Bft) NW 317 ° 0 min 0,000 mm 0,0 UV-I 40 W/m² 1,8 °C 4,6 °C 0,0 km/h (0 Bft)
09.11.2019 15:50 4,6 °C 83 % 1010,4 hPa 0,0 mm 0,0 km/h (0 Bft) NW 317 ° 0 min 0,000 mm 0,0 UV-I 39 W/m² 2,0 °C 4,6 °C 0,0 km/h (0 Bft)
09.11.2019 15:51 4,6 °C 83 % 1010,4 hPa 0,0 mm 0,0 km/h (0 Bft) NW 317 ° 0 min 0,000 mm 0,0 UV-I 39 W/m² 2,0 °C 4,6 °C 0,0 km/h (0 Bft)
09.11.2019 15:52 4,6 °C 83 % 1010,5 hPa 0,0 mm 0,0 km/h (0 Bft) NW 317 ° 0 min 0,000 mm 0,0 UV-I 39 W/m² 2,0 °C 4,6 °C 0,0 km/h (0 Bft)
09.11.2019 15:53 4,6 °C 83 % 1010,5 hPa 0,0 mm 0,0 km/h (0 Bft) NW 317 ° 0 min 0,000 mm 0,0 UV-I 37 W/m² 2,0 °C 4,6 °C 0,0 km/h (0 Bft)
09.11.2019 15:54 4,6 °C 83 % 1010,5 hPa 0,0 mm 0,0 km/h (0 Bft) NW 317 ° 0 min 0,000 mm 0,0 UV-I 37 W/m² 2,0 °C 4,6 °C 0,0 km/h (0 Bft)
09.11.2019 15:55 4,6 °C 83 % 1010,5 hPa 0,0 mm 0,0 km/h (0 Bft) NW 317 ° 0 min 0,000 mm 0,0 UV-I 37 W/m² 2,0 °C 4,6 °C 0,0 km/h (0 Bft)
09.11.2019 15:56 4,5 °C 83 % 1010,5 hPa 0,0 mm 0,0 km/h (0 Bft) NW 317 ° 0 min 0,000 mm 0,0 UV-I 35 W/m² 1,9 °C 4,5 °C 0,0 km/h (0 Bft)
09.11.2019 15:57 4,6 °C 83 % 1010,5 hPa 0,0 mm 0,0 km/h (0 Bft) NW 317 ° 0 min 0,000 mm 0,0 UV-I 35 W/m² 2,0 °C 4,6 °C 0,0 km/h (0 Bft)
09.11.2019 15:58 4,5 °C 83 % 1010,5 hPa 0,0 mm 0,0 km/h (0 Bft) NW 317 ° 0 min 0,000 mm 0,0 UV-I 33 W/m² 1,9 °C 4,5 °C 0,0 km/h (0 Bft)
09.11.2019 15:59 4,5 °C 83 % 1010,5 hPa 0,0 mm 0,0 km/h (0 Bft) NW 317 ° 0 min 0,000 mm 0,0 UV-I 32 W/m² 1,9 °C 4,5 °C 0,0 km/h (0 Bft)
09.11.2019 16:00 4,5 °C 83 % 1010,5 hPa 0,0 mm 0,0 km/h (0 Bft) NW 317 ° 0 min 0,000 mm 0,0 UV-I 32 W/m² 1,9 °C 4,5 °C 0,0 km/h (0 Bft)
09.11.2019 16:01 4,5 °C 84 % 1010,5 hPa 0,0 mm 0,0 km/h (0 Bft) NW 317 ° 0 min 0,025 mm 0,0 UV-I 30 W/m² 2,0 °C 4,5 °C 0,0 km/h (0 Bft)
09.11.2019 16:02 4,5 °C 84 % 1010,5 hPa 0,0 mm 0,0 km/h (0 Bft) NW 317 ° 0 min 0,000 mm 0,0 UV-I 30 W/m² 2,0 °C 4,5 °C 0,0 km/h (0 Bft)
09.11.2019 16:03 4,5 °C 84 % 1010,4 hPa 0,0 mm 0,0 km/h (0 Bft) NW 317 ° 0 min 0,000 mm 0,0 UV-I 30 W/m² 2,0 °C 4,5 °C 0,0 km/h (0 Bft)
09.11.2019 16:04 4,5 °C 84 % 1010,5 hPa 0,0 mm 0,0 km/h (0 Bft) NW 317 ° 0 min 0,000 mm 0,0 UV-I 28 W/m² 2,0 °C 4,5 °C 0,0 km/h (0 Bft)
09.11.2019 16:05 4,5 °C 84 % 1010,5 hPa 0,0 mm 0,0 km/h (0 Bft) NW 317 ° 0 min 0,000 mm 0,0 UV-I 28 W/m² 2,0 °C 4,5 °C 0,0 km/h (0 Bft)
09.11.2019 16:06 4,5 °C 85 % 1010,4 hPa 0,2 mm 0,0 km/h (0 Bft) NW 317 ° 0 min 0,000 mm 0,0 UV-I 28 W/m² 2,2 °C 4,5 °C 0,0 km/h (0 Bft)
09.11.2019 16:07 4,5 °C 85 % 1010,4 hPa 0,0 mm 0,0 km/h (0 Bft) NW 317 ° 0 min 0,000 mm 0,0 UV-I 28 W/m² 2,2 °C 4,5 °C 0,0 km/h (0 Bft)
09.11.2019 16:08 4,4 °C 85 % 1010,4 hPa 0,0 mm 0,0 km/h (0 Bft) NW 317 ° 0 min 0,000 mm 0,0 UV-I 26 W/m² 2,1 °C 4,4 °C 0,0 km/h (0 Bft)
09.11.2019 16:09 4,4 °C 84 % 1010,4 hPa 0,0 mm 0,2 km/h (0 Bft) NW 319 ° 0 min 0,000 mm 0,0 UV-I 26 W/m² 1,9 °C 4,4 °C 3,2 km/h (1 Bft)
09.11.2019 16:10 4,4 °C 84 % 1010,4 hPa 0,0 mm 4,1 km/h (1 Bft) N 11 ° 0 min 0,000 mm 0,0 UV-I 25 W/m² 1,9 °C 4,4 °C 4,8 km/h (1 Bft)
09.11.2019 16:11 4,4 °C 84 % 1010,4 hPa 0,0 mm 1,4 km/h (1 Bft) N 11 ° 0 min 0,000 mm 0,0 UV-I 23 W/m² 1,9 °C 4,4 °C 3,2 km/h (1 Bft)
09.11.2019 16:12 4,4 °C 84 % 1010,4 hPa 0,0 mm 0,0 km/h (0 Bft) N 11 ° 0 min 0,000 mm 0,0 UV-I 23 W/m² 1,9 °C 4,4 °C 0,0 km/h (0 Bft)
09.11.2019 16:13 4,4 °C 84 % 1010,4 hPa 0,0 mm 0,0 km/h (0 Bft) N 11 ° 0 min 0,000 mm 0,0 UV-I 21 W/m² 1,9 °C 4,4 °C 0,0 km/h (0 Bft)
09.11.2019 16:14 4,5 °C 84 % 1010,4 hPa 0,0 mm 1,8 km/h (1 Bft) N 11 ° 0 min 0,000 mm 0,0 UV-I 21 W/m² 2,0 °C 4,5 °C 3,2 km/h (1 Bft)
09.11.2019 16:15 4,4 °C 84 % 1010,4 hPa 0,0 mm 3,6 km/h (1 Bft) N 11 ° 0 min 0,000 mm 0,0 UV-I 21 W/m² 1,9 °C 4,4 °C 4,8 km/h (1 Bft)
09.11.2019 16:16 4,4 °C 84 % 1010,4 hPa 0,0 mm 2,1 km/h (1 Bft) N 11 ° 0 min 0,000 mm 0,0 UV-I 21 W/m² 1,9 °C 4,4 °C 4,8 km/h (1 Bft)
09.11.2019 16:17 4,4 °C 84 % 1010,4 hPa 0,0 mm 1,1 km/h (1 Bft) N 11 ° 0 min 0,000 mm 0,0 UV-I 19 W/m² 1,9 °C 4,4 °C 3,2 km/h (1 Bft)
09.11.2019 16:18 4,4 °C 85 % 1010,4 hPa 0,0 mm 1,1 km/h (1 Bft) N 11 ° 0 min 0,000 mm 0,0 UV-I 19 W/m² 2,1 °C 4,4 °C 3,2 km/h (1 Bft)
09.11.2019 16:19 4,5 °C 85 % 1010,4 hPa 0,0 mm 0,0 km/h (0 Bft) N 11 ° 0 min 0,000 mm 0,0 UV-I 19 W/m² 2,2 °C 4,5 °C 0,0 km/h (0 Bft)
09.11.2019 16:20 4,4 °C 85 % 1010,4 hPa 0,0 mm 0,0 km/h (0 Bft) N 11 ° 0 min 0,000 mm 0,0 UV-I 19 W/m² 2,1 °C 4,4 °C 0,0 km/h (0 Bft)
09.11.2019 16:21 4,4 °C 85 % 1010,4 hPa 0,0 mm 0,0 km/h (0 Bft) N 11 ° 0 min 0,000 mm 0,0 UV-I 19 W/m² 2,1 °C 4,4 °C 0,0 km/h (0 Bft)
09.11.2019 16:22 4,4 °C 85 % 1010,4 hPa 0,0 mm 0,0 km/h (0 Bft) N 11 ° 0 min 0,000 mm 0,0 UV-I 18 W/m² 2,1 °C 4,4 °C 0,0 km/h (0 Bft)
09.11.2019 16:23 4,4 °C 85 % 1010,4 hPa 0,0 mm 0,0 km/h (0 Bft) N 11 ° 0 min 0,000 mm 0,0 UV-I 16 W/m² 2,1 °C 4,4 °C 0,0 km/h (0 Bft)
09.11.2019 16:24 4,4 °C 85 % 1010,4 hPa 0,0 mm 0,0 km/h (0 Bft) N 11 ° 0 min 0,000 mm 0,0 UV-I 16 W/m² 2,1 °C 4,4 °C 0,0 km/h (0 Bft)
09.11.2019 16:25 4,4 °C 85 % 1010,4 hPa 0,0 mm 0,0 km/h (0 Bft) N 11 ° 0 min 0,000 mm 0,0 UV-I 14 W/m² 2,1 °C 4,4 °C 0,0 km/h (0 Bft)
09.11.2019 16:26 4,4 °C 85 % 1010,4 hPa 0,0 mm 0,0 km/h (0 Bft) N 11 ° 0 min 0,000 mm 0,0 UV-I 14 W/m² 2,1 °C 4,4 °C 0,0 km/h (0 Bft)
09.11.2019 16:27 4,4 °C 85 % 1010,4 hPa 0,0 mm 0,0 km/h (0 Bft) N 11 ° 0 min 0,000 mm 0,0 UV-I 14 W/m² 2,1 °C 4,4 °C 0,0 km/h (0 Bft)
09.11.2019 16:28 4,4 °C 85 % 1010,5 hPa 0,0 mm 0,0 km/h (0 Bft) N 11 ° 0 min 0,000 mm 0,0 UV-I 12 W/m² 2,1 °C 4,4 °C 0,0 km/h (0 Bft)
09.11.2019 16:29 4,4 °C 85 % 1010,4 hPa 0,0 mm 0,0 km/h (0 Bft) N 11 ° 0 min 0,000 mm 0,0 UV-I 12 W/m² 2,1 °C 4,4 °C 0,0 km/h (0 Bft)
09.11.2019 16:30 4,4 °C 85 % 1010,5 hPa 0,0 mm 0,0 km/h (0 Bft) N 11 ° 0 min 0,000 mm 0,0 UV-I 12 W/m² 2,1 °C 4,4 °C 0,0 km/h (0 Bft)
09.11.2019 16:31 4,4 °C 85 % 1010,5 hPa 0,0 mm 0,0 km/h (0 Bft) N 11 ° 0 min 0,000 mm 0,0 UV-I 12 W/m² 2,1 °C 4,4 °C 0,0 km/h (0 Bft)
09.11.2019 16:32 4,4 °C 85 % 1010,5 hPa 0,0 mm 0,0 km/h (0 Bft) N 11 ° 0 min 0,000 mm 0,0 UV-I 11 W/m² 2,1 °C 4,4 °C 0,0 km/h (0 Bft)
09.11.2019 16:33 4,4 °C 85 % 1010,4 hPa 0,0 mm 1,5 km/h (1 Bft) N-NO 17 ° 0 min 0,000 mm 0,0 UV-I 11 W/m² 2,1 °C 4,4 °C 3,2 km/h (1 Bft)
09.11.2019 16:34 4,4 °C 85 % 1010,4 hPa 0,0 mm 0,3 km/h (0 Bft) N-NO 17 ° 0 min 0,000 mm 0,0 UV-I 9 W/m² 2,1 °C 4,4 °C 1,6 km/h (1 Bft)
09.11.2019 16:35 4,4 °C 85 % 1010,4 hPa 0,0 mm 0,0 km/h (0 Bft) N-NO 17 ° 0 min 0,000 mm 0,0 UV-I 9 W/m² 2,1 °C 4,4 °C 0,0 km/h (0 Bft)
09.11.2019 16:36 4,4 °C 85 % 1010,4 hPa 0,0 mm 0,0 km/h (0 Bft) N-NO 17 ° 0 min 0,000 mm 0,0 UV-I 9 W/m² 2,1 °C 4,4 °C 0,0 km/h (0 Bft)
09.11.2019 16:37 4,4 °C 85 % 1010,4 hPa 0,0 mm 0,0 km/h (0 Bft) N-NO 17 ° 0 min 0,000 mm 0,0 UV-I 9 W/m² 2,1 °C 4,4 °C 0,0 km/h (0 Bft)
09.11.2019 16:38 4,3 °C 85 % 1010,4 hPa 0,0 mm 0,0 km/h (0 Bft) N-NO 17 ° 0 min 0,000 mm 0,0 UV-I 9 W/m² 2,0 °C 4,3 °C 0,0 km/h (0 Bft)
09.11.2019 16:39 4,3 °C 85 % 1010,4 hPa 0,0 mm 0,0 km/h (0 Bft) N-NO 17 ° 0 min 0,000 mm 0,0 UV-I 7 W/m² 2,0 °C 4,3 °C 0,0 km/h (0 Bft)
09.11.2019 16:40 4,3 °C 85 % 1010,4 hPa 0,0 mm 0,0 km/h (0 Bft) N-NO 17 ° 0 min 0,000 mm 0,0 UV-I 7 W/m² 2,0 °C 4,3 °C 0,0 km/h (0 Bft)
09.11.2019 16:41 4,3 °C 85 % 1010,4 hPa 0,0 mm 0,0 km/h (0 Bft) N-NO 17 ° 0 min 0,000 mm 0,0 UV-I 5 W/m² 2,0 °C 4,3 °C 0,0 km/h (0 Bft)
09.11.2019 16:42 4,3 °C 85 % 1010,4 hPa 0,0 mm 0,0 km/h (0 Bft) N-NO 17 ° 0 min 0,000 mm 0,0 UV-I 5 W/m² 2,0 °C 4,3 °C 0,0 km/h (0 Bft)
09.11.2019 16:43 4,3 °C 85 % 1010,4 hPa 0,0 mm 0,0 km/h (0 Bft) N-NO 17 ° 0 min 0,000 mm 0,0 UV-I 5 W/m² 2,0 °C 4,3 °C 0,0 km/h (0 Bft)
09.11.2019 16:44 4,3 °C 85 % 1010,4 hPa 0,0 mm 0,0 km/h (0 Bft) N-NO 17 ° 0 min 0,000 mm 0,0 UV-I 5 W/m² 2,0 °C 4,3 °C 0,0 km/h (0 Bft)
09.11.2019 16:45 4,3 °C 85 % 1010,4 hPa 0,0 mm 0,0 km/h (0 Bft) N-NO 17 ° 0 min 0,000 mm 0,0 UV-I 5 W/m² 2,0 °C 4,3 °C 0,0 km/h (0 Bft)
09.11.2019 16:46 4,3 °C 85 % 1010,4 hPa 0,0 mm 0,0 km/h (0 Bft) N-NO 17 ° 0 min 0,000 mm 0,0 UV-I 0 W/m² 2,0 °C 4,3 °C 0,0 km/h (0 Bft)
09.11.2019 16:47 4,3 °C 85 % 1010,4 hPa 0,0 mm 0,0 km/h (0 Bft) N-NO 17 ° 0 min 0,000 mm 0,0 UV-I 0 W/m² 2,0 °C 4,3 °C 0,0 km/h (0 Bft)
09.11.2019 16:48 4,3 °C 85 % 1010,4 hPa 0,0 mm 0,0 km/h (0 Bft) N-NO 17 ° 0 min 0,000 mm 0,0 UV-I 0 W/m² 2,0 °C 4,3 °C 0,0 km/h (0 Bft)
09.11.2019 16:49 4,2 °C 85 % 1010,4 hPa 0,0 mm 0,0 km/h (0 Bft) N-NO 17 ° 0 min 0,000 mm 0,0 UV-I 0 W/m² 1,9 °C 4,2 °C 0,0 km/h (0 Bft)
09.11.2019 16:50 4,3 °C 85 % 1010,4 hPa 0,0 mm 0,0 km/h (0 Bft) N-NO 17 ° 0 min 0,000 mm 0,0 UV-I 0 W/m² 2,0 °C 4,3 °C 0,0 km/h (0 Bft)
09.11.2019 16:51 4,2 °C 85 % 1010,4 hPa 0,0 mm 0,0 km/h (0 Bft) N-NO 17 ° 0 min 0,000 mm 0,0 UV-I 0 W/m² 1,9 °C 4,2 °C 0,0 km/h (0 Bft)
09.11.2019 16:52 4,2 °C 85 % 1010,4 hPa 0,0 mm 0,0 km/h (0 Bft) N-NO 17 ° 0 min 0,000 mm 0,0 UV-I 0 W/m² 1,9 °C 4,2 °C 0,0 km/h (0 Bft)
09.11.2019 16:53 4,2 °C 85 % 1010,4 hPa 0,0 mm 0,0 km/h (0 Bft) N-NO 17 ° 0 min 0,000 mm 0,0 UV-I 0 W/m² 1,9 °C 4,2 °C 0,0 km/h (0 Bft)
09.11.2019 16:54 4,2 °C 85 % 1010,4 hPa 0,0 mm 0,0 km/h (0 Bft) N-NO 17 ° 0 min 0,000 mm 0,0 UV-I 0 W/m² 1,9 °C 4,2 °C 0,0 km/h (0 Bft)
09.11.2019 16:55 4,2 °C 85 % 1010,4 hPa 0,0 mm 0,0 km/h (0 Bft) N-NO 17 ° 0 min 0,000 mm 0,0 UV-I 0 W/m² 1,9 °C 4,2 °C 0,0 km/h (0 Bft)
09.11.2019 16:56 4,2 °C 85 % 1010,3 hPa 0,0 mm 0,0 km/h (0 Bft) N-NO 17 ° 0 min 0,000 mm 0,0 UV-I 0 W/m² 1,9 °C 4,2 °C 0,0 km/h (0 Bft)
09.11.2019 16:57 4,2 °C 85 % 1010,4 hPa 0,0 mm 0,0 km/h (0 Bft) N-NO 17 ° 0 min 0,000 mm 0,0 UV-I 0 W/m² 1,9 °C 4,2 °C 0,0 km/h (0 Bft)
09.11.2019 16:58 4,2 °C 85 % 1010,3 hPa 0,0 mm 0,0 km/h (0 Bft) N-NO 17 ° 0 min 0,000 mm 0,0 UV-I 0 W/m² 1,9 °C 4,2 °C 0,0 km/h (0 Bft)
09.11.2019 16:59 4,1 °C 85 % 1010,3 hPa 0,0 mm 0,0 km/h (0 Bft) N-NO 17 ° 0 min 0,000 mm 0,0 UV-I 0 W/m² 1,8 °C 4,1 °C 0,0 km/h (0 Bft)
09.11.2019 17:00 4,1 °C 85 % 1010,3 hPa 0,0 mm 0,0 km/h (0 Bft) N-NO 17 ° 0 min 0,000 mm 0,0 UV-I 0 W/m² 1,8 °C 4,1 °C 0,0 km/h (0 Bft)
09.11.2019 17:01 4,1 °C 85 % 1010,4 hPa 0,0 mm 0,0 km/h (0 Bft) N-NO 17 ° 0 min 0,000 mm 0,0 UV-I 0 W/m² 1,8 °C 4,1 °C 0,0 km/h (0 Bft)
09.11.2019 17:02 4,1 °C 85 % 1010,4 hPa 0,0 mm 0,0 km/h (0 Bft) N-NO 17 ° 0 min 0,000 mm 0,0 UV-I 0 W/m² 1,8 °C 4,1 °C 0,0 km/h (0 Bft)
09.11.2019 17:03 4,1 °C 85 % 1010,4 hPa 0,0 mm 0,0 km/h (0 Bft) N-NO 17 ° 0 min 0,000 mm 0,0 UV-I 0 W/m² 1,8 °C 4,1 °C 0,0 km/h (0 Bft)
09.11.2019 17:04 4,1 °C 85 % 1010,4 hPa 0,0 mm 0,0 km/h (0 Bft) N-NO 17 ° 0 min 0,000 mm 0,0 UV-I 0 W/m² 1,8 °C 4,1 °C 0,0 km/h (0 Bft)
09.11.2019 17:05 4,1 °C 85 % 1010,4 hPa 0,0 mm 0,0 km/h (0 Bft) N-NO 17 ° 0 min 0,000 mm 0,0 UV-I 0 W/m² 1,8 °C 4,1 °C 0,0 km/h (0 Bft)
09.11.2019 17:06 4,0 °C 85 % 1010,4 hPa 0,0 mm 0,0 km/h (0 Bft) N-NO 17 ° 0 min 0,000 mm 0,0 UV-I 0 W/m² 1,7 °C 4,0 °C 0,0 km/h (0 Bft)
09.11.2019 17:07 4,0 °C 85 % 1010,4 hPa 0,0 mm 0,0 km/h (0 Bft) N-NO 17 ° 0 min 0,000 mm 0,0 UV-I 0 W/m² 1,7 °C 4,0 °C 0,0 km/h (0 Bft)
09.11.2019 17:08 4,0 °C 85 % 1010,4 hPa 0,0 mm 0,0 km/h (0 Bft) N-NO 17 ° 0 min 0,000 mm 0,0 UV-I 0 W/m² 1,7 °C 4,0 °C 0,0 km/h (0 Bft)
09.11.2019 17:09 4,0 °C 85 % 1010,4 hPa 0,0 mm 0,0 km/h (0 Bft) N-NO 17 ° 0 min 0,000 mm 0,0 UV-I 0 W/m² 1,7 °C 4,0 °C 0,0 km/h (0 Bft)
09.11.2019 17:10 4,0 °C 85 % 1010,4 hPa 0,0 mm 0,0 km/h (0 Bft) N-NO 17 ° 0 min 0,000 mm 0,0 UV-I 0 W/m² 1,7 °C 4,0 °C 0,0 km/h (0 Bft)
09.11.2019 17:11 3,9 °C 85 % 1010,4 hPa 0,0 mm 0,0 km/h (0 Bft) N-NO 17 ° 0 min 0,000 mm 0,0 UV-I 0 W/m² 1,6 °C 3,9 °C 0,0 km/h (0 Bft)
09.11.2019 17:12 3,9 °C 85 % 1010,4 hPa 0,0 mm 0,0 km/h (0 Bft) N-NO 17 ° 0 min 0,000 mm 0,0 UV-I 0 W/m² 1,6 °C 3,9 °C 0,0 km/h (0 Bft)
09.11.2019 17:13 3,9 °C 85 % 1010,4 hPa 0,0 mm 0,0 km/h (0 Bft) N-NO 17 ° 0 min 0,000 mm 0,0 UV-I 0 W/m² 1,6 °C 3,9 °C 0,0 km/h (0 Bft)
09.11.2019 17:14 3,9 °C 85 % 1010,4 hPa 0,0 mm 0,0 km/h (0 Bft) N-NO 17 ° 0 min 0,000 mm 0,0 UV-I 0 W/m² 1,6 °C 3,9 °C 0,0 km/h (0 Bft)
09.11.2019 17:15 3,9 °C 85 % 1010,4 hPa 0,0 mm 0,0 km/h (0 Bft) N-NO 17 ° 0 min 0,000 mm 0,0 UV-I 0 W/m² 1,6 °C 3,9 °C 0,0 km/h (0 Bft)
09.11.2019 17:16 3,9 °C 85 % 1010,4 hPa 0,0 mm 0,0 km/h (0 Bft) N-NO 17 ° 0 min 0,000 mm 0,0 UV-I 0 W/m² 1,6 °C 3,9 °C 0,0 km/h (0 Bft)
09.11.2019 17:17 3,8 °C 85 % 1010,4 hPa 0,0 mm 0,0 km/h (0 Bft) N-NO 17 ° 0 min 0,000 mm 0,0 UV-I 0 W/m² 1,5 °C 3,8 °C 0,0 km/h (0 Bft)
09.11.2019 17:18 3,8 °C 85 % 1010,4 hPa 0,0 mm 0,0 km/h (0 Bft) N-NO 17 ° 0 min 0,000 mm 0,0 UV-I 0 W/m² 1,5 °C 3,8 °C 0,0 km/h (0 Bft)
09.11.2019 17:19 3,8 °C 85 % 1010,4 hPa 0,0 mm 0,0 km/h (0 Bft) N-NO 17 ° 0 min 0,000 mm 0,0 UV-I 0 W/m² 1,5 °C 3,8 °C 0,0 km/h (0 Bft)
09.11.2019 17:20 3,8 °C 85 % 1010,4 hPa 0,0 mm 0,0 km/h (0 Bft) N-NO 17 ° 0 min 0,000 mm 0,0 UV-I 0 W/m² 1,5 °C 3,8 °C 0,0 km/h (0 Bft)
09.11.2019 17:21 3,8 °C 86 % 1010,4 hPa 0,0 mm 0,0 km/h (0 Bft) N-NO 17 ° 0 min 0,000 mm 0,0 UV-I 0 W/m² 1,7 °C 3,8 °C 0,0 km/h (0 Bft)
09.11.2019 17:22 3,8 °C 86 % 1010,4 hPa 0,0 mm 0,0 km/h (0 Bft) N-NO 17 ° 0 min 0,000 mm 0,0 UV-I 0 W/m² 1,7 °C 3,8 °C 0,0 km/h (0 Bft)
09.11.2019 17:23 3,7 °C 85 % 1010,4 hPa 0,0 mm 0,0 km/h (0 Bft) N-NO 17 ° 0 min 0,000 mm 0,0 UV-I 0 W/m² 1,4 °C 3,7 °C 0,0 km/h (0 Bft)
09.11.2019 17:24 3,7 °C 85 % 1010,4 hPa 0,0 mm 0,0 km/h (0 Bft) N-NO 17 ° 0 min 0,000 mm 0,0 UV-I 0 W/m² 1,4 °C 3,7 °C 0,0 km/h (0 Bft)
09.11.2019 17:25 3,7 °C 85 % 1010,4 hPa 0,0 mm 0,0 km/h (0 Bft) N-NO 17 ° 0 min 0,000 mm 0,0 UV-I 0 W/m² 1,4 °C 3,7 °C 0,0 km/h (0 Bft)
09.11.2019 17:26 3,7 °C 86 % 1010,4 hPa 0,0 mm 0,0 km/h (0 Bft) N-NO 17 ° 0 min 0,000 mm 0,0 UV-I 0 W/m² 1,6 °C 3,7 °C 0,0 km/h (0 Bft)
09.11.2019 17:27 3,7 °C 85 % 1010,4 hPa 0,0 mm 0,0 km/h (0 Bft) N-NO 17 ° 0 min 0,000 mm 0,0 UV-I 0 W/m² 1,4 °C 3,7 °C 0,0 km/h (0 Bft)
09.11.2019 17:28 3,7 °C 86 % 1010,4 hPa 0,0 mm 0,0 km/h (0 Bft) N-NO 17 ° 0 min 0,000 mm 0,0 UV-I 0 W/m² 1,6 °C 3,7 °C 0,0 km/h (0 Bft)
09.11.2019 17:29 3,6 °C 86 % 1010,4 hPa 0,0 mm 0,0 km/h (0 Bft) N-NO 17 ° 0 min 0,000 mm 0,0 UV-I 0 W/m² 1,5 °C 3,6 °C 0,0 km/h (0 Bft)
09.11.2019 17:30 3,6 °C 86 % 1010,5 hPa 0,0 mm 0,0 km/h (0 Bft) N-NO 17 ° 0 min 0,000 mm 0,0 UV-I 0 W/m² 1,5 °C 3,6 °C 0,0 km/h (0 Bft)
09.11.2019 17:31 3,6 °C 86 % 1010,4 hPa 0,0 mm 0,0 km/h (0 Bft) N-NO 17 ° 0 min 0,000 mm 0,0 UV-I 0 W/m² 1,5 °C 3,6 °C 0,0 km/h (0 Bft)
09.11.2019 17:32 3,6 °C 86 % 1010,4 hPa 0,0 mm 0,0 km/h (0 Bft) N-NO 17 ° 0 min 0,000 mm 0,0 UV-I 0 W/m² 1,5 °C 3,6 °C 0,0 km/h (0 Bft)
09.11.2019 17:33 3,5 °C 86 % 1010,4 hPa 0,0 mm 0,0 km/h (0 Bft) N-NO 17 ° 0 min 0,000 mm 0,0 UV-I 0 W/m² 1,4 °C 3,5 °C 0,0 km/h (0 Bft)
09.11.2019 17:34 3,5 °C 86 % 1010,4 hPa 0,0 mm 0,0 km/h (0 Bft) N-NO 17 ° 0 min 0,000 mm 0,0 UV-I 0 W/m² 1,4 °C 3,5 °C 0,0 km/h (0 Bft)
09.11.2019 17:35 3,5 °C 86 % 1010,4 hPa 0,0 mm 0,0 km/h (0 Bft) N-NO 17 ° 0 min 0,000 mm 0,0 UV-I 0 W/m² 1,4 °C 3,5 °C 0,0 km/h (0 Bft)
09.11.2019 17:36 3,4 °C 86 % 1010,4 hPa 0,0 mm 0,0 km/h (0 Bft) N-NO 17 ° 0 min 0,000 mm 0,0 UV-I 0 W/m² 1,3 °C 3,4 °C 0,0 km/h (0 Bft)
09.11.2019 17:37 3,4 °C 86 % 1010,4 hPa 0,0 mm 0,0 km/h (0 Bft) N-NO 17 ° 0 min 0,000 mm 0,0 UV-I 0 W/m² 1,3 °C 3,4 °C 0,0 km/h (0 Bft)
09.11.2019 17:38 3,4 °C 86 % 1010,5 hPa 0,0 mm 0,0 km/h (0 Bft) N-NO 17 ° 0 min 0,000 mm 0,0 UV-I 0 W/m² 1,3 °C 3,4 °C 0,0 km/h (0 Bft)
09.11.2019 17:39 3,3 °C 87 % 1010,4 hPa 0,0 mm 0,0 km/h (0 Bft) N-NO 17 ° 0 min 0,000 mm 0,0 UV-I 0 W/m² 1,3 °C 3,3 °C 0,0 km/h (0 Bft)
09.11.2019 17:40 3,3 °C 87 % 1010,4 hPa 0,0 mm 0,0 km/h (0 Bft) N-NO 17 ° 0 min 0,000 mm 0,0 UV-I 0 W/m² 1,3 °C 3,3 °C 0,0 km/h (0 Bft)
09.11.2019 17:41 3,3 °C 87 % 1010,5 hPa 0,0 mm 0,0 km/h (0 Bft) N-NO 17 ° 0 min 0,000 mm 0,0 UV-I 0 W/m² 1,3 °C 3,3 °C 0,0 km/h (0 Bft)
09.11.2019 17:42 3,3 °C 87 % 1010,5 hPa 0,0 mm 0,0 km/h (0 Bft) N-NO 17 ° 0 min 0,000 mm 0,0 UV-I 0 W/m² 1,3 °C 3,3 °C 0,0 km/h (0 Bft)
09.11.2019 17:43 3,2 °C 87 % 1010,5 hPa 0,0 mm 0,0 km/h (0 Bft) N-NO 17 ° 0 min 0,000 mm 0,0 UV-I 0 W/m² 1,2 °C 3,2 °C 0,0 km/h (0 Bft)
09.11.2019 17:44 3,2 °C 87 % 1010,5 hPa 0,0 mm 0,0 km/h (0 Bft) N-NO 17 ° 0 min 0,000 mm 0,0 UV-I 0 W/m² 1,2 °C 3,2 °C 0,0 km/h (0 Bft)
09.11.2019 17:45 3,2 °C 87 % 1010,5 hPa 0,0 mm 0,0 km/h (0 Bft) N-NO 17 ° 0 min 0,000 mm 0,0 UV-I 0 W/m² 1,2 °C 3,2 °C 0,0 km/h (0 Bft)
09.11.2019 17:46 3,1 °C 87 % 1010,4 hPa 0,0 mm 0,0 km/h (0 Bft) N-NO 17 ° 0 min 0,000 mm 0,0 UV-I 0 W/m² 1,2 °C 3,1 °C 0,0 km/h (0 Bft)
09.11.2019 17:47 3,1 °C 87 % 1010,4 hPa 0,0 mm 0,0 km/h (0 Bft) N-NO 17 ° 0 min 0,000 mm 0,0 UV-I 0 W/m² 1,2 °C 3,1 °C 0,0 km/h (0 Bft)
09.11.2019 17:48 3,1 °C 87 % 1010,5 hPa 0,0 mm 0,0 km/h (0 Bft) N-NO 17 ° 0 min 0,000 mm 0,0 UV-I 0 W/m² 1,2 °C 3,1 °C 0,0 km/h (0 Bft)
09.11.2019 17:49 3,1 °C 87 % 1010,4 hPa 0,0 mm 0,0 km/h (0 Bft) N-NO 17 ° 0 min 0,000 mm 0,0 UV-I 0 W/m² 1,2 °C 3,1 °C 0,0 km/h (0 Bft)
09.11.2019 17:50 3,0 °C 87 % 1010,5 hPa 0,0 mm 0,0 km/h (0 Bft) N-NO 17 ° 0 min 0,000 mm 0,0 UV-I 0 W/m² 1,1 °C 3,0 °C 0,0 km/h (0 Bft)
09.11.2019 17:51 3,0 °C 87 % 1010,5 hPa 0,0 mm 0,0 km/h (0 Bft) N-NO 17 ° 0 min 0,000 mm 0,0 UV-I 0 W/m² 1,1 °C 3,0 °C 0,0 km/h (0 Bft)
09.11.2019 17:52 2,9 °C 87 % 1010,5 hPa 0,0 mm 0,0 km/h (0 Bft) N-NO 17 ° 0 min 0,000 mm 0,0 UV-I 0 W/m² 1,0 °C 2,9 °C 0,0 km/h (0 Bft)
09.11.2019 17:53 2,9 °C 87 % 1010,6 hPa 0,0 mm 0,0 km/h (0 Bft) N-NO 17 ° 0 min 0,000 mm 0,0 UV-I 0 W/m² 1,0 °C 2,9 °C 0,0 km/h (0 Bft)
09.11.2019 17:54 2,8 °C 87 % 1010,5 hPa 0,0 mm 0,0 km/h (0 Bft) N-NO 17 ° 0 min 0,000 mm 0,0 UV-I 0 W/m² 0,9 °C 2,8 °C 0,0 km/h (0 Bft)
09.11.2019 17:55 2,8 °C 87 % 1010,5 hPa 0,0 mm 0,0 km/h (0 Bft) N-NO 17 ° 0 min 0,000 mm 0,0 UV-I 0 W/m² 0,9 °C 2,8 °C 0,0 km/h (0 Bft)
09.11.2019 17:56 2,8 °C 87 % 1010,5 hPa 0,0 mm 0,0 km/h (0 Bft) N-NO 17 ° 0 min 0,000 mm 0,0 UV-I 0 W/m² 0,9 °C 2,8 °C 0,0 km/h (0 Bft)
09.11.2019 17:57 2,8 °C 87 % 1010,5 hPa 0,0 mm 0,0 km/h (0 Bft) N-NO 17 ° 0 min 0,000 mm 0,0 UV-I 0 W/m² 0,9 °C 2,8 °C 0,0 km/h (0 Bft)
09.11.2019 17:58 2,7 °C 87 % 1010,5 hPa 0,0 mm 0,0 km/h (0 Bft) N-NO 17 ° 0 min 0,000 mm 0,0 UV-I 0 W/m² 0,8 °C 2,7 °C 0,0 km/h (0 Bft)
09.11.2019 17:59 2,7 °C 87 % 1010,5 hPa 0,0 mm 0,0 km/h (0 Bft) N-NO 17 ° 0 min 0,000 mm 0,0 UV-I 0 W/m² 0,8 °C 2,7 °C 0,0 km/h (0 Bft)
09.11.2019 18:00 2,7 °C 87 % 1010,5 hPa 0,0 mm 0,0 km/h (0 Bft) N-NO 17 ° 0 min 0,000 mm 0,0 UV-I 0 W/m² 0,8 °C 2,7 °C 0,0 km/h (0 Bft)
09.11.2019 18:01 2,6 °C 87 % 1010,5 hPa 0,0 mm 0,0 km/h (0 Bft) N-NO 17 ° 0 min 0,000 mm 0,0 UV-I 0 W/m² 0,7 °C 2,6 °C 0,0 km/h (0 Bft)
09.11.2019 18:02 2,6 °C 87 % 1010,5 hPa 0,0 mm 0,0 km/h (0 Bft) N-NO 17 ° 0 min 0,000 mm 0,0 UV-I 0 W/m² 0,7 °C 2,6 °C 0,0 km/h (0 Bft)
09.11.2019 18:03 2,6 °C 87 % 1010,5 hPa 0,0 mm 0,0 km/h (0 Bft) N-NO 17 ° 0 min 0,000 mm 0,0 UV-I 0 W/m² 0,7 °C 2,6 °C 0,0 km/h (0 Bft)
09.11.2019 18:04 2,5 °C 87 % 1010,5 hPa 0,0 mm 0,0 km/h (0 Bft) N-NO 17 ° 0 min 0,000 mm 0,0 UV-I 0 W/m² 0,6 °C 2,5 °C 0,0 km/h (0 Bft)
09.11.2019 18:05 2,5 °C 87 % 1010,5 hPa 0,0 mm 0,0 km/h (0 Bft) N-NO 17 ° 0 min 0,000 mm 0,0 UV-I 0 W/m² 0,6 °C 2,5 °C 0,0 km/h (0 Bft)
09.11.2019 18:06 2,4 °C 87 % 1010,5 hPa 0,0 mm 0,0 km/h (0 Bft) N-NO 17 ° 0 min 0,000 mm 0,0 UV-I 0 W/m² 0,5 °C 2,4 °C 0,0 km/h (0 Bft)
09.11.2019 18:07 2,4 °C 87 % 1010,5 hPa 0,0 mm 0,0 km/h (0 Bft) N-NO 17 ° 0 min 0,000 mm 0,0 UV-I 0 W/m² 0,5 °C 2,4 °C 0,0 km/h (0 Bft)
09.11.2019 18:08 2,3 °C 87 % 1010,5 hPa 0,0 mm 0,0 km/h (0 Bft) N-NO 17 ° 0 min 0,000 mm 0,0 UV-I 0 W/m² 0,4 °C 2,3 °C 0,0 km/h (0 Bft)
09.11.2019 18:09 2,3 °C 87 % 1010,5 hPa 0,0 mm 0,0 km/h (0 Bft) N-NO 17 ° 0 min 0,000 mm 0,0 UV-I 0 W/m² 0,4 °C 2,3 °C 0,0 km/h (0 Bft)
09.11.2019 18:10 2,2 °C 87 % 1010,5 hPa 0,0 mm 0,0 km/h (0 Bft) N-NO 17 ° 0 min 0,000 mm 0,0 UV-I 0 W/m² 0,3 °C 2,2 °C 0,0 km/h (0 Bft)
09.11.2019 18:11 2,2 °C 87 % 1010,5 hPa 0,0 mm 0,0 km/h (0 Bft) N-NO 17 ° 0 min 0,000 mm 0,0 UV-I 0 W/m² 0,3 °C 2,2 °C 0,0 km/h (0 Bft)
09.11.2019 18:12 2,2 °C 87 % 1010,5 hPa 0,0 mm 0,0 km/h (0 Bft) N-NO 17 ° 0 min 0,000 mm 0,0 UV-I 0 W/m² 0,3 °C 2,2 °C 0,0 km/h (0 Bft)
09.11.2019 18:13 2,2 °C 87 % 1010,5 hPa 0,0 mm 0,0 km/h (0 Bft) N-NO 17 ° 0 min 0,000 mm 0,0 UV-I 0 W/m² 0,3 °C 2,2 °C 0,0 km/h (0 Bft)
09.11.2019 18:14 2,1 °C 87 % 1010,5 hPa 0,0 mm 0,0 km/h (0 Bft) N-NO 17 ° 0 min 0,000 mm 0,0 UV-I 0 W/m² 0,2 °C 2,1 °C 0,0 km/h (0 Bft)
09.11.2019 18:15 2,1 °C 87 % 1010,5 hPa 0,0 mm 0,0 km/h (0 Bft) N-NO 17 ° 0 min 0,000 mm 0,0 UV-I 0 W/m² 0,2 °C 2,1 °C 0,0 km/h (0 Bft)
09.11.2019 18:16 2,1 °C 87 % 1010,5 hPa 0,0 mm 0,0 km/h (0 Bft) N-NO 17 ° 0 min 0,000 mm 0,0 UV-I 0 W/m² 0,2 °C 2,1 °C 0,0 km/h (0 Bft)
09.11.2019 18:17 2,0 °C 87 % 1010,5 hPa 0,0 mm 0,0 km/h (0 Bft) N-NO 17 ° 0 min 0,000 mm 0,0 UV-I 0 W/m² 0,1 °C 2,0 °C 0,0 km/h (0 Bft)
09.11.2019 18:18 2,0 °C 87 % 1010,5 hPa 0,0 mm 0,0 km/h (0 Bft) N-NO 17 ° 0 min 0,000 mm 0,0 UV-I 0 W/m² 0,1 °C 2,0 °C 0,0 km/h (0 Bft)
09.11.2019 18:19 1,9 °C 87 % 1010,5 hPa 0,0 mm 0,0 km/h (0 Bft) N-NO 17 ° 0 min 0,000 mm 0,0 UV-I 0 W/m² -0,0 °C 1,9 °C 0,0 km/h (0 Bft)
09.11.2019 18:20 1,9 °C 87 % 1010,5 hPa 0,0 mm 0,0 km/h (0 Bft) N-NO 17 ° 0 min 0,000 mm 0,0 UV-I 0 W/m² -0,0 °C 1,9 °C 0,0 km/h (0 Bft)
09.11.2019 18:21 1,9 °C 87 % 1010,5 hPa 0,0 mm 0,0 km/h (0 Bft) N-NO 17 ° 0 min 0,000 mm 0,0 UV-I 0 W/m² -0,0 °C 1,9 °C 0,0 km/h (0 Bft)
09.11.2019 18:22 1,9 °C 87 % 1010,5 hPa 0,0 mm 0,0 km/h (0 Bft) N-NO 17 ° 0 min 0,000 mm 0,0 UV-I 0 W/m² -0,0 °C 1,9 °C 0,0 km/h (0 Bft)
09.11.2019 18:23 1,9 °C 87 % 1010,4 hPa 0,0 mm 0,0 km/h (0 Bft) N-NO 17 ° 0 min 0,000 mm 0,0 UV-I 0 W/m² -0,0 °C 1,9 °C 0,0 km/h (0 Bft)
09.11.2019 18:24 1,8 °C 87 % 1010,4 hPa 0,0 mm 0,0 km/h (0 Bft) N-NO 17 ° 0 min 0,000 mm 0,0 UV-I 0 W/m² -0,1 °C 1,8 °C 0,0 km/h (0 Bft)
09.11.2019 18:25 1,8 °C 87 % 1010,4 hPa 0,0 mm 0,0 km/h (0 Bft) N-NO 17 ° 0 min 0,000 mm 0,0 UV-I 0 W/m² -0,1 °C 1,8 °C 0,0 km/h (0 Bft)
09.11.2019 18:26 1,8 °C 88 % 1010,4 hPa 0,0 mm 0,0 km/h (0 Bft) N-NO 17 ° 0 min 0,000 mm 0,0 UV-I 0 W/m² 0,0 °C 1,8 °C 0,0 km/h (0 Bft)
09.11.2019 18:27 1,8 °C 88 % 1010,4 hPa 0,0 mm 0,0 km/h (0 Bft) N-NO 17 ° 0 min 0,000 mm 0,0 UV-I 0 W/m² 0,0 °C 1,8 °C 0,0 km/h (0 Bft)
09.11.2019 18:28 1,7 °C 87 % 1010,4 hPa 0,0 mm 0,0 km/h (0 Bft) N-NO 17 ° 0 min 0,000 mm 0,0 UV-I 0 W/m² -0,2 °C 1,7 °C 0,0 km/h (0 Bft)
09.11.2019 18:29 1,7 °C 88 % 1010,4 hPa 0,0 mm 0,0 km/h (0 Bft) N-NO 17 ° 0 min 0,000 mm 0,0 UV-I 0 W/m² -0,1 °C 1,7 °C 0,0 km/h (0 Bft)
09.11.2019 18:30 1,7 °C 88 % 1010,4 hPa 0,0 mm 0,0 km/h (0 Bft) N-NO 17 ° 0 min 0,000 mm 0,0 UV-I 0 W/m² -0,1 °C 1,7 °C 0,0 km/h (0 Bft)
09.11.2019 18:31 1,6 °C 88 % 1010,4 hPa 0,0 mm 0,0 km/h (0 Bft) N-NO 17 ° 0 min 0,000 mm 0,0 UV-I 0 W/m² -0,2 °C 1,6 °C 0,0 km/h (0 Bft)
09.11.2019 18:32 1,6 °C 88 % 1010,4 hPa 0,0 mm 0,0 km/h (0 Bft) N-NO 17 ° 0 min 0,000 mm 0,0 UV-I 0 W/m² -0,2 °C 1,6 °C 0,0 km/h (0 Bft)
09.11.2019 18:33 1,6 °C 88 % 1010,5 hPa 0,0 mm 0,0 km/h (0 Bft) N-NO 17 ° 0 min 0,000 mm 0,0 UV-I 0 W/m² -0,2 °C 1,6 °C 0,0 km/h (0 Bft)
09.11.2019 18:34 1,6 °C 88 % 1010,5 hPa 0,0 mm 0,0 km/h (0 Bft) N-NO 17 ° 0 min 0,000 mm 0,0 UV-I 0 W/m² -0,2 °C 1,6 °C 0,0 km/h (0 Bft)
09.11.2019 18:35 1,6 °C 88 % 1010,4 hPa 0,0 mm 0,0 km/h (0 Bft) N-NO 17 ° 0 min 0,000 mm 0,0 UV-I 0 W/m² -0,2 °C 1,6 °C 0,0 km/h (0 Bft)
09.11.2019 18:36 1,5 °C 88 % 1010,5 hPa 0,0 mm 0,0 km/h (0 Bft) N-NO 17 ° 0 min 0,000 mm 0,0 UV-I 0 W/m² -0,3 °C 1,5 °C 0,0 km/h (0 Bft)
09.11.2019 18:37 1,5 °C 88 % 1010,5 hPa 0,0 mm 0,0 km/h (0 Bft) N-NO 17 ° 0 min 0,000 mm 0,0 UV-I 0 W/m² -0,3 °C 1,5 °C 0,0 km/h (0 Bft)
09.11.2019 18:38 1,4 °C 88 % 1010,5 hPa 0,0 mm 0,0 km/h (0 Bft) N-NO 17 ° 0 min 0,000 mm 0,0 UV-I 0 W/m² -0,4 °C 1,4 °C 0,0 km/h (0 Bft)
09.11.2019 18:39 1,4 °C 88 % 1010,5 hPa 0,0 mm 0,0 km/h (0 Bft) N-NO 17 ° 0 min 0,000 mm 0,0 UV-I 0 W/m² -0,4 °C 1,4 °C 0,0 km/h (0 Bft)
09.11.2019 18:40 1,4 °C 88 % 1010,5 hPa 0,0 mm 0,0 km/h (0 Bft) N-NO 17 ° 0 min 0,000 mm 0,0 UV-I 0 W/m² -0,4 °C 1,4 °C 0,0 km/h (0 Bft)
09.11.2019 18:41 1,3 °C 88 % 1010,5 hPa 0,0 mm 0,0 km/h (0 Bft) N-NO 17 ° 0 min 0,000 mm 0,0 UV-I 0 W/m² -0,5 °C 1,3 °C 0,0 km/h (0 Bft)
09.11.2019 18:42 1,3 °C 88 % 1010,5 hPa 0,0 mm 0,0 km/h (0 Bft) N-NO 17 ° 0 min 0,000 mm 0,0 UV-I 0 W/m² -0,5 °C 1,3 °C 0,0 km/h (0 Bft)
09.11.2019 18:43 1,3 °C 88 % 1010,5 hPa 0,0 mm 0,0 km/h (0 Bft) N-NO 17 ° 0 min 0,000 mm 0,0 UV-I 0 W/m² -0,5 °C 1,3 °C 0,0 km/h (0 Bft)
09.11.2019 18:44 1,3 °C 88 % 1010,6 hPa 0,0 mm 0,0 km/h (0 Bft) N-NO 17 ° 0 min 0,000 mm 0,0 UV-I 0 W/m² -0,5 °C 1,3 °C 0,0 km/h (0 Bft)
09.11.2019 18:45 1,3 °C 88 % 1010,5 hPa 0,0 mm 0,0 km/h (0 Bft) N-NO 17 ° 0 min 0,000 mm 0,0 UV-I 0 W/m² -0,5 °C 1,3 °C 0,0 km/h (0 Bft)
09.11.2019 18:46 1,2 °C 88 % 1010,6 hPa 0,0 mm 0,0 km/h (0 Bft) N-NO 17 ° 0 min 0,000 mm 0,0 UV-I 0 W/m² -0,6 °C 1,2 °C 0,0 km/h (0 Bft)
09.11.2019 18:47 1,2 °C 88 % 1010,6 hPa 0,0 mm 0,0 km/h (0 Bft) N-NO 17 ° 0 min 0,000 mm 0,0 UV-I 0 W/m² -0,6 °C 1,2 °C 0,0 km/h (0 Bft)
09.11.2019 18:48 1,2 °C 88 % 1010,6 hPa 0,0 mm 0,0 km/h (0 Bft) N-NO 17 ° 0 min 0,000 mm 0,0 UV-I 0 W/m² -0,6 °C 1,2 °C 0,0 km/h (0 Bft)
09.11.2019 18:49 1,1 °C 88 % 1010,6 hPa 0,0 mm 0,0 km/h (0 Bft) N-NO 17 ° 0 min 0,000 mm 0,0 UV-I 0 W/m² -0,7 °C 1,1 °C 0,0 km/h (0 Bft)
09.11.2019 18:50 1,1 °C 88 % 1010,6 hPa 0,0 mm 0,0 km/h (0 Bft) N-NO 17 ° 0 min 0,000 mm 0,0 UV-I 0 W/m² -0,7 °C 1,1 °C 0,0 km/h (0 Bft)
09.11.2019 18:51 1,1 °C 88 % 1010,6 hPa 0,0 mm 0,0 km/h (0 Bft) N-NO 17 ° 0 min 0,000 mm 0,0 UV-I 0 W/m² -0,7 °C 1,1 °C 0,0 km/h (0 Bft)
09.11.2019 18:52 1,1 °C 88 % 1010,6 hPa 0,0 mm 0,0 km/h (0 Bft) N-NO 17 ° 0 min 0,000 mm 0,0 UV-I 0 W/m² -0,7 °C 1,1 °C 0,0 km/h (0 Bft)
09.11.2019 18:53 1,0 °C 89 % 1010,6 hPa 0,0 mm 0,0 km/h (0 Bft) N-NO 17 ° 0 min 0,000 mm 0,0 UV-I 0 W/m² -0,6 °C 1,0 °C 0,0 km/h (0 Bft)
09.11.2019 18:54 1,0 °C 88 % 1010,6 hPa 0,0 mm 0,0 km/h (0 Bft) N-NO 17 ° 0 min 0,000 mm 0,0 UV-I 0 W/m² -0,8 °C 1,0 °C 0,0 km/h (0 Bft)
09.11.2019 18:55 1,0 °C 88 % 1010,5 hPa 0,0 mm 0,0 km/h (0 Bft) N-NO 17 ° 0 min 0,000 mm 0,0 UV-I 0 W/m² -0,8 °C 1,0 °C 0,0 km/h (0 Bft)
09.11.2019 18:56 0,9 °C 89 % 1010,5 hPa 0,0 mm 0,0 km/h (0 Bft) N-NO 17 ° 0 min 0,000 mm 0,0 UV-I 0 W/m² -0,7 °C 0,9 °C 0,0 km/h (0 Bft)
09.11.2019 18:57 0,9 °C 89 % 1010,5 hPa 0,0 mm 0,0 km/h (0 Bft) N-NO 17 ° 0 min 0,000 mm 0,0 UV-I 0 W/m² -0,7 °C 0,9 °C 0,0 km/h (0 Bft)
09.11.2019 18:58 0,9 °C 89 % 1010,5 hPa 0,0 mm 0,0 km/h (0 Bft) N-NO 17 ° 0 min 0,000 mm 0,0 UV-I 0 W/m² -0,7 °C 0,9 °C 0,0 km/h (0 Bft)
09.11.2019 18:59 0,9 °C 89 % 1010,6 hPa 0,0 mm 0,0 km/h (0 Bft) N-NO 17 ° 0 min 0,000 mm 0,0 UV-I 0 W/m² -0,7 °C 0,9 °C 0,0 km/h (0 Bft)
09.11.2019 19:00 0,9 °C 89 % 1010,6 hPa 0,0 mm 0,0 km/h (0 Bft) N-NO 17 ° 0 min 0,000 mm 0,0 UV-I 0 W/m² -0,7 °C 0,9 °C 0,0 km/h (0 Bft)
09.11.2019 19:01 0,8 °C 89 % 1010,6 hPa 0,0 mm 0,0 km/h (0 Bft) N-NO 17 ° 0 min 0,000 mm 0,0 UV-I 0 W/m² -0,8 °C 0,8 °C 0,0 km/h (0 Bft)
09.11.2019 19:02 0,8 °C 89 % 1010,5 hPa 0,0 mm 0,0 km/h (0 Bft) N-NO 17 ° 0 min 0,000 mm 0,0 UV-I 0 W/m² -0,8 °C 0,8 °C 0,0 km/h (0 Bft)
09.11.2019 19:03 0,8 °C 89 % 1010,5 hPa 0,0 mm 0,0 km/h (0 Bft) N-NO 17 ° 0 min 0,000 mm 0,0 UV-I 0 W/m² -0,8 °C 0,8 °C 0,0 km/h (0 Bft)
09.11.2019 19:04 0,8 °C 89 % 1010,5 hPa 0,0 mm 0,0 km/h (0 Bft) N-NO 17 ° 0 min 0,000 mm 0,0 UV-I 0 W/m² -0,8 °C 0,8 °C 0,0 km/h (0 Bft)
09.11.2019 19:05 0,8 °C 89 % 1010,5 hPa 0,0 mm 0,0 km/h (0 Bft) N-NO 17 ° 0 min 0,000 mm 0,0 UV-I 0 W/m² -0,8 °C 0,8 °C 0,0 km/h (0 Bft)
09.11.2019 19:06 0,8 °C 89 % 1010,5 hPa 0,0 mm 0,0 km/h (0 Bft) N-NO 17 ° 0 min 0,000 mm 0,0 UV-I 0 W/m² -0,8 °C 0,8 °C 0,0 km/h (0 Bft)
09.11.2019 19:07 0,8 °C 89 % 1010,5 hPa 0,0 mm 0,0 km/h (0 Bft) N-NO 17 ° 0 min 0,000 mm 0,0 UV-I 0 W/m² -0,8 °C 0,8 °C 0,0 km/h (0 Bft)
09.11.2019 19:08 0,7 °C 89 % 1010,5 hPa 0,0 mm 0,0 km/h (0 Bft) N-NO 17 ° 0 min 0,000 mm 0,0 UV-I 0 W/m² -0,9 °C 0,7 °C 0,0 km/h (0 Bft)
09.11.2019 19:09 0,7 °C 89 % 1010,5 hPa 0,0 mm 0,0 km/h (0 Bft) N-NO 17 ° 0 min 0,000 mm 0,0 UV-I 0 W/m² -0,9 °C 0,7 °C 0,0 km/h (0 Bft)
09.11.2019 19:10 0,7 °C 89 % 1010,5 hPa 0,0 mm 0,0 km/h (0 Bft) N-NO 17 ° 0 min 0,000 mm 0,0 UV-I 0 W/m² -0,9 °C 0,7 °C 0,0 km/h (0 Bft)
09.11.2019 19:11 0,7 °C 89 % 1010,5 hPa 0,0 mm 0,0 km/h (0 Bft) N-NO 17 ° 0 min 0,000 mm 0,0 UV-I 0 W/m² -0,9 °C 0,7 °C 0,0 km/h (0 Bft)
09.11.2019 19:12 0,7 °C 89 % 1010,5 hPa 0,0 mm 0,0 km/h (0 Bft) N-NO 17 ° 0 min 0,000 mm 0,0 UV-I 0 W/m² -0,9 °C 0,7 °C 0,0 km/h (0 Bft)
09.11.2019 19:13 0,6 °C 89 % 1010,4 hPa 0,0 mm 0,0 km/h (0 Bft) N-NO 17 ° 0 min 0,000 mm 0,0 UV-I 0 W/m² -1,0 °C 0,6 °C 0,0 km/h (0 Bft)
09.11.2019 19:14 0,6 °C 89 % 1010,5 hPa 0,0 mm 0,0 km/h (0 Bft) N-NO 17 ° 0 min 0,000 mm 0,0 UV-I 0 W/m² -1,0 °C 0,6 °C 0,0 km/h (0 Bft)
09.11.2019 19:15 0,6 °C 89 % 1010,5 hPa 0,0 mm 0,0 km/h (0 Bft) N-NO 17 ° 0 min 0,000 mm 0,0 UV-I 0 W/m² -1,0 °C 0,6 °C 0,0 km/h (0 Bft)
09.11.2019 19:16 0,6 °C 90 % 1010,5 hPa 0,0 mm 0,0 km/h (0 Bft) N-NO 17 ° 0 min 0,000 mm 0,0 UV-I 0 W/m² -0,8 °C 0,6 °C 0,0 km/h (0 Bft)
09.11.2019 19:17 0,6 °C 90 % 1010,5 hPa 0,0 mm 0,0 km/h (0 Bft) N-NO 16 ° 0 min 0,000 mm 0,0 UV-I 0 W/m² -0,8 °C 0,6 °C 0,0 km/h (0 Bft)
09.11.2019 19:18 0,6 °C 90 % 1010,5 hPa 0,0 mm 0,0 km/h (0 Bft) N-NO 16 ° 0 min 0,000 mm 0,0 UV-I 0 W/m² -0,8 °C 0,6 °C 0,0 km/h (0 Bft)
09.11.2019 19:19 0,5 °C 90 % 1010,5 hPa 0,0 mm 0,0 km/h (0 Bft) N-NO 16 ° 0 min 0,000 mm 0,0 UV-I 0 W/m² -0,9 °C 0,5 °C 0,0 km/h (0 Bft)
09.11.2019 19:20 0,6 °C 90 % 1010,5 hPa 0,0 mm 0,0 km/h (0 Bft) N-NO 16 ° 0 min 0,000 mm 0,0 UV-I 0 W/m² -0,8 °C 0,6 °C 0,0 km/h (0 Bft)
09.11.2019 19:21 0,6 °C 90 % 1010,4 hPa 0,0 mm 0,0 km/h (0 Bft) N-NO 16 ° 0 min 0,000 mm 0,0 UV-I 0 W/m² -0,8 °C 0,6 °C 0,0 km/h (0 Bft)
09.11.2019 19:22 0,5 °C 90 % 1010,4 hPa 0,0 mm 0,0 km/h (0 Bft) N-NO 16 ° 0 min 0,000 mm 0,0 UV-I 0 W/m² -0,9 °C 0,5 °C 0,0 km/h (0 Bft)
09.11.2019 19:23 0,5 °C 90 % 1010,4 hPa 0,0 mm 0,0 km/h (0 Bft) N-NO 16 ° 0 min 0,000 mm 0,0 UV-I 0 W/m² -0,9 °C 0,5 °C 0,0 km/h (0 Bft)
09.11.2019 19:24 0,5 °C 90 % 1010,4 hPa 0,0 mm 0,0 km/h (0 Bft) N-NO 16 ° 0 min 0,000 mm 0,0 UV-I 0 W/m² -0,9 °C 0,5 °C 0,0 km/h (0 Bft)
09.11.2019 19:25 0,4 °C 90 % 1010,4 hPa 0,0 mm 0,0 km/h (0 Bft) N-NO 16 ° 0 min 0,000 mm 0,0 UV-I 0 W/m² -1,0 °C 0,4 °C 0,0 km/h (0 Bft)
09.11.2019 19:26 0,4 °C 90 % 1010,4 hPa 0,0 mm 0,0 km/h (0 Bft) N-NO 16 ° 0 min 0,000 mm 0,0 UV-I 0 W/m² -1,0 °C 0,4 °C 0,0 km/h (0 Bft)
09.11.2019 19:27 0,4 °C 90 % 1010,4 hPa 0,0 mm 0,0 km/h (0 Bft) N-NO 16 ° 0 min 0,000 mm 0,0 UV-I 0 W/m² -1,0 °C 0,4 °C 0,0 km/h (0 Bft)
09.11.2019 19:28 0,4 °C 90 % 1010,4 hPa 0,0 mm 0,0 km/h (0 Bft) N-NO 16 ° 0 min 0,000 mm 0,0 UV-I 0 W/m² -1,0 °C 0,4 °C 0,0 km/h (0 Bft)
09.11.2019 19:29 0,4 °C 90 % 1010,4 hPa 0,0 mm 0,0 km/h (0 Bft) N-NO 16 ° 0 min 0,000 mm 0,0 UV-I 0 W/m² -1,0 °C 0,4 °C 0,0 km/h (0 Bft)
09.11.2019 19:30 0,4 °C 90 % 1010,4 hPa 0,0 mm 0,0 km/h (0 Bft) N-NO 16 ° 0 min 0,000 mm 0,0 UV-I 0 W/m² -1,0 °C 0,4 °C 0,0 km/h (0 Bft)
09.11.2019 19:31 0,4 °C 90 % 1010,4 hPa 0,0 mm 0,0 km/h (0 Bft) N-NO 16 ° 0 min 0,000 mm 0,0 UV-I 0 W/m² -1,0 °C 0,4 °C 0,0 km/h (0 Bft)
09.11.2019 19:32 0,4 °C 90 % 1010,4 hPa 0,0 mm 0,0 km/h (0 Bft) N-NO 16 ° 0 min 0,000 mm 0,0 UV-I 0 W/m² -1,0 °C 0,4 °C 0,0 km/h (0 Bft)
09.11.2019 19:33 0,4 °C 90 % 1010,4 hPa 0,0 mm 0,0 km/h (0 Bft) N-NO 16 ° 0 min 0,000 mm 0,0 UV-I 0 W/m² -1,0 °C 0,4 °C 0,0 km/h (0 Bft)
09.11.2019 19:34 0,4 °C 91 % 1010,4 hPa 0,0 mm 0,0 km/h (0 Bft) N-NO 16 ° 0 min 0,000 mm 0,0 UV-I 0 W/m² -0,9 °C 0,4 °C 0,0 km/h (0 Bft)
09.11.2019 19:35 0,4 °C 91 % 1010,4 hPa 0,0 mm 0,0 km/h (0 Bft) N-NO 15 ° 0 min 0,000 mm 0,0 UV-I 0 W/m² -0,9 °C 0,4 °C 0,0 km/h (0 Bft)
09.11.2019 19:36 0,3 °C 91 % 1010,4 hPa 0,0 mm 0,0 km/h (0 Bft) N-NO 15 ° 0 min 0,000 mm 0,0 UV-I 0 W/m² -1,0 °C 0,3 °C 0,0 km/h (0 Bft)
09.11.2019 19:37 0,3 °C 91 % 1010,4 hPa 0,0 mm 0,0 km/h (0 Bft) N-NO 15 ° 0 min 0,000 mm 0,0 UV-I 0 W/m² -1,0 °C 0,3 °C 0,0 km/h (0 Bft)
09.11.2019 19:38 0,3 °C 91 % 1010,3 hPa 0,0 mm 0,0 km/h (0 Bft) N-NO 15 ° 0 min 0,000 mm 0,0 UV-I 0 W/m² -1,0 °C 0,3 °C 0,0 km/h (0 Bft)
09.11.2019 19:39 0,3 °C 91 % 1010,4 hPa 0,0 mm 0,0 km/h (0 Bft) N-NO 15 ° 0 min 0,000 mm 0,0 UV-I 0 W/m² -1,0 °C 0,3 °C 0,0 km/h (0 Bft)
09.11.2019 19:40 0,3 °C 91 % 1010,4 hPa 0,0 mm 0,0 km/h (0 Bft) N-NO 15 ° 0 min 0,000 mm 0,0 UV-I 0 W/m² -1,0 °C 0,3 °C 0,0 km/h (0 Bft)
09.11.2019 19:41 0,3 °C 91 % 1010,4 hPa 0,0 mm 0,0 km/h (0 Bft) N-NO 15 ° 0 min 0,000 mm 0,0 UV-I 0 W/m² -1,0 °C 0,3 °C 0,0 km/h (0 Bft)
09.11.2019 19:42 0,3 °C 91 % 1010,4 hPa 0,0 mm 0,0 km/h (0 Bft) N-NO 15 ° 0 min 0,000 mm 0,0 UV-I 0 W/m² -1,0 °C 0,3 °C 0,0 km/h (0 Bft)
09.11.2019 19:43 0,2 °C 91 % 1010,4 hPa 0,0 mm 0,0 km/h (0 Bft) N-NO 15 ° 0 min 0,000 mm 0,0 UV-I 0 W/m² -1,1 °C 0,2 °C 0,0 km/h (0 Bft)
09.11.2019 19:44 0,2 °C 91 % 1010,3 hPa 0,0 mm 0,0 km/h (0 Bft) N-NO 15 ° 0 min 0,000 mm 0,0 UV-I 0 W/m² -1,1 °C 0,2 °C 0,0 km/h (0 Bft)
09.11.2019 19:45 0,2 °C 91 % 1010,3 hPa 0,0 mm 0,0 km/h (0 Bft) N-NO 15 ° 0 min 0,000 mm 0,0 UV-I 0 W/m² -1,1 °C 0,2 °C 0,0 km/h (0 Bft)
09.11.2019 19:46 0,2 °C 91 % 1010,3 hPa 0,0 mm 0,0 km/h (0 Bft) N-NO 15 ° 0 min 0,000 mm 0,0 UV-I 0 W/m² -1,1 °C 0,2 °C 0,0 km/h (0 Bft)
09.11.2019 19:47 0,2 °C 91 % 1010,3 hPa 0,0 mm 0,0 km/h (0 Bft) N-NO 15 ° 0 min 0,000 mm 0,0 UV-I 0 W/m² -1,1 °C 0,2 °C 0,0 km/h (0 Bft)
09.11.2019 19:48 0,2 °C 91 % 1010,3 hPa 0,0 mm 0,0 km/h (0 Bft) N-NO 15 ° 0 min 0,000 mm 0,0 UV-I 0 W/m² -1,1 °C 0,2 °C 0,0 km/h (0 Bft)
09.11.2019 19:49 0,2 °C 91 % 1010,3 hPa 0,0 mm 0,0 km/h (0 Bft) N-NO 15 ° 0 min 0,000 mm 0,0 UV-I 0 W/m² -1,1 °C 0,2 °C 0,0 km/h (0 Bft)
09.11.2019 19:50 0,2 °C 91 % 1010,3 hPa 0,0 mm 0,0 km/h (0 Bft) N-NO 15 ° 0 min 0,000 mm 0,0 UV-I 0 W/m² -1,1 °C 0,2 °C 0,0 km/h (0 Bft)
09.11.2019 19:51 0,2 °C 91 % 1010,3 hPa 0,0 mm 0,0 km/h (0 Bft) N-NO 15 ° 0 min 0,000 mm 0,0 UV-I 0 W/m² -1,1 °C 0,2 °C 0,0 km/h (0 Bft)
09.11.2019 19:52 0,1 °C 91 % 1010,3 hPa 0,0 mm 0,0 km/h (0 Bft) N-NO 15 ° 0 min 0,000 mm 0,0 UV-I 0 W/m² -1,2 °C 0,1 °C 0,0 km/h (0 Bft)
09.11.2019 19:53 0,1 °C 91 % 1010,2 hPa 0,0 mm 0,0 km/h (0 Bft) N-NO 15 ° 0 min 0,000 mm 0,0 UV-I 0 W/m² -1,2 °C 0,1 °C 0,0 km/h (0 Bft)
09.11.2019 19:54 0,1 °C 91 % 1010,3 hPa 0,0 mm 0,0 km/h (0 Bft) N-NO 15 ° 0 min 0,000 mm 0,0 UV-I 0 W/m² -1,2 °C 0,1 °C 0,0 km/h (0 Bft)
09.11.2019 19:55 0,1 °C 91 % 1010,2 hPa 0,0 mm 0,0 km/h (0 Bft) N-NO 15 ° 0 min 0,000 mm 0,0 UV-I 0 W/m² -1,2 °C 0,1 °C 0,0 km/h (0 Bft)
09.11.2019 19:56 0,1 °C 91 % 1010,2 hPa 0,0 mm 0,0 km/h (0 Bft) N-NO 15 ° 0 min 0,000 mm 0,0 UV-I 0 W/m² -1,2 °C 0,1 °C 0,0 km/h (0 Bft)
09.11.2019 19:57 0,1 °C 91 % 1010,3 hPa 0,0 mm 0,0 km/h (0 Bft) N-NO 15 ° 0 min 0,000 mm 0,0 UV-I 0 W/m² -1,2 °C 0,1 °C 0,0 km/h (0 Bft)
09.11.2019 19:58 0,0 °C 91 % 1010,2 hPa 0,0 mm 0,0 km/h (0 Bft) N-NO 15 ° 0 min 0,000 mm 0,0 UV-I 0 W/m² -1,3 °C 0,0 °C 0,0 km/h (0 Bft)
09.11.2019 19:59 0,0 °C 91 % 1010,2 hPa 0,0 mm 0,0 km/h (0 Bft) N-NO 15 ° 0 min 0,000 mm 0,0 UV-I 0 W/m² -1,3 °C 0,0 °C 0,0 km/h (0 Bft)
09.11.2019 20:00 -0,1 °C 91 % 1010,2 hPa 0,0 mm 0,0 km/h (0 Bft) N-NO 15 ° 0 min 0,000 mm 0,0 UV-I 0 W/m² -1,4 °C -0,1 °C 0,0 km/h (0 Bft)
09.11.2019 20:01 -0,1 °C 91 % 1010,2 hPa 0,0 mm 0,0 km/h (0 Bft) N-NO 15 ° 0 min 0,000 mm 0,0 UV-I 0 W/m² -1,4 °C -0,1 °C 0,0 km/h (0 Bft)
09.11.2019 20:02 -0,1 °C 91 % 1010,2 hPa 0,0 mm 0,0 km/h (0 Bft) N-NO 15 ° 0 min 0,000 mm 0,0 UV-I 0 W/m² -1,4 °C -0,1 °C 0,0 km/h (0 Bft)
09.11.2019 20:03 -0,1 °C 91 % 1010,2 hPa 0,0 mm 0,0 km/h (0 Bft) N-NO 15 ° 0 min 0,000 mm 0,0 UV-I 0 W/m² -1,4 °C -0,1 °C 0,0 km/h (0 Bft)
09.11.2019 20:04 -0,1 °C 91 % 1010,2 hPa 0,0 mm 0,0 km/h (0 Bft) N-NO 15 ° 0 min 0,000 mm 0,0 UV-I 0 W/m² -1,4 °C -0,1 °C 0,0 km/h (0 Bft)
09.11.2019 20:05 -0,1 °C 91 % 1010,2 hPa 0,0 mm 0,0 km/h (0 Bft) N-NO 15 ° 0 min 0,000 mm 0,0 UV-I 0 W/m² -1,4 °C -0,1 °C 0,0 km/h (0 Bft)
09.11.2019 20:06 -0,1 °C 91 % 1010,2 hPa 0,0 mm 0,0 km/h (0 Bft) N-NO 15 ° 0 min 0,000 mm 0,0 UV-I 0 W/m² -1,4 °C -0,1 °C 0,0 km/h (0 Bft)
09.11.2019 20:07 -0,1 °C 91 % 1010,2 hPa 0,0 mm 0,0 km/h (0 Bft) N-NO 15 ° 0 min 0,000 mm 0,0 UV-I 0 W/m² -1,4 °C -0,1 °C 0,0 km/h (0 Bft)
09.11.2019 20:08 -0,1 °C 91 % 1010,2 hPa 0,0 mm 0,0 km/h (0 Bft) N-NO 15 ° 0 min 0,000 mm 0,0 UV-I 0 W/m² -1,4 °C -0,1 °C 0,0 km/h (0 Bft)
09.11.2019 20:09 -0,1 °C 91 % 1010,2 hPa 0,0 mm 0,0 km/h (0 Bft) N-NO 15 ° 0 min 0,000 mm 0,0 UV-I 0 W/m² -1,4 °C -0,1 °C 0,0 km/h (0 Bft)
09.11.2019 20:10 -0,2 °C 91 % 1010,1 hPa 0,0 mm 0,0 km/h (0 Bft) N-NO 15 ° 0 min 0,000 mm 0,0 UV-I 0 W/m² -1,5 °C -0,2 °C 0,0 km/h (0 Bft)
09.11.2019 20:11 -0,2 °C 91 % 1010,1 hPa 0,0 mm 0,0 km/h (0 Bft) N-NO 15 ° 0 min 0,000 mm 0,0 UV-I 0 W/m² -1,5 °C -0,2 °C 0,0 km/h (0 Bft)
09.11.2019 20:12 -0,2 °C 91 % 1010,1 hPa 0,0 mm 0,0 km/h (0 Bft) N-NO 15 ° 0 min 0,000 mm 0,0 UV-I 0 W/m² -1,5 °C -0,2 °C 0,0 km/h (0 Bft)
09.11.2019 20:13 -0,2 °C 91 % 1010,1 hPa 0,0 mm 0,0 km/h (0 Bft) N-NO 15 ° 0 min 0,000 mm 0,0 UV-I 0 W/m² -1,5 °C -0,2 °C 0,0 km/h (0 Bft)
09.11.2019 20:14 -0,2 °C 91 % 1010,1 hPa 0,0 mm 0,0 km/h (0 Bft) N-NO 15 ° 0 min 0,000 mm 0,0 UV-I 0 W/m² -1,5 °C -0,2 °C 0,0 km/h (0 Bft)
09.11.2019 20:15 -0,2 °C 91 % 1010,1 hPa 0,0 mm 0,0 km/h (0 Bft) N-NO 15 ° 0 min 0,000 mm 0,0 UV-I 0 W/m² -1,5 °C -0,2 °C 0,0 km/h (0 Bft)
09.11.2019 20:16 -0,3 °C 91 % 1010,1 hPa 0,0 mm 0,0 km/h (0 Bft) N-NO 15 ° 0 min 0,000 mm 0,0 UV-I 0 W/m² -1,6 °C -0,3 °C 0,0 km/h (0 Bft)
09.11.2019 20:17 -0,3 °C 91 % 1010,1 hPa 0,0 mm 0,0 km/h (0 Bft) N-NO 15 ° 0 min 0,000 mm 0,0 UV-I 0 W/m² -1,6 °C -0,3 °C 0,0 km/h (0 Bft)
09.11.2019 20:18 -0,3 °C 91 % 1010,1 hPa 0,0 mm 0,0 km/h (0 Bft) N-NO 15 ° 0 min 0,000 mm 0,0 UV-I 0 W/m² -1,6 °C -0,3 °C 0,0 km/h (0 Bft)
09.11.2019 20:19 -0,3 °C 91 % 1010,1 hPa 0,0 mm 0,0 km/h (0 Bft) N-NO 15 ° 0 min 0,000 mm 0,0 UV-I 0 W/m² -1,6 °C -0,3 °C 0,0 km/h (0 Bft)
09.11.2019 20:20 -0,3 °C 91 % 1010,0 hPa 0,0 mm 0,0 km/h (0 Bft) N-NO 15 ° 0 min 0,000 mm 0,0 UV-I 0 W/m² -1,6 °C -0,3 °C 0,0 km/h (0 Bft)
09.11.2019 20:21 -0,3 °C 91 % 1010,1 hPa 0,0 mm 0,0 km/h (0 Bft) N-NO 15 ° 0 min 0,000 mm 0,0 UV-I 0 W/m² -1,6 °C -0,3 °C 0,0 km/h (0 Bft)
09.11.2019 20:22 -0,3 °C 91 % 1010,0 hPa 0,0 mm 0,0 km/h (0 Bft) N-NO 15 ° 0 min 0,000 mm 0,0 UV-I 0 W/m² -1,6 °C -0,3 °C 0,0 km/h (0 Bft)
09.11.2019 20:23 -0,3 °C 91 % 1010,0 hPa 0,0 mm 0,0 km/h (0 Bft) N-NO 15 ° 0 min 0,000 mm 0,0 UV-I 0 W/m² -1,6 °C -0,3 °C 0,0 km/h (0 Bft)
09.11.2019 20:24 -0,4 °C 91 % 1010,0 hPa 0,0 mm 0,0 km/h (0 Bft) N-NO 15 ° 0 min 0,000 mm 0,0 UV-I 0 W/m² -1,7 °C -0,4 °C 0,0 km/h (0 Bft)
09.11.2019 20:25 -0,4 °C 91 % 1010,0 hPa 0,0 mm 0,0 km/h (0 Bft) N-NO 15 ° 0 min 0,000 mm 0,0 UV-I 0 W/m² -1,7 °C -0,4 °C 0,0 km/h (0 Bft)
09.11.2019 20:26 -0,4 °C 91 % 1010,0 hPa 0,0 mm 0,0 km/h (0 Bft) N-NO 15 ° 0 min 0,000 mm 0,0 UV-I 0 W/m² -1,7 °C -0,4 °C 0,0 km/h (0 Bft)
09.11.2019 20:27 -0,4 °C 91 % 1010,0 hPa 0,0 mm 0,0 km/h (0 Bft) N-NO 15 ° 0 min 0,000 mm 0,0 UV-I 0 W/m² -1,7 °C -0,4 °C 0,0 km/h (0 Bft)
09.11.2019 20:28 -0,4 °C 91 % 1010,0 hPa 0,0 mm 0,0 km/h (0 Bft) N-NO 15 ° 0 min 0,000 mm 0,0 UV-I 0 W/m² -1,7 °C -0,4 °C 0,0 km/h (0 Bft)
09.11.2019 20:29 -0,4 °C 91 % 1010,0 hPa 0,0 mm 0,0 km/h (0 Bft) N-NO 15 ° 0 min 0,000 mm 0,0 UV-I 0 W/m² -1,7 °C -0,4 °C 0,0 km/h (0 Bft)
09.11.2019 20:30 -0,5 °C 91 % 1010,0 hPa 0,0 mm 0,0 km/h (0 Bft) N-NO 15 ° 0 min 0,000 mm 0,0 UV-I 0 W/m² -1,8 °C -0,5 °C 0,0 km/h (0 Bft)
09.11.2019 20:31 -0,5 °C 91 % 1010,0 hPa 0,0 mm 0,0 km/h (0 Bft) N-NO 15 ° 0 min 0,000 mm 0,0 UV-I 0 W/m² -1,8 °C -0,5 °C 0,0 km/h (0 Bft)
09.11.2019 20:32 -0,6 °C 91 % 1010,0 hPa 0,0 mm 0,0 km/h (0 Bft) N-NO 15 ° 0 min 0,000 mm 0,0 UV-I 0 W/m² -1,9 °C -0,6 °C 0,0 km/h (0 Bft)
09.11.2019 20:33 -0,6 °C 91 % 1010,0 hPa 0,0 mm 0,0 km/h (0 Bft) N-NO 15 ° 0 min 0,000 mm 0,0 UV-I 0 W/m² -1,9 °C -0,6 °C 0,0 km/h (0 Bft)
09.11.2019 20:34 -0,6 °C 91 % 1010,0 hPa 0,0 mm 0,0 km/h (0 Bft) N-NO 15 ° 0 min 0,000 mm 0,0 UV-I 0 W/m² -1,9 °C -0,6 °C 0,0 km/h (0 Bft)
09.11.2019 20:35 -0,6 °C 91 % 1009,9 hPa 0,0 mm 0,0 km/h (0 Bft) N-NO 15 ° 0 min 0,000 mm 0,0 UV-I 0 W/m² -1,9 °C -0,6 °C 0,0 km/h (0 Bft)
09.11.2019 20:36 -0,6 °C 91 % 1010,0 hPa 0,0 mm 0,0 km/h (0 Bft) N-NO 15 ° 0 min 0,000 mm 0,0 UV-I 0 W/m² -1,9 °C -0,6 °C 0,0 km/h (0 Bft)
09.11.2019 20:37 -0,6 °C 91 % 1010,0 hPa 0,0 mm 0,0 km/h (0 Bft) N-NO 15 ° 0 min 0,000 mm 0,0 UV-I 0 W/m² -1,9 °C -0,6 °C 0,0 km/h (0 Bft)
09.11.2019 20:38 -0,6 °C 91 % 1009,9 hPa 0,0 mm 0,0 km/h (0 Bft) N-NO 15 ° 0 min 0,000 mm 0,0 UV-I 0 W/m² -1,9 °C -0,6 °C 0,0 km/h (0 Bft)
09.11.2019 20:39 -0,6 °C 91 % 1010,0 hPa 0,0 mm 0,0 km/h (0 Bft) N-NO 15 ° 0 min 0,000 mm 0,0 UV-I 0 W/m² -1,9 °C -0,6 °C 0,0 km/h (0 Bft)
09.11.2019 20:40 -0,7 °C 91 % 1009,9 hPa 0,0 mm 0,0 km/h (0 Bft) N-NO 15 ° 0 min 0,000 mm 0,0 UV-I 0 W/m² -2,0 °C -0,7 °C 0,0 km/h (0 Bft)
09.11.2019 20:41 -0,7 °C 91 % 1009,9 hPa 0,0 mm 0,0 km/h (0 Bft) N-NO 15 ° 0 min 0,000 mm 0,0 UV-I 0 W/m² -2,0 °C -0,7 °C 0,0 km/h (0 Bft)
09.11.2019 20:42 -0,7 °C 91 % 1009,9 hPa 0,0 mm 0,0 km/h (0 Bft) N-NO 15 ° 0 min 0,000 mm 0,0 UV-I 0 W/m² -2,0 °C -0,7 °C 0,0 km/h (0 Bft)
09.11.2019 20:43 -0,7 °C 91 % 1009,9 hPa 0,0 mm 0,0 km/h (0 Bft) N-NO 15 ° 0 min 0,000 mm 0,0 UV-I 0 W/m² -2,0 °C -0,7 °C 0,0 km/h (0 Bft)
09.11.2019 20:44 -0,7 °C 91 % 1009,9 hPa 0,0 mm 0,0 km/h (0 Bft) N-NO 15 ° 0 min 0,000 mm 0,0 UV-I 0 W/m² -2,0 °C -0,7 °C 0,0 km/h (0 Bft)
09.11.2019 20:45 -0,7 °C 91 % 1009,8 hPa 0,0 mm 0,0 km/h (0 Bft) N-NO 15 ° 0 min 0,000 mm 0,0 UV-I 0 W/m² -2,0 °C -0,7 °C 0,0 km/h (0 Bft)
09.11.2019 20:46 -0,7 °C 91 % 1009,8 hPa 0,0 mm 0,0 km/h (0 Bft) N-NO 15 ° 0 min 0,000 mm 0,0 UV-I 0 W/m² -2,0 °C -0,7 °C 0,0 km/h (0 Bft)
09.11.2019 20:47 -0,8 °C 91 % 1009,8 hPa 0,0 mm 0,0 km/h (0 Bft) N-NO 15 ° 0 min 0,000 mm 0,0 UV-I 0 W/m² -2,1 °C -0,8 °C 0,0 km/h (0 Bft)
09.11.2019 20:48 -0,7 °C 91 % 1009,8 hPa 0,0 mm 0,0 km/h (0 Bft) N-NO 15 ° 0 min 0,000 mm 0,0 UV-I 0 W/m² -2,0 °C -0,7 °C 0,0 km/h (0 Bft)
09.11.2019 20:49 -0,8 °C 91 % 1009,8 hPa 0,0 mm 0,0 km/h (0 Bft) N-NO 15 ° 0 min 0,000 mm 0,0 UV-I 0 W/m² -2,1 °C -0,8 °C 0,0 km/h (0 Bft)
09.11.2019 20:50 -0,8 °C 92 % 1009,8 hPa 0,0 mm 0,0 km/h (0 Bft) N-NO 15 ° 0 min 0,000 mm 0,0 UV-I 0 W/m² -1,9 °C -0,8 °C 0,0 km/h (0 Bft)
09.11.2019 20:51 -0,8 °C 92 % 1009,8 hPa 0,0 mm 0,0 km/h (0 Bft) N-NO 15 ° 0 min 0,000 mm 0,0 UV-I 0 W/m² -1,9 °C -0,8 °C 0,0 km/h (0 Bft)
09.11.2019 20:52 -0,8 °C 91 % 1009,7 hPa 0,0 mm 0,0 km/h (0 Bft) N-NO 15 ° 0 min 0,000 mm 0,0 UV-I 0 W/m² -2,1 °C -0,8 °C 0,0 km/h (0 Bft)
09.11.2019 20:53 -0,8 °C 92 % 1009,8 hPa 0,0 mm 0,0 km/h (0 Bft) N-NO 15 ° 0 min 0,000 mm 0,0 UV-I 0 W/m² -1,9 °C -0,8 °C 0,0 km/h (0 Bft)
09.11.2019 20:54 -0,8 °C 91 % 1009,7 hPa 0,0 mm 0,0 km/h (0 Bft) N-NO 15 ° 0 min 0,000 mm 0,0 UV-I 0 W/m² -2,1 °C -0,8 °C 0,0 km/h (0 Bft)
09.11.2019 20:55 -0,8 °C 91 % 1009,7 hPa 0,0 mm 0,0 km/h (0 Bft) N-NO 15 ° 0 min 0,000 mm 0,0 UV-I 0 W/m² -2,1 °C -0,8 °C 0,0 km/h (0 Bft)
09.11.2019 20:56 -0,8 °C 91 % 1009,7 hPa 0,0 mm 0,0 km/h (0 Bft) N-NO 15 ° 0 min 0,000 mm 0,0 UV-I 0 W/m² -2,1 °C -0,8 °C 0,0 km/h (0 Bft)
09.11.2019 20:57 -0,9 °C 91 % 1009,7 hPa 0,0 mm 0,0 km/h (0 Bft) N-NO 15 ° 0 min 0,000 mm 0,0 UV-I 0 W/m² -2,2 °C -0,9 °C 0,0 km/h (0 Bft)
09.11.2019 20:58 -0,9 °C 91 % 1009,7 hPa 0,0 mm 0,0 km/h (0 Bft) N-NO 15 ° 0 min 0,000 mm 0,0 UV-I 0 W/m² -2,2 °C -0,9 °C 0,0 km/h (0 Bft)
09.11.2019 20:59 -0,9 °C 91 % 1009,7 hPa 0,0 mm 0,0 km/h (0 Bft) N-NO 15 ° 0 min 0,000 mm 0,0 UV-I 0 W/m² -2,2 °C -0,9 °C 0,0 km/h (0 Bft)
09.11.2019 21:00 -0,9 °C 91 % 1009,7 hPa 0,0 mm 0,0 km/h (0 Bft) N-NO 15 ° 0 min 0,000 mm 0,0 UV-I 0 W/m² -2,2 °C -0,9 °C 0,0 km/h (0 Bft)
09.11.2019 21:01 -0,9 °C 91 % 1009,7 hPa 0,0 mm 0,0 km/h (0 Bft) N-NO 15 ° 0 min 0,000 mm 0,0 UV-I 0 W/m² -2,2 °C -0,9 °C 0,0 km/h (0 Bft)
09.11.2019 21:02 -0,9 °C 91 % 1009,7 hPa 0,0 mm 0,0 km/h (0 Bft) N-NO 15 ° 0 min 0,000 mm 0,0 UV-I 0 W/m² -2,2 °C -0,9 °C 0,0 km/h (0 Bft)
09.11.2019 21:03 -1,0 °C 91 % 1009,7 hPa 0,0 mm 0,0 km/h (0 Bft) N-NO 15 ° 0 min 0,000 mm 0,0 UV-I 0 W/m² -2,3 °C -1,0 °C 0,0 km/h (0 Bft)
09.11.2019 21:04 -1,0 °C 91 % 1009,7 hPa 0,0 mm 0,0 km/h (0 Bft) N-NO 15 ° 0 min 0,000 mm 0,0 UV-I 0 W/m² -2,3 °C -1,0 °C 0,0 km/h (0 Bft)
09.11.2019 21:05 -0,9 °C 92 % 1009,7 hPa 0,0 mm 0,0 km/h (0 Bft) N-NO 15 ° 0 min 0,000 mm 0,0 UV-I 0 W/m² -2,0 °C -0,9 °C 0,0 km/h (0 Bft)
09.11.2019 21:06 -1,0 °C 92 % 1009,7 hPa 0,0 mm 0,0 km/h (0 Bft) N-NO 15 ° 0 min 0,000 mm 0,0 UV-I 0 W/m² -2,1 °C -1,0 °C 0,0 km/h (0 Bft)
09.11.2019 21:07 -1,0 °C 92 % 1009,7 hPa 0,0 mm 0,0 km/h (0 Bft) N-NO 15 ° 0 min 0,000 mm 0,0 UV-I 0 W/m² -2,1 °C -1,0 °C 0,0 km/h (0 Bft)
09.11.2019 21:08 -1,1 °C 92 % 1009,7 hPa 0,0 mm 0,0 km/h (0 Bft) N-NO 15 ° 0 min 0,000 mm 0,0 UV-I 0 W/m² -2,2 °C -1,1 °C 0,0 km/h (0 Bft)
09.11.2019 21:09 -1,1 °C 92 % 1009,7 hPa 0,0 mm 0,0 km/h (0 Bft) N-NO 15 ° 0 min 0,000 mm 0,0 UV-I 0 W/m² -2,2 °C -1,1 °C 0,0 km/h (0 Bft)
09.11.2019 21:10 -1,1 °C 92 % 1009,7 hPa 0,0 mm 0,0 km/h (0 Bft) N-NO 15 ° 0 min 0,000 mm 0,0 UV-I 0 W/m² -2,2 °C -1,1 °C 0,0 km/h (0 Bft)
09.11.2019 21:11 -1,1 °C 92 % 1009,7 hPa 0,0 mm 0,0 km/h (0 Bft) N-NO 15 ° 0 min 0,000 mm 0,0 UV-I 0 W/m² -2,2 °C -1,1 °C 0,0 km/h (0 Bft)
09.11.2019 21:12 -1,1 °C 92 % 1009,7 hPa 0,0 mm 0,0 km/h (0 Bft) N-NO 15 ° 0 min 0,000 mm 0,0 UV-I 0 W/m² -2,2 °C -1,1 °C 0,0 km/h (0 Bft)
09.11.2019 21:13 -1,1 °C 91 % 1009,7 hPa 0,0 mm 0,0 km/h (0 Bft) N-NO 15 ° 0 min 0,000 mm 0,0 UV-I 0 W/m² -2,4 °C -1,1 °C 0,0 km/h (0 Bft)
09.11.2019 21:14 -1,1 °C 91 % 1009,7 hPa 0,0 mm 0,0 km/h (0 Bft) N-NO 15 ° 0 min 0,000 mm 0,0 UV-I 0 W/m² -2,4 °C -1,1 °C 0,0 km/h (0 Bft)
09.11.2019 21:15 -1,1 °C 91 % 1009,6 hPa 0,0 mm 0,0 km/h (0 Bft) N-NO 15 ° 0 min 0,000 mm 0,0 UV-I 0 W/m² -2,4 °C -1,1 °C 0,0 km/h (0 Bft)
09.11.2019 21:16 -1,2 °C 91 % 1009,7 hPa 0,0 mm 0,0 km/h (0 Bft) N-NO 15 ° 0 min 0,000 mm 0,0 UV-I 0 W/m² -2,5 °C -1,2 °C 0,0 km/h (0 Bft)
09.11.2019 21:17 -1,2 °C 91 % 1009,6 hPa 0,0 mm 0,0 km/h (0 Bft) N-NO 15 ° 0 min 0,000 mm 0,0 UV-I 0 W/m² -2,5 °C -1,2 °C 0,0 km/h (0 Bft)
09.11.2019 21:18 -1,2 °C 92 % 1009,6 hPa 0,0 mm 0,0 km/h (0 Bft) N-NO 15 ° 0 min 0,000 mm 0,0 UV-I 0 W/m² -2,3 °C -1,2 °C 0,0 km/h (0 Bft)
09.11.2019 21:19 -1,2 °C 92 % 1009,6 hPa 0,0 mm 0,0 km/h (0 Bft) N-NO 15 ° 0 min 0,000 mm 0,0 UV-I 0 W/m² -2,3 °C -1,2 °C 0,0 km/h (0 Bft)
09.11.2019 21:20 -1,2 °C 92 % 1009,6 hPa 0,0 mm 0,0 km/h (0 Bft) N-NO 15 ° 0 min 0,000 mm 0,0 UV-I 0 W/m² -2,3 °C -1,2 °C 0,0 km/h (0 Bft)
09.11.2019 21:21 -1,2 °C 92 % 1009,6 hPa 0,0 mm 0,0 km/h (0 Bft) N-NO 15 ° 0 min 0,000 mm 0,0 UV-I 0 W/m² -2,3 °C -1,2 °C 0,0 km/h (0 Bft)
09.11.2019 21:22 -1,2 °C 92 % 1009,6 hPa 0,0 mm 0,0 km/h (0 Bft) N-NO 15 ° 0 min 0,000 mm 0,0 UV-I 0 W/m² -2,3 °C -1,2 °C 0,0 km/h (0 Bft)
09.11.2019 21:23 -1,3 °C 92 % 1009,6 hPa 0,0 mm 0,0 km/h (0 Bft) N-NO 15 ° 0 min 0,000 mm 0,0 UV-I 0 W/m² -2,4 °C -1,3 °C 0,0 km/h (0 Bft)
09.11.2019 21:24 -1,2 °C 92 % 1009,6 hPa 0,0 mm 0,0 km/h (0 Bft) N-NO 15 ° 0 min 0,000 mm 0,0 UV-I 0 W/m² -2,3 °C -1,2 °C 0,0 km/h (0 Bft)
09.11.2019 21:25 -1,3 °C 92 % 1009,5 hPa 0,0 mm 0,0 km/h (0 Bft) N-NO 15 ° 0 min 0,000 mm 0,0 UV-I 0 W/m² -2,4 °C -1,3 °C 0,0 km/h (0 Bft)
09.11.2019 21:26 -1,2 °C 92 % 1009,5 hPa 0,0 mm 0,0 km/h (0 Bft) N-NO 15 ° 0 min 0,000 mm 0,0 UV-I 0 W/m² -2,3 °C -1,2 °C 0,0 km/h (0 Bft)
09.11.2019 21:27 -1,3 °C 92 % 1009,5 hPa 0,0 mm 0,0 km/h (0 Bft) N-NO 15 ° 0 min 0,000 mm 0,0 UV-I 0 W/m² -2,4 °C -1,3 °C 0,0 km/h (0 Bft)
09.11.2019 21:28 -1,3 °C 92 % 1009,5 hPa 0,0 mm 0,0 km/h (0 Bft) N-NO 15 ° 0 min 0,000 mm 0,0 UV-I 0 W/m² -2,4 °C -1,3 °C 0,0 km/h (0 Bft)
09.11.2019 21:29 -1,3 °C 92 % 1009,5 hPa 0,0 mm 0,0 km/h (0 Bft) N-NO 15 ° 0 min 0,000 mm 0,0 UV-I 0 W/m² -2,4 °C -1,3 °C 0,0 km/h (0 Bft)
09.11.2019 21:30 -1,3 °C 92 % 1009,4 hPa 0,0 mm 0,0 km/h (0 Bft) N-NO 15 ° 0 min 0,000 mm 0,0 UV-I 0 W/m² -2,4 °C -1,3 °C 0,0 km/h (0 Bft)
09.11.2019 21:31 -1,3 °C 92 % 1009,4 hPa 0,0 mm 0,0 km/h (0 Bft) N-NO 15 ° 0 min 0,000 mm 0,0 UV-I 0 W/m² -2,4 °C -1,3 °C 0,0 km/h (0 Bft)
09.11.2019 21:32 -1,3 °C 92 % 1009,4 hPa 0,0 mm 0,0 km/h (0 Bft) N-NO 15 ° 0 min 0,000 mm 0,0 UV-I 0 W/m² -2,4 °C -1,3 °C 0,0 km/h (0 Bft)
09.11.2019 21:33 -1,3 °C 92 % 1009,4 hPa 0,0 mm 0,0 km/h (0 Bft) N-NO 15 ° 0 min 0,000 mm 0,0 UV-I 0 W/m² -2,4 °C -1,3 °C 0,0 km/h (0 Bft)
09.11.2019 21:34 -1,3 °C 92 % 1009,4 hPa 0,0 mm 0,0 km/h (0 Bft) N-NO 15 ° 0 min 0,000 mm 0,0 UV-I 0 W/m² -2,4 °C -1,3 °C 0,0 km/h (0 Bft)
09.11.2019 21:35 -1,3 °C 92 % 1009,3 hPa 0,0 mm 0,0 km/h (0 Bft) N-NO 15 ° 0 min 0,000 mm 0,0 UV-I 0 W/m² -2,4 °C -1,3 °C 0,0 km/h (0 Bft)
09.11.2019 21:36 -1,3 °C 92 % 1009,3 hPa 0,0 mm 0,0 km/h (0 Bft) N-NO 15 ° 0 min 0,000 mm 0,0 UV-I 0 W/m² -2,4 °C -1,3 °C 0,0 km/h (0 Bft)
09.11.2019 21:37 -1,4 °C 92 % 1009,3 hPa 0,0 mm 0,0 km/h (0 Bft) N-NO 15 ° 0 min 0,000 mm 0,0 UV-I 0 W/m² -2,5 °C -1,4 °C 0,0 km/h (0 Bft)
09.11.2019 21:38 -1,4 °C 92 % 1009,3 hPa 0,0 mm 0,0 km/h (0 Bft) N-NO 15 ° 0 min 0,000 mm 0,0 UV-I 0 W/m² -2,5 °C -1,4 °C 0,0 km/h (0 Bft)
09.11.2019 21:39 -1,4 °C 92 % 1009,3 hPa 0,0 mm 0,0 km/h (0 Bft) N-NO 15 ° 0 min 0,000 mm 0,0 UV-I 0 W/m² -2,5 °C -1,4 °C 0,0 km/h (0 Bft)
09.11.2019 21:40 -1,4 °C 92 % 1009,3 hPa 0,0 mm 0,0 km/h (0 Bft) N-NO 15 ° 0 min 0,000 mm 0,0 UV-I 0 W/m² -2,5 °C -1,4 °C 0,0 km/h (0 Bft)
09.11.2019 21:41 -1,4 °C 92 % 1009,3 hPa 0,0 mm 0,0 km/h (0 Bft) N-NO 15 ° 0 min 0,000 mm 0,0 UV-I 0 W/m² -2,5 °C -1,4 °C 0,0 km/h (0 Bft)
09.11.2019 21:42 -1,4 °C 92 % 1009,2 hPa 0,0 mm 0,0 km/h (0 Bft) N-NO 15 ° 0 min 0,000 mm 0,0 UV-I 0 W/m² -2,5 °C -1,4 °C 0,0 km/h (0 Bft)
09.11.2019 21:43 -1,4 °C 92 % 1009,3 hPa 0,0 mm 0,0 km/h (0 Bft) N-NO 15 ° 0 min 0,000 mm 0,0 UV-I 0 W/m² -2,5 °C -1,4 °C 0,0 km/h (0 Bft)
09.11.2019 21:44 -1,4 °C 92 % 1009,3 hPa 0,0 mm 0,0 km/h (0 Bft) N-NO 15 ° 0 min 0,000 mm 0,0 UV-I 0 W/m² -2,5 °C -1,4 °C 0,0 km/h (0 Bft)
09.11.2019 21:45 -1,4 °C 92 % 1009,2 hPa 0,0 mm 0,0 km/h (0 Bft) N-NO 15 ° 0 min 0,000 mm 0,0 UV-I 0 W/m² -2,5 °C -1,4 °C 0,0 km/h (0 Bft)
09.11.2019 21:46 -1,4 °C 92 % 1009,2 hPa 0,0 mm 0,0 km/h (0 Bft) N-NO 15 ° 0 min 0,000 mm 0,0 UV-I 0 W/m² -2,5 °C -1,4 °C 0,0 km/h (0 Bft)
09.11.2019 21:47 -1,4 °C 92 % 1009,2 hPa 0,0 mm 0,0 km/h (0 Bft) N-NO 15 ° 0 min 0,000 mm 0,0 UV-I 0 W/m² -2,5 °C -1,4 °C 0,0 km/h (0 Bft)
09.11.2019 21:48 -1,4 °C 92 % 1009,2 hPa 0,0 mm 0,0 km/h (0 Bft) N-NO 15 ° 0 min 0,000 mm 0,0 UV-I 0 W/m² -2,5 °C -1,4 °C 0,0 km/h (0 Bft)
09.11.2019 21:49 -1,4 °C 92 % 1009,2 hPa 0,0 mm 0,0 km/h (0 Bft) N-NO 15 ° 0 min 0,000 mm 0,0 UV-I 0 W/m² -2,5 °C -1,4 °C 0,0 km/h (0 Bft)
09.11.2019 21:50 -1,4 °C 92 % 1009,2 hPa 0,0 mm 0,0 km/h (0 Bft) N-NO 15 ° 0 min 0,000 mm 0,0 UV-I 0 W/m² -2,5 °C -1,4 °C 0,0 km/h (0 Bft)
09.11.2019 21:51 -1,4 °C 92 % 1009,2 hPa 0,0 mm 0,0 km/h (0 Bft) N-NO 15 ° 0 min 0,000 mm 0,0 UV-I 0 W/m² -2,5 °C -1,4 °C 0,0 km/h (0 Bft)
09.11.2019 21:52 -1,4 °C 92 % 1009,1 hPa 0,0 mm 0,0 km/h (0 Bft) N-NO 15 ° 0 min 0,000 mm 0,0 UV-I 0 W/m² -2,5 °C -1,4 °C 0,0 km/h (0 Bft)
09.11.2019 21:53 -1,5 °C 92 % 1009,1 hPa 0,0 mm 0,0 km/h (0 Bft) N-NO 15 ° 0 min 0,000 mm 0,0 UV-I 0 W/m² -2,6 °C -1,5 °C 0,0 km/h (0 Bft)
09.11.2019 21:54 -1,5 °C 92 % 1009,1 hPa 0,0 mm 0,0 km/h (0 Bft) N-NO 15 ° 0 min 0,000 mm 0,0 UV-I 0 W/m² -2,6 °C -1,5 °C 0,0 km/h (0 Bft)
09.11.2019 21:55 -1,5 °C 92 % 1009,1 hPa 0,0 mm 0,0 km/h (0 Bft) N-NO 15 ° 0 min 0,000 mm 0,0 UV-I 0 W/m² -2,6 °C -1,5 °C 0,0 km/h (0 Bft)
09.11.2019 21:56 -1,5 °C 92 % 1009,1 hPa 0,0 mm 0,0 km/h (0 Bft) N-NO 15 ° 0 min 0,000 mm 0,0 UV-I 0 W/m² -2,6 °C -1,5 °C 0,0 km/h (0 Bft)
09.11.2019 21:57 -1,5 °C 92 % 1009,1 hPa 0,0 mm 0,0 km/h (0 Bft) N-NO 15 ° 0 min 0,000 mm 0,0 UV-I 0 W/m² -2,6 °C -1,5 °C 0,0 km/h (0 Bft)
09.11.2019 21:58 -1,5 °C 92 % 1009,1 hPa 0,0 mm 0,0 km/h (0 Bft) N-NO 15 ° 0 min 0,000 mm 0,0 UV-I 0 W/m² -2,6 °C -1,5 °C 0,0 km/h (0 Bft)
09.11.2019 21:59 -1,5 °C 92 % 1009,0 hPa 0,0 mm 0,0 km/h (0 Bft) N-NO 15 ° 0 min 0,000 mm 0,0 UV-I 0 W/m² -2,6 °C -1,5 °C 0,0 km/h (0 Bft)
09.11.2019 22:00 -1,6 °C 92 % 1009,0 hPa 0,0 mm 0,0 km/h (0 Bft) N-NO 15 ° 0 min 0,000 mm 0,0 UV-I 0 W/m² -2,7 °C -1,6 °C 0,0 km/h (0 Bft)
09.11.2019 22:01 -1,6 °C 92 % 1009,0 hPa 0,0 mm 0,0 km/h (0 Bft) N-NO 15 ° 0 min 0,000 mm 0,0 UV-I 0 W/m² -2,7 °C -1,6 °C 0,0 km/h (0 Bft)
09.11.2019 22:02 -1,6 °C 92 % 1009,0 hPa 0,0 mm 0,0 km/h (0 Bft) N-NO 15 ° 0 min 0,000 mm 0,0 UV-I 0 W/m² -2,7 °C -1,6 °C 0,0 km/h (0 Bft)
09.11.2019 22:03 -1,6 °C 92 % 1009,0 hPa 0,0 mm 0,0 km/h (0 Bft) N-NO 15 ° 0 min 0,000 mm 0,0 UV-I 0 W/m² -2,7 °C -1,6 °C 0,0 km/h (0 Bft)
09.11.2019 22:04 -1,6 °C 92 % 1009,0 hPa 0,0 mm 0,0 km/h (0 Bft) N-NO 15 ° 0 min 0,000 mm 0,0 UV-I 0 W/m² -2,7 °C -1,6 °C 0,0 km/h (0 Bft)
09.11.2019 22:05 -1,6 °C 92 % 1009,1 hPa 0,0 mm 0,0 km/h (0 Bft) N-NO 15 ° 0 min 0,000 mm 0,0 UV-I 0 W/m² -2,7 °C -1,6 °C 0,0 km/h (0 Bft)
09.11.2019 22:06 -1,6 °C 92 % 1009,0 hPa 0,0 mm 0,0 km/h (0 Bft) N-NO 15 ° 0 min 0,000 mm 0,0 UV-I 0 W/m² -2,7 °C -1,6 °C 0,0 km/h (0 Bft)
09.11.2019 22:07 -1,7 °C 92 % 1009,0 hPa 0,0 mm 0,0 km/h (0 Bft) N-NO 15 ° 0 min 0,000 mm 0,0 UV-I 0 W/m² -2,8 °C -1,7 °C 0,0 km/h (0 Bft)
09.11.2019 22:08 -1,6 °C 92 % 1009,0 hPa 0,0 mm 0,0 km/h (0 Bft) N-NO 15 ° 0 min 0,000 mm 0,0 UV-I 0 W/m² -2,7 °C -1,6 °C 0,0 km/h (0 Bft)
09.11.2019 22:09 -1,7 °C 92 % 1008,9 hPa 0,0 mm 0,0 km/h (0 Bft) N-NO 15 ° 0 min 0,000 mm 0,0 UV-I 0 W/m² -2,8 °C -1,7 °C 0,0 km/h (0 Bft)
09.11.2019 22:10 -1,7 °C 92 % 1008,9 hPa 0,0 mm 0,0 km/h (0 Bft) N-NO 15 ° 0 min 0,000 mm 0,0 UV-I 0 W/m² -2,8 °C -1,7 °C 0,0 km/h (0 Bft)
09.11.2019 22:11 -1,7 °C 92 % 1008,9 hPa 0,0 mm 0,0 km/h (0 Bft) N-NO 15 ° 0 min 0,000 mm 0,0 UV-I 0 W/m² -2,8 °C -1,7 °C 0,0 km/h (0 Bft)
09.11.2019 22:12 -1,7 °C 92 % 1008,9 hPa 0,0 mm 0,0 km/h (0 Bft) N-NO 15 ° 0 min 0,000 mm 0,0 UV-I 0 W/m² -2,8 °C -1,7 °C 0,0 km/h (0 Bft)
09.11.2019 22:13 -1,7 °C 92 % 1008,8 hPa 0,0 mm 0,0 km/h (0 Bft) N-NO 15 ° 0 min 0,000 mm 0,0 UV-I 0 W/m² -2,8 °C -1,7 °C 0,0 km/h (0 Bft)
09.11.2019 22:14 -1,7 °C 92 % 1008,8 hPa 0,0 mm 0,0 km/h (0 Bft) N-NO 15 ° 0 min 0,000 mm 0,0 UV-I 0 W/m² -2,8 °C -1,7 °C 0,0 km/h (0 Bft)
09.11.2019 22:15 -1,7 °C 92 % 1008,8 hPa 0,0 mm 0,0 km/h (0 Bft) N-NO 15 ° 0 min 0,000 mm 0,0 UV-I 0 W/m² -2,8 °C -1,7 °C 0,0 km/h (0 Bft)
09.11.2019 22:16 -1,8 °C 92 % 1008,8 hPa 0,0 mm 0,0 km/h (0 Bft) N-NO 15 ° 0 min 0,000 mm 0,0 UV-I 0 W/m² -2,9 °C -1,8 °C 0,0 km/h (0 Bft)
09.11.2019 22:17 -1,8 °C 92 % 1008,8 hPa 0,0 mm 0,0 km/h (0 Bft) N-NO 15 ° 0 min 0,000 mm 0,0 UV-I 0 W/m² -2,9 °C -1,8 °C 0,0 km/h (0 Bft)
09.11.2019 22:18 -1,8 °C 92 % 1008,8 hPa 0,0 mm 0,0 km/h (0 Bft) N-NO 15 ° 0 min 0,000 mm 0,0 UV-I 0 W/m² -2,9 °C -1,8 °C 0,0 km/h (0 Bft)
09.11.2019 22:19 -1,8 °C 92 % 1008,8 hPa 0,0 mm 0,0 km/h (0 Bft) N-NO 15 ° 0 min 0,000 mm 0,0 UV-I 0 W/m² -2,9 °C -1,8 °C 0,0 km/h (0 Bft)
09.11.2019 22:20 -1,8 °C 92 % 1008,7 hPa 0,0 mm 0,0 km/h (0 Bft) N-NO 15 ° 0 min 0,000 mm 0,0 UV-I 0 W/m² -2,9 °C -1,8 °C 0,0 km/h (0 Bft)
09.11.2019 22:21 -1,8 °C 92 % 1008,7 hPa 0,0 mm 0,0 km/h (0 Bft) N-NO 15 ° 0 min 0,000 mm 0,0 UV-I 0 W/m² -2,9 °C -1,8 °C 0,0 km/h (0 Bft)
09.11.2019 22:22 -1,8 °C 92 % 1008,7 hPa 0,0 mm 0,0 km/h (0 Bft) N-NO 15 ° 0 min 0,000 mm 0,0 UV-I 0 W/m² -2,9 °C -1,8 °C 0,0 km/h (0 Bft)
09.11.2019 22:23 -1,8 °C 92 % 1008,7 hPa 0,0 mm 0,0 km/h (0 Bft) N-NO 15 ° 0 min 0,000 mm 0,0 UV-I 0 W/m² -2,9 °C -1,8 °C 0,0 km/h (0 Bft)
09.11.2019 22:24 -1,8 °C 92 % 1008,7 hPa 0,0 mm 0,0 km/h (0 Bft) N-NO 15 ° 0 min 0,000 mm 0,0 UV-I 0 W/m² -2,9 °C -1,8 °C 0,0 km/h (0 Bft)
09.11.2019 22:25 -1,8 °C 92 % 1008,7 hPa 0,0 mm 0,0 km/h (0 Bft) N-NO 15 ° 0 min 0,000 mm 0,0 UV-I 0 W/m² -2,9 °C -1,8 °C 0,0 km/h (0 Bft)
09.11.2019 22:26 -1,8 °C 92 % 1008,7 hPa 0,0 mm 0,0 km/h (0 Bft) N-NO 15 ° 0 min 0,000 mm 0,0 UV-I 0 W/m² -2,9 °C -1,8 °C 0,0 km/h (0 Bft)
09.11.2019 22:27 -1,8 °C 92 % 1008,6 hPa 0,0 mm 0,0 km/h (0 Bft) N-NO 15 ° 0 min 0,000 mm 0,0 UV-I 0 W/m² -2,9 °C -1,8 °C 0,0 km/h (0 Bft)
09.11.2019 22:28 -1,8 °C 92 % 1008,6 hPa 0,0 mm 0,0 km/h (0 Bft) N-NO 15 ° 0 min 0,000 mm 0,0 UV-I 0 W/m² -2,9 °C -1,8 °C 0,0 km/h (0 Bft)
09.11.2019 22:29 -1,8 °C 92 % 1008,6 hPa 0,0 mm 0,0 km/h (0 Bft) N-NO 15 ° 0 min 0,000 mm 0,0 UV-I 0 W/m² -2,9 °C -1,8 °C 0,0 km/h (0 Bft)
09.11.2019 22:30 -1,8 °C 92 % 1008,6 hPa 0,0 mm 0,0 km/h (0 Bft) N-NO 15 ° 0 min 0,000 mm 0,0 UV-I 0 W/m² -2,9 °C -1,8 °C 0,0 km/h (0 Bft)
09.11.2019 22:31 -1,8 °C 92 % 1008,6 hPa 0,0 mm 0,0 km/h (0 Bft) N-NO 15 ° 0 min 0,000 mm 0,0 UV-I 0 W/m² -2,9 °C -1,8 °C 0,0 km/h (0 Bft)
09.11.2019 22:32 -1,8 °C 92 % 1008,5 hPa 0,0 mm 0,0 km/h (0 Bft) N-NO 15 ° 0 min 0,000 mm 0,0 UV-I 0 W/m² -2,9 °C -1,8 °C 0,0 km/h (0 Bft)
09.11.2019 22:33 -1,8 °C 92 % 1008,5 hPa 0,0 mm 0,0 km/h (0 Bft) N-NO 15 ° 0 min 0,000 mm 0,0 UV-I 0 W/m² -2,9 °C -1,8 °C 0,0 km/h (0 Bft)
09.11.2019 22:34 -1,8 °C 92 % 1008,5 hPa 0,0 mm 0,0 km/h (0 Bft) N-NO 15 ° 0 min 0,000 mm 0,0 UV-I 0 W/m² -2,9 °C -1,8 °C 0,0 km/h (0 Bft)
09.11.2019 22:35 -1,9 °C 92 % 1008,5 hPa 0,0 mm 0,0 km/h (0 Bft) N-NO 15 ° 0 min 0,000 mm 0,0 UV-I 0 W/m² -3,0 °C -1,9 °C 0,0 km/h (0 Bft)
09.11.2019 22:36 -1,9 °C 92 % 1008,5 hPa 0,0 mm 0,0 km/h (0 Bft) N-NO 15 ° 0 min 0,000 mm 0,0 UV-I 0 W/m² -3,0 °C -1,9 °C 0,0 km/h (0 Bft)
09.11.2019 22:37 -1,9 °C 92 % 1008,5 hPa 0,0 mm 0,0 km/h (0 Bft) N-NO 15 ° 0 min 0,000 mm 0,0 UV-I 0 W/m² -3,0 °C -1,9 °C 0,0 km/h (0 Bft)
09.11.2019 22:38 -1,9 °C 92 % 1008,4 hPa 0,0 mm 0,0 km/h (0 Bft) N-NO 15 ° 0 min 0,000 mm 0,0 UV-I 0 W/m² -3,0 °C -1,9 °C 0,0 km/h (0 Bft)
09.11.2019 22:39 -1,9 °C 92 % 1008,5 hPa 0,0 mm 0,0 km/h (0 Bft) N-NO 15 ° 0 min 0,000 mm 0,0 UV-I 0 W/m² -3,0 °C -1,9 °C 0,0 km/h (0 Bft)
09.11.2019 22:40 -1,9 °C 92 % 1008,5 hPa 0,0 mm 0,0 km/h (0 Bft) N-NO 15 ° 0 min 0,000 mm 0,0 UV-I 0 W/m² -3,0 °C -1,9 °C 0,0 km/h (0 Bft)
09.11.2019 22:41 -1,9 °C 92 % 1008,4 hPa 0,0 mm 0,0 km/h (0 Bft) N-NO 15 ° 0 min 0,000 mm 0,0 UV-I 0 W/m² -3,0 °C -1,9 °C 0,0 km/h (0 Bft)
09.11.2019 22:42 -1,9 °C 92 % 1008,5 hPa 0,0 mm 0,0 km/h (0 Bft) N-NO 15 ° 0 min 0,000 mm 0,0 UV-I 0 W/m² -3,0 °C -1,9 °C 0,0 km/h (0 Bft)
09.11.2019 22:43 -1,9 °C 92 % 1008,4 hPa 0,0 mm 0,0 km/h (0 Bft) N-NO 15 ° 0 min 0,000 mm 0,0 UV-I 0 W/m² -3,0 °C -1,9 °C 0,0 km/h (0 Bft)
09.11.2019 22:44 -1,9 °C 92 % 1008,4 hPa 0,0 mm 0,0 km/h (0 Bft) N-NO 15 ° 0 min 0,000 mm 0,0 UV-I 0 W/m² -3,0 °C -1,9 °C 0,0 km/h (0 Bft)
09.11.2019 22:45 -1,9 °C 92 % 1008,4 hPa 0,0 mm 0,0 km/h (0 Bft) N-NO 15 ° 0 min 0,000 mm 0,0 UV-I 0 W/m² -3,0 °C -1,9 °C 0,0 km/h (0 Bft)
09.11.2019 22:46 -1,9 °C 92 % 1008,4 hPa 0,0 mm 0,0 km/h (0 Bft) N-NO 15 ° 0 min 0,000 mm 0,0 UV-I 0 W/m² -3,0 °C -1,9 °C 0,0 km/h (0 Bft)
09.11.2019 22:47 -2,0 °C 92 % 1008,4 hPa 0,0 mm 0,0 km/h (0 Bft) N-NO 15 ° 0 min 0,000 mm 0,0 UV-I 0 W/m² -3,1 °C -2,0 °C 0,0 km/h (0 Bft)
09.11.2019 22:48 -2,0 °C 92 % 1008,4 hPa 0,0 mm 0,0 km/h (0 Bft) N-NO 15 ° 0 min 0,000 mm 0,0 UV-I 0 W/m² -3,1 °C -2,0 °C 0,0 km/h (0 Bft)
09.11.2019 22:49 -2,0 °C 92 % 1008,4 hPa 0,0 mm 0,0 km/h (0 Bft) N-NO 15 ° 0 min 0,000 mm 0,0 UV-I 0 W/m² -3,1 °C -2,0 °C 0,0 km/h (0 Bft)
09.11.2019 22:50 -2,1 °C 92 % 1008,4 hPa 0,0 mm 0,0 km/h (0 Bft) N-NO 15 ° 0 min 0,000 mm 0,0 UV-I 0 W/m² -3,2 °C -2,1 °C 0,0 km/h (0 Bft)
09.11.2019 22:51 -2,1 °C 93 % 1008,4 hPa 0,0 mm 0,0 km/h (0 Bft) N-NO 15 ° 0 min 0,000 mm 0,0 UV-I 0 W/m² -3,1 °C -2,1 °C 0,0 km/h (0 Bft)
09.11.2019 22:52 -2,1 °C 92 % 1008,4 hPa 0,0 mm 0,0 km/h (0 Bft) N-NO 15 ° 0 min 0,000 mm 0,0 UV-I 0 W/m² -3,2 °C -2,1 °C 0,0 km/h (0 Bft)
09.11.2019 22:53 -2,1 °C 93 % 1008,4 hPa 0,0 mm 0,0 km/h (0 Bft) N-NO 15 ° 0 min 0,000 mm 0,0 UV-I 0 W/m² -3,1 °C -2,1 °C 0,0 km/h (0 Bft)
09.11.2019 22:54 -2,1 °C 93 % 1008,4 hPa 0,0 mm 0,0 km/h (0 Bft) N-NO 15 ° 0 min 0,000 mm 0,0 UV-I 0 W/m² -3,1 °C -2,1 °C 0,0 km/h (0 Bft)
09.11.2019 22:55 -2,1 °C 93 % 1008,3 hPa 0,0 mm 0,0 km/h (0 Bft) N-NO 15 ° 0 min 0,000 mm 0,0 UV-I 0 W/m² -3,1 °C -2,1 °C 0,0 km/h (0 Bft)
09.11.2019 22:56 -2,1 °C 93 % 1008,3 hPa 0,0 mm 0,0 km/h (0 Bft) N-NO 15 ° 0 min 0,000 mm 0,0 UV-I 0 W/m² -3,1 °C -2,1 °C 0,0 km/h (0 Bft)
09.11.2019 22:57 -2,1 °C 93 % 1008,3 hPa 0,0 mm 0,0 km/h (0 Bft) N-NO 15 ° 0 min 0,000 mm 0,0 UV-I 0 W/m² -3,1 °C -2,1 °C 0,0 km/h (0 Bft)
09.11.2019 22:58 -2,1 °C 93 % 1008,3 hPa 0,0 mm 0,0 km/h (0 Bft) N-NO 15 ° 0 min 0,000 mm 0,0 UV-I 0 W/m² -3,1 °C -2,1 °C 0,0 km/h (0 Bft)
09.11.2019 22:59 -2,1 °C 92 % 1008,3 hPa 0,0 mm 0,0 km/h (0 Bft) N-NO 15 ° 0 min 0,000 mm 0,0 UV-I 0 W/m² -3,2 °C -2,1 °C 0,0 km/h (0 Bft)
09.11.2019 23:00 -2,1 °C 92 % 1008,3 hPa 0,0 mm 0,0 km/h (0 Bft) N-NO 15 ° 0 min 0,000 mm 0,0 UV-I 0 W/m² -3,2 °C -2,1 °C 0,0 km/h (0 Bft)
09.11.2019 23:01 -2,1 °C 93 % 1008,3 hPa 0,0 mm 0,0 km/h (0 Bft) N-NO 15 ° 0 min 0,000 mm 0,0 UV-I 0 W/m² -3,1 °C -2,1 °C 0,0 km/h (0 Bft)
09.11.2019 23:02 -2,1 °C 93 % 1008,3 hPa 0,0 mm 0,0 km/h (0 Bft) N-NO 15 ° 0 min 0,000 mm 0,0 UV-I 0 W/m² -3,1 °C -2,1 °C 0,0 km/h (0 Bft)
09.11.2019 23:03 -2,1 °C 93 % 1008,3 hPa 0,0 mm 0,0 km/h (0 Bft) N-NO 15 ° 0 min 0,000 mm 0,0 UV-I 0 W/m² -3,1 °C -2,1 °C 0,0 km/h (0 Bft)
09.11.2019 23:04 -2,1 °C 93 % 1008,2 hPa 0,0 mm 0,0 km/h (0 Bft) N-NO 15 ° 0 min 0,000 mm 0,0 UV-I 0 W/m² -3,1 °C -2,1 °C 0,0 km/h (0 Bft)
09.11.2019 23:05 -2,1 °C 93 % 1008,2 hPa 0,0 mm 0,0 km/h (0 Bft) N-NO 15 ° 0 min 0,000 mm 0,0 UV-I 0 W/m² -3,1 °C -2,1 °C 0,0 km/h (0 Bft)
09.11.2019 23:06 -2,1 °C 93 % 1008,2 hPa 0,0 mm 0,0 km/h (0 Bft) N-NO 15 ° 0 min 0,000 mm 0,0 UV-I 0 W/m² -3,1 °C -2,1 °C 0,0 km/h (0 Bft)
09.11.2019 23:07 -2,1 °C 93 % 1008,2 hPa 0,0 mm 0,0 km/h (0 Bft) N-NO 15 ° 0 min 0,000 mm 0,0 UV-I 0 W/m² -3,1 °C -2,1 °C 0,0 km/h (0 Bft)
09.11.2019 23:08 -2,1 °C 93 % 1008,3 hPa 0,0 mm 0,0 km/h (0 Bft) N-NO 15 ° 0 min 0,000 mm 0,0 UV-I 0 W/m² -3,1 °C -2,1 °C 0,0 km/h (0 Bft)
09.11.2019 23:09 -2,1 °C 93 % 1008,2 hPa 0,0 mm 0,0 km/h (0 Bft) N-NO 15 ° 0 min 0,000 mm 0,0 UV-I 0 W/m² -3,1 °C -2,1 °C 0,0 km/h (0 Bft)
09.11.2019 23:10 -2,1 °C 93 % 1008,2 hPa 0,0 mm 0,0 km/h (0 Bft) N-NO 15 ° 0 min 0,000 mm 0,0 UV-I 0 W/m² -3,1 °C -2,1 °C 0,0 km/h (0 Bft)
09.11.2019 23:11 -2,1 °C 93 % 1008,2 hPa 0,0 mm 0,0 km/h (0 Bft) N-NO 15 ° 0 min 0,000 mm 0,0 UV-I 0 W/m² -3,1 °C -2,1 °C 0,0 km/h (0 Bft)
09.11.2019 23:12 -2,1 °C 93 % 1008,2 hPa 0,0 mm 0,0 km/h (0 Bft) N-NO 15 ° 0 min 0,000 mm 0,0 UV-I 0 W/m² -3,1 °C -2,1 °C 0,0 km/h (0 Bft)
09.11.2019 23:13 -2,1 °C 93 % 1008,2 hPa 0,0 mm 0,0 km/h (0 Bft) N-NO 15 ° 0 min 0,000 mm 0,0 UV-I 0 W/m² -3,1 °C -2,1 °C 0,0 km/h (0 Bft)
09.11.2019 23:14 -2,1 °C 93 % 1008,2 hPa 0,0 mm 0,0 km/h (0 Bft) N-NO 15 ° 0 min 0,000 mm 0,0 UV-I 0 W/m² -3,1 °C -2,1 °C 0,0 km/h (0 Bft)
09.11.2019 23:15 -2,1 °C 93 % 1008,2 hPa 0,0 mm 0,0 km/h (0 Bft) N-NO 15 ° 0 min 0,000 mm 0,0 UV-I 0 W/m² -3,1 °C -2,1 °C 0,0 km/h (0 Bft)
09.11.2019 23:16 -2,1 °C 93 % 1008,2 hPa 0,0 mm 0,0 km/h (0 Bft) N-NO 15 ° 0 min 0,000 mm 0,0 UV-I 0 W/m² -3,1 °C -2,1 °C 0,0 km/h (0 Bft)
09.11.2019 23:17 -2,1 °C 93 % 1008,2 hPa 0,0 mm 0,0 km/h (0 Bft) N-NO 15 ° 0 min 0,000 mm 0,0 UV-I 0 W/m² -3,1 °C -2,1 °C 0,0 km/h (0 Bft)
09.11.2019 23:18 -2,1 °C 93 % 1008,2 hPa 0,0 mm 0,0 km/h (0 Bft) N-NO 15 ° 0 min 0,000 mm 0,0 UV-I 0 W/m² -3,1 °C -2,1 °C 0,0 km/h (0 Bft)
09.11.2019 23:19 -2,1 °C 93 % 1008,2 hPa 0,0 mm 0,0 km/h (0 Bft) N-NO 15 ° 0 min 0,000 mm 0,0 UV-I 0 W/m² -3,1 °C -2,1 °C 0,0 km/h (0 Bft)
09.11.2019 23:20 -2,1 °C 93 % 1008,2 hPa 0,0 mm 0,0 km/h (0 Bft) N-NO 15 ° 0 min 0,000 mm 0,0 UV-I 0 W/m² -3,1 °C -2,1 °C 0,0 km/h (0 Bft)
09.11.2019 23:21 -2,1 °C 93 % 1008,2 hPa 0,0 mm 0,0 km/h (0 Bft) N-NO 15 ° 0 min 0,000 mm 0,0 UV-I 0 W/m² -3,1 °C -2,1 °C 0,0 km/h (0 Bft)
09.11.2019 23:22 -2,1 °C 93 % 1008,2 hPa 0,0 mm 0,0 km/h (0 Bft) N-NO 15 ° 0 min 0,000 mm 0,0 UV-I 0 W/m² -3,1 °C -2,1 °C 0,0 km/h (0 Bft)
09.11.2019 23:23 -2,2 °C 93 % 1008,2 hPa 0,0 mm 0,0 km/h (0 Bft) N-NO 15 ° 0 min 0,000 mm 0,0 UV-I 0 W/m² -3,2 °C -2,2 °C 0,0 km/h (0 Bft)
09.11.2019 23:24 -2,2 °C 93 % 1008,2 hPa 0,0 mm 0,0 km/h (0 Bft) N-NO 15 ° 0 min 0,000 mm 0,0 UV-I 0 W/m² -3,2 °C -2,2 °C 0,0 km/h (0 Bft)
09.11.2019 23:25 -2,2 °C 93 % 1008,2 hPa 0,0 mm 0,0 km/h (0 Bft) N-NO 15 ° 0 min 0,000 mm 0,0 UV-I 0 W/m² -3,2 °C -2,2 °C 0,0 km/h (0 Bft)
09.11.2019 23:26 -2,2 °C 93 % 1008,2 hPa 0,0 mm 0,0 km/h (0 Bft) N-NO 15 ° 0 min 0,000 mm 0,0 UV-I 0 W/m² -3,2 °C -2,2 °C 0,0 km/h (0 Bft)
09.11.2019 23:27 -2,2 °C 93 % 1008,2 hPa 0,0 mm 0,0 km/h (0 Bft) N-NO 15 ° 0 min 0,000 mm 0,0 UV-I 0 W/m² -3,2 °C -2,2 °C 0,0 km/h (0 Bft)
09.11.2019 23:28 -2,2 °C 93 % 1008,2 hPa 0,0 mm 0,0 km/h (0 Bft) N-NO 15 ° 0 min 0,000 mm 0,0 UV-I 0 W/m² -3,2 °C -2,2 °C 0,0 km/h (0 Bft)
09.11.2019 23:29 -2,2 °C 93 % 1008,2 hPa 0,0 mm 0,0 km/h (0 Bft) N-NO 15 ° 0 min 0,000 mm 0,0 UV-I 0 W/m² -3,2 °C -2,2 °C 0,0 km/h (0 Bft)
09.11.2019 23:30 -2,2 °C 93 % 1008,1 hPa 0,0 mm 0,0 km/h (0 Bft) N-NO 15 ° 0 min 0,000 mm 0,0 UV-I 0 W/m² -3,2 °C -2,2 °C 0,0 km/h (0 Bft)
09.11.2019 23:31 -2,2 °C 93 % 1008,1 hPa 0,0 mm 0,0 km/h (0 Bft) N-NO 15 ° 0 min 0,000 mm 0,0 UV-I 0 W/m² -3,2 °C -2,2 °C 0,0 km/h (0 Bft)
09.11.2019 23:32 -2,3 °C 93 % 1008,1 hPa 0,0 mm 0,0 km/h (0 Bft) N-NO 15 ° 0 min 0,000 mm 0,0 UV-I 0 W/m² -3,3 °C -2,3 °C 0,0 km/h (0 Bft)
09.11.2019 23:33 -2,2 °C 93 % 1008,1 hPa 0,0 mm 0,0 km/h (0 Bft) N-NO 15 ° 0 min 0,000 mm 0,0 UV-I 0 W/m² -3,2 °C -2,2 °C 0,0 km/h (0 Bft)
09.11.2019 23:34 -2,3 °C 93 % 1008,1 hPa 0,0 mm 0,0 km/h (0 Bft) N-NO 15 ° 0 min 0,000 mm 0,0 UV-I 0 W/m² -3,3 °C -2,3 °C 0,0 km/h (0 Bft)
09.11.2019 23:35 -2,3 °C 93 % 1008,1 hPa 0,0 mm 0,0 km/h (0 Bft) N-NO 15 ° 0 min 0,000 mm 0,0 UV-I 0 W/m² -3,3 °C -2,3 °C 0,0 km/h (0 Bft)
09.11.2019 23:36 -2,3 °C 93 % 1008,1 hPa 0,0 mm 0,0 km/h (0 Bft) N-NO 15 ° 0 min 0,000 mm 0,0 UV-I 0 W/m² -3,3 °C -2,3 °C 0,0 km/h (0 Bft)
09.11.2019 23:37 -2,3 °C 93 % 1008,2 hPa 0,0 mm 0,0 km/h (0 Bft) N-NO 15 ° 0 min 0,000 mm 0,0 UV-I 0 W/m² -3,3 °C -2,3 °C 0,0 km/h (0 Bft)
09.11.2019 23:38 -2,3 °C 93 % 1008,1 hPa 0,0 mm 0,0 km/h (0 Bft) N-NO 15 ° 0 min 0,000 mm 0,0 UV-I 0 W/m² -3,3 °C -2,3 °C 0,0 km/h (0 Bft)
09.11.2019 23:39 -2,3 °C 93 % 1008,1 hPa 0,0 mm 0,0 km/h (0 Bft) N-NO 15 ° 0 min 0,000 mm 0,0 UV-I 0 W/m² -3,3 °C -2,3 °C 0,0 km/h (0 Bft)
09.11.2019 23:40 -2,3 °C 93 % 1008,1 hPa 0,0 mm 0,0 km/h (0 Bft) N-NO 15 ° 0 min 0,000 mm 0,0 UV-I 0 W/m² -3,3 °C -2,3 °C 0,0 km/h (0 Bft)
09.11.2019 23:41 -2,3 °C 93 % 1008,1 hPa 0,0 mm 0,0 km/h (0 Bft) N-NO 15 ° 0 min 0,000 mm 0,0 UV-I 0 W/m² -3,3 °C -2,3 °C 0,0 km/h (0 Bft)
09.11.2019 23:42 -2,3 °C 93 % 1008,1 hPa 0,0 mm 0,0 km/h (0 Bft) N-NO 15 ° 0 min 0,000 mm 0,0 UV-I 0 W/m² -3,3 °C -2,3 °C 0,0 km/h (0 Bft)
09.11.2019 23:43 -2,3 °C 93 % 1008,1 hPa 0,0 mm 0,0 km/h (0 Bft) N-NO 15 ° 0 min 0,000 mm 0,0 UV-I 0 W/m² -3,3 °C -2,3 °C 0,0 km/h (0 Bft)
09.11.2019 23:44 -2,3 °C 93 % 1008,1 hPa 0,0 mm 0,0 km/h (0 Bft) N-NO 15 ° 0 min 0,000 mm 0,0 UV-I 0 W/m² -3,3 °C -2,3 °C 0,0 km/h (0 Bft)
09.11.2019 23:45 -2,3 °C 93 % 1008,1 hPa 0,0 mm 0,0 km/h (0 Bft) N-NO 15 ° 0 min 0,000 mm 0,0 UV-I 0 W/m² -3,3 °C -2,3 °C 0,0 km/h (0 Bft)
09.11.2019 23:46 -2,3 °C 93 % 1008,2 hPa 0,0 mm 0,0 km/h (0 Bft) N-NO 15 ° 0 min 0,000 mm 0,0 UV-I 0 W/m² -3,3 °C -2,3 °C 0,0 km/h (0 Bft)
09.11.2019 23:47 -2,3 °C 93 % 1008,1 hPa 0,0 mm 0,0 km/h (0 Bft) N-NO 15 ° 0 min 0,000 mm 0,0 UV-I 0 W/m² -3,3 °C -2,3 °C 0,0 km/h (0 Bft)
09.11.2019 23:48 -2,4 °C 93 % 1008,1 hPa 0,0 mm 0,0 km/h (0 Bft) N-NO 15 ° 0 min 0,000 mm 0,0 UV-I 0 W/m² -3,4 °C -2,4 °C 0,0 km/h (0 Bft)
09.11.2019 23:49 -2,4 °C 93 % 1008,1 hPa 0,0 mm 0,0 km/h (0 Bft) N-NO 15 ° 0 min 0,000 mm 0,0 UV-I 0 W/m² -3,4 °C -2,4 °C 0,0 km/h (0 Bft)
09.11.2019 23:50 -2,4 °C 93 % 1008,2 hPa 0,0 mm 0,0 km/h (0 Bft) N-NO 15 ° 0 min 0,000 mm 0,0 UV-I 0 W/m² -3,4 °C -2,4 °C 0,0 km/h (0 Bft)
09.11.2019 23:51 -2,4 °C 93 % 1008,2 hPa 0,0 mm 0,0 km/h (0 Bft) N-NO 15 ° 0 min 0,000 mm 0,0 UV-I 0 W/m² -3,4 °C -2,4 °C 0,0 km/h (0 Bft)
09.11.2019 23:52 -2,4 °C 93 % 1008,2 hPa 0,0 mm 0,0 km/h (0 Bft) N-NO 15 ° 0 min 0,000 mm 0,0 UV-I 0 W/m² -3,4 °C -2,4 °C 0,0 km/h (0 Bft)
09.11.2019 23:53 -2,4 °C 93 % 1008,1 hPa 0,0 mm 0,0 km/h (0 Bft) N-NO 15 ° 0 min 0,000 mm 0,0 UV-I 0 W/m² -3,4 °C -2,4 °C 0,0 km/h (0 Bft)
09.11.2019 23:54 -2,4 °C 93 % 1008,1 hPa 0,0 mm 0,0 km/h (0 Bft) N-NO 15 ° 0 min 0,000 mm 0,0 UV-I 0 W/m² -3,4 °C -2,4 °C 0,0 km/h (0 Bft)
09.11.2019 23:55 -2,4 °C 93 % 1008,1 hPa 0,0 mm 0,0 km/h (0 Bft) N-NO 15 ° 0 min 0,000 mm 0,0 UV-I 0 W/m² -3,4 °C -2,4 °C 0,0 km/h (0 Bft)
09.11.2019 23:56 -2,4 °C 93 % 1008,1 hPa 0,0 mm 0,0 km/h (0 Bft) N-NO 15 ° 0 min 0,000 mm 0,0 UV-I 0 W/m² -3,4 °C -2,4 °C 0,0 km/h (0 Bft)
09.11.2019 23:57 -2,4 °C 93 % 1008,2 hPa 0,0 mm 0,0 km/h (0 Bft) N-NO 15 ° 0 min 0,000 mm 0,0 UV-I 0 W/m² -3,4 °C -2,4 °C 0,0 km/h (0 Bft)
09.11.2019 23:58 -2,4 °C 93 % 1008,1 hPa 0,0 mm 0,0 km/h (0 Bft) N-NO 15 ° 0 min 0,000 mm 0,0 UV-I 0 W/m² -3,4 °C -2,4 °C 0,0 km/h (0 Bft)
09.11.2019 23:59 -2,4 °C 93 % 1008,2 hPa 0,0 mm 0,0 km/h (0 Bft) N-NO 15 ° 0 min 0,000 mm 0,0 UV-I 0 W/m² -3,4 °C -2,4 °C 0,0 km/h (0 Bft)
_ Min-Zeit 23:59 13:33 01:07 - 23:59 - - - - - - 23:59 23:59 23:59
Minimum _ -2,4 °C 77 % 1006,5 hPa - 0,0 km/h (0 Bft) - - - - - - -3,4 °C -2,4 °C 0,0 km/h (0 Bft)
_ Max-Zeit 13:38 23:59 11:27 16:06 04:29 - - 23:59 13:01 12:41 13:22 12:29 13:39 05:10
Maximum _ 5,5 °C 93 % 1011,5 hPa 0,2 mm 18,2 km/h
W (3 Bft)
- - 0 min 0,077 mm 1,4 UV-I 390 W/m² 2,6 °C 5,4 °C 27,4 km/h
W-SW (4 Bft)
Durchschnitt _ 2,2 °C 89 % 1009,5 hPa #0,4 mm 3,7 km/h (1 Bft) W - #0 min. #0,381 mm 0,9 UV-I 39 W/m² 0,5 °C 1,4 °C 5,9 km/h (2 Bft)